Wetterdaten: Sonntag, 28.01.2018
Datum Zeit Temp. A. Pool Temp. Feuchte A. Luftdruck Regen Wind Richtung Richtung Sonnenschein ET UV Solar Taupunkt Windchill Windben Empfang
28.01.2018 00:00 1,7 C 3,9 C 99 % 1034,8 hPa 0,0 l/m 0,0 km/h (0 Bft) W-NW 296 0 min 0,000 mm 0,0 UV-I 0 W/m 1,6 C 1,7 C 0,0 km/h (0 Bft) 96,59 %
28.01.2018 00:02 1,7 C 3,9 C 99 % 1034,9 hPa 0,0 l/m 1,4 km/h (1 Bft) W-NW 296 0 min 0,000 mm 0,0 UV-I 0 W/m 1,6 C 1,7 C 3,2 km/h (1 Bft) 97,14 %
28.01.2018 00:04 1,6 C 3,9 C 99 % 1035,0 hPa 0,0 l/m 0,0 km/h (0 Bft) W-NW 296 0 min 0,000 mm 0,0 UV-I 0 W/m 1,5 C 1,6 C 0,0 km/h (0 Bft) 94,00 %
28.01.2018 00:06 1,7 C 3,9 C 99 % 1035,0 hPa 0,0 l/m 0,0 km/h (0 Bft) W-NW 296 0 min 0,000 mm 0,0 UV-I 0 W/m 1,6 C 1,7 C 0,0 km/h (0 Bft) 95,74 %
28.01.2018 00:08 1,7 C 3,9 C 99 % 1035,0 hPa 0,0 l/m 0,0 km/h (0 Bft) W-NW 296 0 min 0,000 mm 0,0 UV-I 0 W/m 1,6 C 1,7 C 0,0 km/h (0 Bft) 92,45 %
28.01.2018 00:10 1,7 C 3,9 C 99 % 1035,0 hPa 0,0 l/m 0,0 km/h (0 Bft) W-NW 296 0 min 0,000 mm 0,0 UV-I 0 W/m 1,6 C 1,7 C 1,6 km/h (1 Bft) 94,87 %
28.01.2018 00:12 1,7 C 3,9 C 99 % 1035,0 hPa 0,0 l/m 0,1 km/h (0 Bft) W-NW 296 0 min 0,000 mm 0,0 UV-I 0 W/m 1,6 C 1,7 C 1,6 km/h (1 Bft) 98,00 %
28.01.2018 00:14 1,6 C 3,9 C 99 % 1035,0 hPa 0,0 l/m 0,0 km/h (0 Bft) W-NW 296 0 min 0,000 mm 0,0 UV-I 0 W/m 1,5 C 1,6 C 1,6 km/h (1 Bft) 93,62 %
28.01.2018 00:16 1,6 C 3,9 C 99 % 1034,9 hPa 0,0 l/m 0,1 km/h (0 Bft) W-NW 296 0 min 0,000 mm 0,0 UV-I 0 W/m 1,5 C 1,6 C 1,6 km/h (1 Bft) 96,00 %
28.01.2018 00:18 1,6 C 3,9 C 99 % 1034,9 hPa 0,0 l/m 0,8 km/h (0 Bft) W-NW 296 0 min 0,000 mm 0,0 UV-I 0 W/m 1,5 C 1,6 C 1,6 km/h (1 Bft) 96,00 %
28.01.2018 00:20 1,6 C 3,9 C 99 % 1034,8 hPa 0,0 l/m 0,0 km/h (0 Bft) W-NW 296 0 min 0,000 mm 0,0 UV-I 0 W/m 1,5 C 1,6 C 1,6 km/h (1 Bft) 95,74 %
28.01.2018 00:22 1,6 C 3,9 C 99 % 1034,8 hPa 0,0 l/m 0,9 km/h (0 Bft) W-NW 296 0 min 0,000 mm 0,0 UV-I 0 W/m 1,5 C 1,6 C 3,2 km/h (1 Bft) 95,12 %
28.01.2018 00:24 1,6 C 3,9 C 99 % 1034,8 hPa 0,0 l/m 0,2 km/h (0 Bft) W-NW 296 0 min 0,000 mm 0,0 UV-I 0 W/m 1,5 C 1,6 C 1,6 km/h (1 Bft) 94,34 %
28.01.2018 00:26 1,6 C 3,9 C 99 % 1034,9 hPa 0,0 l/m 0,9 km/h (0 Bft) W-NW 296 0 min 0,000 mm 0,0 UV-I 0 W/m 1,5 C 1,6 C 3,2 km/h (1 Bft) 92,11 %
28.01.2018 00:28 1,6 C 3,9 C 99 % 1034,9 hPa 0,0 l/m 0,0 km/h (0 Bft) W-NW 296 0 min 0,000 mm 0,0 UV-I 0 W/m 1,5 C 1,6 C 0,0 km/h (0 Bft) 95,45 %
28.01.2018 00:30 1,6 C 3,9 C 99 % 1034,7 hPa 0,0 l/m 0,0 km/h (0 Bft) W-NW 296 0 min 0,000 mm 0,0 UV-I 0 W/m 1,5 C 1,6 C 0,0 km/h (0 Bft) 95,74 %
28.01.2018 00:32 1,6 C 3,9 C 99 % 1034,7 hPa 0,0 l/m 0,2 km/h (0 Bft) W-NW 296 0 min 0,000 mm 0,0 UV-I 0 W/m 1,5 C 1,6 C 1,6 km/h (1 Bft) 93,62 %
28.01.2018 00:34 1,6 C 3,9 C 99 % 1034,7 hPa 0,0 l/m 0,0 km/h (0 Bft) W-NW 296 0 min 0,000 mm 0,0 UV-I 0 W/m 1,5 C 1,6 C 1,6 km/h (1 Bft) 96,00 %
28.01.2018 00:36 1,5 C 3,9 C 99 % 1034,6 hPa 0,0 l/m 0,1 km/h (0 Bft) W-NW 296 0 min 0,000 mm 0,0 UV-I 0 W/m 1,4 C 1,5 C 1,6 km/h (1 Bft) 96,00 %
28.01.2018 00:38 1,6 C 3,9 C 99 % 1034,6 hPa 0,0 l/m 0,0 km/h (0 Bft) W-NW 296 0 min 0,000 mm 0,0 UV-I 0 W/m 1,5 C 1,6 C 0,0 km/h (0 Bft) 97,87 %
28.01.2018 00:40 1,6 C 3,9 C 99 % 1034,6 hPa 0,0 l/m 0,0 km/h (0 Bft) W-NW 296 0 min 0,000 mm 0,0 UV-I 0 W/m 1,5 C 1,6 C 0,0 km/h (0 Bft) 97,87 %
28.01.2018 00:42 1,6 C 3,9 C 99 % 1034,6 hPa 0,0 l/m 1,0 km/h (0 Bft) W-NW 296 0 min 0,000 mm 0,0 UV-I 0 W/m 1,5 C 1,6 C 3,2 km/h (1 Bft) 95,83 %
28.01.2018 00:44 1,6 C 3,9 C 99 % 1034,5 hPa 0,0 l/m 0,3 km/h (0 Bft) W-NW 296 0 min 0,000 mm 0,0 UV-I 0 W/m 1,5 C 1,6 C 1,6 km/h (1 Bft) 98,44 %
28.01.2018 00:46 1,6 C 3,9 C 99 % 1034,5 hPa 0,0 l/m 0,6 km/h (0 Bft) W-NW 296 0 min 0,000 mm 0,0 UV-I 0 W/m 1,5 C 1,6 C 1,6 km/h (1 Bft) 95,74 %
28.01.2018 00:48 1,6 C 3,9 C 99 % 1034,4 hPa 0,0 l/m 0,0 km/h (0 Bft) W-NW 296 0 min 0,000 mm 0,0 UV-I 0 W/m 1,5 C 1,6 C 0,0 km/h (0 Bft) 92,31 %
28.01.2018 00:50 1,6 C 3,9 C 99 % 1034,5 hPa 0,0 l/m 0,0 km/h (0 Bft) W-NW 296 0 min 0,000 mm 0,0 UV-I 0 W/m 1,5 C 1,6 C 0,0 km/h (0 Bft) 98,21 %
28.01.2018 00:52 1,6 C 3,9 C 99 % 1034,5 hPa 0,0 l/m 0,3 km/h (0 Bft) W-NW 296 0 min 0,000 mm 0,0 UV-I 0 W/m 1,5 C 1,6 C 1,6 km/h (1 Bft) 96,00 %
28.01.2018 00:54 1,6 C 3,9 C 99 % 1034,5 hPa 0,0 l/m 0,0 km/h (0 Bft) W-NW 296 0 min 0,000 mm 0,0 UV-I 0 W/m 1,5 C 1,6 C 0,0 km/h (0 Bft) 97,56 %
28.01.2018 00:56 1,6 C 3,9 C 99 % 1034,6 hPa 0,0 l/m 0,0 km/h (0 Bft) W-NW 296 0 min 0,000 mm 0,0 UV-I 0 W/m 1,5 C 1,6 C 0,0 km/h (0 Bft) 97,87 %
28.01.2018 00:58 1,6 C 3,9 C 99 % 1034,6 hPa 0,0 l/m 0,0 km/h (0 Bft) W-NW 296 0 min 0,000 mm 0,0 UV-I 0 W/m 1,5 C 1,6 C 0,0 km/h (0 Bft) 97,87 %
28.01.2018 01:00 1,6 C 3,9 C 99 % 1034,7 hPa 0,0 l/m 0,0 km/h (0 Bft) W-NW 296 0 min 0,000 mm 0,0 UV-I 0 W/m 1,5 C 1,6 C 0,0 km/h (0 Bft) 98,11 %
28.01.2018 01:02 1,6 C 3,9 C 99 % 1034,7 hPa 0,0 l/m 0,0 km/h (0 Bft) W-NW 296 0 min 0,000 mm 0,0 UV-I 0 W/m 1,5 C 1,6 C 0,0 km/h (0 Bft) 100,00 %
28.01.2018 01:04 1,6 C 3,9 C 99 % 1034,7 hPa 0,0 l/m 0,0 km/h (0 Bft) W-NW 296 0 min 0,000 mm 0,0 UV-I 0 W/m 1,5 C 1,6 C 0,0 km/h (0 Bft) 100,00 %
28.01.2018 01:06 1,6 C 3,9 C 99 % 1034,7 hPa 0,0 l/m 0,0 km/h (0 Bft) W-NW 296 0 min 0,000 mm 0,0 UV-I 0 W/m 1,5 C 1,6 C 0,0 km/h (0 Bft) 100,00 %
28.01.2018 01:08 1,6 C 3,9 C 99 % 1034,6 hPa 0,0 l/m 0,0 km/h (0 Bft) W-NW 296 0 min 0,000 mm 0,0 UV-I 0 W/m 1,5 C 1,6 C 0,0 km/h (0 Bft) 97,87 %
28.01.2018 01:10 1,6 C 3,9 C 99 % 1034,6 hPa 0,0 l/m 0,0 km/h (0 Bft) W-NW 296 0 min 0,000 mm 0,0 UV-I 0 W/m 1,5 C 1,6 C 0,0 km/h (0 Bft) 100,00 %
28.01.2018 01:12 1,6 C 3,9 C 99 % 1034,6 hPa 0,0 l/m 0,0 km/h (0 Bft) W-NW 296 0 min 0,000 mm 0,0 UV-I 0 W/m 1,5 C 1,6 C 0,0 km/h (0 Bft) 98,00 %
28.01.2018 01:14 1,6 C 3,9 C 99 % 1034,5 hPa 0,0 l/m 0,3 km/h (0 Bft) W-NW 296 0 min 0,000 mm 0,0 UV-I 0 W/m 1,5 C 1,6 C 1,6 km/h (1 Bft) 97,87 %
28.01.2018 01:16 1,6 C 3,9 C 99 % 1034,6 hPa 0,0 l/m 0,0 km/h (0 Bft) W-NW 296 0 min 0,000 mm 0,0 UV-I 0 W/m 1,5 C 1,6 C 0,0 km/h (0 Bft) 100,00 %
28.01.2018 01:18 1,6 C 3,9 C 99 % 1034,6 hPa 0,0 l/m 0,0 km/h (0 Bft) W-NW 296 0 min 0,000 mm 0,0 UV-I 0 W/m 1,5 C 1,6 C 0,0 km/h (0 Bft) 100,00 %
28.01.2018 01:20 1,6 C 3,9 C 99 % 1034,6 hPa 0,0 l/m 0,0 km/h (0 Bft) W-NW 296 0 min 0,000 mm 0,0 UV-I 0 W/m 1,5 C 1,6 C 0,0 km/h (0 Bft) 100,00 %
28.01.2018 01:22 1,6 C 3,9 C 99 % 1034,6 hPa 0,0 l/m 0,0 km/h (0 Bft) W-NW 296 0 min 0,000 mm 0,0 UV-I 0 W/m 1,5 C 1,6 C 0,0 km/h (0 Bft) 98,04 %
28.01.2018 01:24 1,7 C 3,9 C 99 % 1034,7 hPa 0,0 l/m 0,0 km/h (0 Bft) W-NW 296 0 min 0,000 mm 0,0 UV-I 0 W/m 1,6 C 1,7 C 0,0 km/h (0 Bft) 100,00 %
28.01.2018 01:26 1,7 C 3,9 C 99 % 1034,8 hPa 0,0 l/m 0,0 km/h (0 Bft) W-NW 296 0 min 0,000 mm 0,0 UV-I 0 W/m 1,6 C 1,7 C 0,0 km/h (0 Bft) 100,00 %
28.01.2018 01:28 1,6 C 3,9 C 99 % 1034,8 hPa 0,0 l/m 0,0 km/h (0 Bft) W-NW 296 0 min 0,000 mm 0,0 UV-I 0 W/m 1,5 C 1,6 C 0,0 km/h (0 Bft) 100,00 %
28.01.2018 01:30 1,6 C 3,9 C 99 % 1034,7 hPa 0,0 l/m 0,0 km/h (0 Bft) W-NW 296 0 min 0,000 mm 0,0 UV-I 0 W/m 1,5 C 1,6 C 0,0 km/h (0 Bft) 100,00 %
28.01.2018 01:32 1,6 C 3,9 C 99 % 1034,6 hPa 0,0 l/m 0,0 km/h (0 Bft) W-NW 296 0 min 0,000 mm 0,0 UV-I 0 W/m 1,5 C 1,6 C 0,0 km/h (0 Bft) 100,00 %
28.01.2018 01:34 1,6 C 3,9 C 99 % 1034,5 hPa 0,0 l/m 0,0 km/h (0 Bft) W-NW 296 0 min 0,000 mm 0,0 UV-I 0 W/m 1,5 C 1,6 C 0,0 km/h (0 Bft) 100,00 %
28.01.2018 01:36 1,6 C 3,9 C 99 % 1034,6 hPa 0,0 l/m 0,0 km/h (0 Bft) W-NW 296 0 min 0,000 mm 0,0 UV-I 0 W/m 1,5 C 1,6 C 0,0 km/h (0 Bft) 100,00 %
28.01.2018 01:38 1,6 C 3,9 C 99 % 1034,6 hPa 0,0 l/m 0,0 km/h (0 Bft) W-NW 296 0 min 0,000 mm 0,0 UV-I 0 W/m 1,5 C 1,6 C 0,0 km/h (0 Bft) 100,00 %
28.01.2018 01:40 1,6 C 3,9 C 99 % 1034,6 hPa 0,0 l/m 0,0 km/h (0 Bft) W-NW 296 0 min 0,000 mm 0,0 UV-I 0 W/m 1,5 C 1,6 C 0,0 km/h (0 Bft) 97,87 %
28.01.2018 01:42 1,6 C 3,9 C 99 % 1034,5 hPa 0,0 l/m 0,0 km/h (0 Bft) W-NW 296 0 min 0,000 mm 0,0 UV-I 0 W/m 1,5 C 1,6 C 0,0 km/h (0 Bft) 100,00 %
28.01.2018 01:44 1,6 C 3,9 C 99 % 1034,5 hPa 0,0 l/m 0,3 km/h (0 Bft) W-NW 296 0 min 0,000 mm 0,0 UV-I 0 W/m 1,5 C 1,6 C 1,6 km/h (1 Bft) 100,00 %
28.01.2018 01:46 1,6 C 3,9 C 99 % 1034,6 hPa 0,0 l/m 0,4 km/h (0 Bft) W-NW 296 0 min 0,000 mm 0,0 UV-I 0 W/m 1,5 C 1,6 C 1,6 km/h (1 Bft) 100,00 %
28.01.2018 01:48 1,6 C 3,9 C 99 % 1034,6 hPa 0,0 l/m 0,3 km/h (0 Bft) W-NW 296 0 min 0,000 mm 0,0 UV-I 0 W/m 1,5 C 1,6 C 1,6 km/h (1 Bft) 97,87 %
28.01.2018 01:50 1,6 C 3,9 C 99 % 1034,7 hPa 0,0 l/m 0,9 km/h (0 Bft) W-NW 296 0 min 0,000 mm 0,0 UV-I 0 W/m 1,5 C 1,6 C 3,2 km/h (1 Bft) 100,00 %
28.01.2018 01:52 1,6 C 3,9 C 99 % 1034,6 hPa 0,0 l/m 0,8 km/h (0 Bft) W-NW 296 0 min 0,000 mm 0,0 UV-I 0 W/m 1,5 C 1,6 C 1,6 km/h (1 Bft) 100,00 %
28.01.2018 01:54 1,6 C 3,9 C 99 % 1034,6 hPa 0,0 l/m 0,0 km/h (0 Bft) W-NW 296 0 min 0,000 mm 0,0 UV-I 0 W/m 1,5 C 1,6 C 0,0 km/h (0 Bft) 98,00 %
28.01.2018 01:56 1,6 C 3,9 C 99 % 1034,5 hPa 0,0 l/m 0,4 km/h (0 Bft) W-NW 296 0 min 0,000 mm 0,0 UV-I 0 W/m 1,5 C 1,6 C 1,6 km/h (1 Bft) 100,00 %
28.01.2018 01:58 1,6 C 3,9 C 99 % 1034,5 hPa 0,0 l/m 0,1 km/h (0 Bft) W-NW 296 0 min 0,000 mm 0,0 UV-I 0 W/m 1,5 C 1,6 C 1,6 km/h (1 Bft) 100,00 %
28.01.2018 02:00 1,6 C 3,9 C 99 % 1034,5 hPa 0,0 l/m 0,2 km/h (0 Bft) W-NW 295 0 min 0,000 mm 0,0 UV-I 0 W/m 1,5 C 1,6 C 1,6 km/h (1 Bft) 100,00 %
28.01.2018 02:02 1,6 C 3,9 C 99 % 1034,6 hPa 0,0 l/m 0,0 km/h (0 Bft) W-NW 295 0 min 0,000 mm 0,0 UV-I 0 W/m 1,5 C 1,6 C 0,0 km/h (0 Bft) 100,00 %
28.01.2018 02:04 1,6 C 3,9 C 99 % 1034,6 hPa 0,0 l/m 0,0 km/h (0 Bft) W-NW 295 0 min 0,000 mm 0,0 UV-I 0 W/m 1,5 C 1,6 C 0,0 km/h (0 Bft) 100,00 %
28.01.2018 02:06 1,6 C 3,9 C 99 % 1034,5 hPa 0,0 l/m 0,0 km/h (0 Bft) W-NW 295 0 min 0,000 mm 0,0 UV-I 0 W/m 1,5 C 1,6 C 0,0 km/h (0 Bft) 100,00 %
28.01.2018 02:08 1,6 C 3,9 C 99 % 1034,5 hPa 0,0 l/m 0,0 km/h (0 Bft) W-NW 295 0 min 0,000 mm 0,0 UV-I 0 W/m 1,5 C 1,6 C 0,0 km/h (0 Bft) 97,44 %
28.01.2018 02:10 1,6 C 3,9 C 99 % 1034,4 hPa 0,0 l/m 0,1 km/h (0 Bft) S-SW 198 0 min 0,000 mm 0,0 UV-I 0 W/m 1,5 C 1,6 C 1,6 km/h (1 Bft) 95,74 %
28.01.2018 02:12 1,6 C 3,9 C 99 % 1034,5 hPa 0,0 l/m 2,0 km/h (1 Bft) SO 136 0 min 0,000 mm 0,0 UV-I 0 W/m 1,5 C 1,6 C 4,8 km/h (1 Bft) 98,00 %
28.01.2018 02:14 1,6 C 3,9 C 99 % 1034,5 hPa 0,0 l/m 0,5 km/h (0 Bft) SO 138 0 min 0,000 mm 0,0 UV-I 0 W/m 1,5 C 1,6 C 3,2 km/h (1 Bft) 97,87 %
28.01.2018 02:16 1,6 C 3,9 C 99 % 1034,4 hPa 0,0 l/m 2,1 km/h (1 Bft) S-SO 153 0 min 0,000 mm 0,0 UV-I 0 W/m 1,5 C 1,6 C 4,8 km/h (1 Bft) 98,11 %
28.01.2018 02:18 1,6 C 3,9 C 99 % 1034,4 hPa 0,0 l/m 1,1 km/h (1 Bft) S-SO 153 0 min 0,000 mm 0,0 UV-I 0 W/m 1,5 C 1,6 C 4,8 km/h (1 Bft) 97,37 %
28.01.2018 02:20 1,6 C 3,9 C 99 % 1034,4 hPa 0,0 l/m 1,5 km/h (1 Bft) S-SO 153 0 min 0,000 mm 0,0 UV-I 0 W/m 1,5 C 1,6 C 3,2 km/h (1 Bft) 97,87 %
28.01.2018 02:22 1,6 C 3,9 C 99 % 1034,5 hPa 0,0 l/m 2,9 km/h (1 Bft) S 170 0 min 0,000 mm 0,0 UV-I 0 W/m 1,5 C 1,6 C 6,4 km/h (2 Bft) 98,00 %
28.01.2018 02:24 1,6 C 3,9 C 99 % 1034,5 hPa 0,0 l/m 0,3 km/h (0 Bft) S 170 0 min 0,000 mm 0,0 UV-I 0 W/m 1,5 C 1,6 C 1,6 km/h (1 Bft) 97,37 %
28.01.2018 02:26 1,6 C 3,9 C 99 % 1034,4 hPa 0,0 l/m 0,0 km/h (0 Bft) S 170 0 min 0,000 mm 0,0 UV-I 0 W/m 1,5 C 1,6 C 0,0 km/h (0 Bft) 98,00 %
28.01.2018 02:28 1,7 C 3,9 C 99 % 1034,4 hPa 0,0 l/m 0,0 km/h (0 Bft) S 170 0 min 0,000 mm 0,0 UV-I 0 W/m 1,6 C 1,7 C 0,0 km/h (0 Bft) 93,62 %
28.01.2018 02:30 1,7 C 3,9 C 99 % 1034,4 hPa 0,0 l/m 0,0 km/h (0 Bft) S 170 0 min 0,000 mm 0,0 UV-I 0 W/m 1,6 C 1,7 C 0,0 km/h (0 Bft) 95,74 %
28.01.2018 02:32 1,7 C 3,9 C 99 % 1034,4 hPa 0,0 l/m 0,0 km/h (0 Bft) S 170 0 min 0,000 mm 0,0 UV-I 0 W/m 1,6 C 1,7 C 0,0 km/h (0 Bft) 97,87 %
28.01.2018 02:34 1,6 C 3,9 C 99 % 1034,5 hPa 0,0 l/m 0,2 km/h (0 Bft) S 171 0 min 0,000 mm 0,0 UV-I 0 W/m 1,5 C 1,6 C 1,6 km/h (1 Bft) 98,00 %
28.01.2018 02:36 1,6 C 3,9 C 99 % 1034,7 hPa 0,0 l/m 0,1 km/h (0 Bft) S 171 0 min 0,000 mm 0,0 UV-I 0 W/m 1,5 C 1,6 C 1,6 km/h (1 Bft) 97,37 %
28.01.2018 02:38 1,6 C 3,9 C 99 % 1034,6 hPa 0,0 l/m 0,8 km/h (0 Bft) S 171 0 min 0,000 mm 0,0 UV-I 0 W/m 1,5 C 1,6 C 1,6 km/h (1 Bft) 98,39 %
28.01.2018 02:40 1,6 C 3,9 C 99 % 1034,5 hPa 0,0 l/m 0,0 km/h (0 Bft) S 171 0 min 0,000 mm 0,0 UV-I 0 W/m 1,5 C 1,6 C 0,0 km/h (0 Bft) 97,37 %
28.01.2018 02:42 1,6 C 3,9 C 99 % 1034,5 hPa 0,0 l/m 0,0 km/h (0 Bft) S 171 0 min 0,000 mm 0,0 UV-I 0 W/m 1,5 C 1,6 C 0,0 km/h (0 Bft) 98,00 %
28.01.2018 02:44 1,6 C 3,9 C 99 % 1034,4 hPa 0,0 l/m 0,0 km/h (0 Bft) S 171 0 min 0,000 mm 0,0 UV-I 0 W/m 1,5 C 1,6 C 0,0 km/h (0 Bft) 98,00 %
28.01.2018 02:46 1,6 C 3,9 C 99 % 1034,4 hPa 0,0 l/m 0,0 km/h (0 Bft) S 171 0 min 0,000 mm 0,0 UV-I 0 W/m 1,5 C 1,6 C 0,0 km/h (0 Bft) 97,87 %
28.01.2018 02:48 1,7 C 3,9 C 99 % 1034,4 hPa 0,0 l/m 0,0 km/h (0 Bft) S 171 0 min 0,000 mm 0,0 UV-I 0 W/m 1,6 C 1,7 C 0,0 km/h (0 Bft) 100,00 %
28.01.2018 02:50 1,7 C 3,9 C 99 % 1034,3 hPa 0,0 l/m 0,0 km/h (0 Bft) S 171 0 min 0,000 mm 0,0 UV-I 0 W/m 1,6 C 1,7 C 0,0 km/h (0 Bft) 100,00 %
28.01.2018 02:52 1,6 C 3,9 C 99 % 1034,3 hPa 0,0 l/m 0,0 km/h (0 Bft) S 171 0 min 0,000 mm 0,0 UV-I 0 W/m 1,5 C 1,6 C 0,0 km/h (0 Bft) 100,00 %
28.01.2018 02:54 1,6 C 3,9 C 99 % 1034,2 hPa 0,0 l/m 0,1 km/h (0 Bft) S 171 0 min 0,000 mm 0,0 UV-I 0 W/m 1,5 C 1,6 C 1,6 km/h (1 Bft) 100,00 %
28.01.2018 02:56 1,6 C 3,9 C 99 % 1034,1 hPa 0,0 l/m 0,6 km/h (0 Bft) S 171 0 min 0,000 mm 0,0 UV-I 0 W/m 1,5 C 1,6 C 3,2 km/h (1 Bft) 100,00 %
28.01.2018 02:58 1,6 C 3,9 C 99 % 1034,1 hPa 0,0 l/m 0,1 km/h (0 Bft) S 171 0 min 0,000 mm 0,0 UV-I 0 W/m 1,5 C 1,6 C 1,6 km/h (1 Bft) 100,00 %
28.01.2018 03:00 1,6 C 3,9 C 99 % 1034,2 hPa 0,0 l/m 0,4 km/h (0 Bft) S 171 0 min 0,000 mm 0,0 UV-I 0 W/m 1,5 C 1,6 C 1,6 km/h (1 Bft) 100,00 %
28.01.2018 03:02 1,6 C 3,9 C 99 % 1034,3 hPa 0,0 l/m 0,0 km/h (0 Bft) S 171 0 min 0,000 mm 0,0 UV-I 0 W/m 1,5 C 1,6 C 0,0 km/h (0 Bft) 95,45 %
28.01.2018 03:04 1,6 C 3,9 C 99 % 1034,2 hPa 0,0 l/m 0,0 km/h (0 Bft) S 171 0 min 0,000 mm 0,0 UV-I 0 W/m 1,5 C 1,6 C 0,0 km/h (0 Bft) 100,00 %
28.01.2018 03:06 1,6 C 3,9 C 99 % 1034,2 hPa 0,0 l/m 0,0 km/h (0 Bft) S 171 0 min 0,000 mm 0,0 UV-I 0 W/m 1,5 C 1,6 C 0,0 km/h (0 Bft) 100,00 %
28.01.2018 03:08 1,6 C 3,9 C 99 % 1034,3 hPa 0,0 l/m 0,0 km/h (0 Bft) S 171 0 min 0,000 mm 0,0 UV-I 0 W/m 1,5 C 1,6 C 0,0 km/h (0 Bft) 97,87 %
28.01.2018 03:10 1,6 C 3,9 C 99 % 1034,2 hPa 0,0 l/m 0,0 km/h (0 Bft) S 171 0 min 0,000 mm 0,0 UV-I 0 W/m 1,5 C 1,6 C 0,0 km/h (0 Bft) 100,00 %
28.01.2018 03:12 1,7 C 3,9 C 99 % 1034,1 hPa 0,0 l/m 0,0 km/h (0 Bft) S 171 0 min 0,000 mm 0,0 UV-I 0 W/m 1,6 C 1,7 C 0,0 km/h (0 Bft) 100,00 %
28.01.2018 03:14 1,6 C 3,9 C 99 % 1034,1 hPa 0,0 l/m 0,0 km/h (0 Bft) S 171 0 min 0,000 mm 0,0 UV-I 0 W/m 1,5 C 1,6 C 0,0 km/h (0 Bft) 100,00 %
28.01.2018 03:16 1,6 C 3,9 C 99 % 1034,1 hPa 0,0 l/m 0,0 km/h (0 Bft) S 171 0 min 0,000 mm 0,0 UV-I 0 W/m 1,5 C 1,6 C 0,0 km/h (0 Bft) 100,00 %
28.01.2018 03:18 1,6 C 3,9 C 99 % 1034,0 hPa 0,0 l/m 0,0 km/h (0 Bft) S 171 0 min 0,000 mm 0,0 UV-I 0 W/m 1,5 C 1,6 C 0,0 km/h (0 Bft) 100,00 %
28.01.2018 03:20 1,6 C 3,9 C 99 % 1034,0 hPa 0,0 l/m 0,0 km/h (0 Bft) S 171 0 min 0,000 mm 0,0 UV-I 0 W/m 1,5 C 1,6 C 0,0 km/h (0 Bft) 100,00 %
28.01.2018 03:22 1,6 C 3,9 C 99 % 1034,1 hPa 0,0 l/m 0,0 km/h (0 Bft) S 171 0 min 0,000 mm 0,0 UV-I 0 W/m 1,5 C 1,6 C 0,0 km/h (0 Bft) 100,00 %
28.01.2018 03:24 1,6 C 3,9 C 99 % 1034,1 hPa 0,0 l/m 0,0 km/h (0 Bft) S 171 0 min 0,000 mm 0,0 UV-I 0 W/m 1,5 C 1,6 C 0,0 km/h (0 Bft) 100,00 %
28.01.2018 03:26 1,6 C 3,9 C 99 % 1034,1 hPa 0,0 l/m 0,0 km/h (0 Bft) S 171 0 min 0,000 mm 0,0 UV-I 0 W/m 1,5 C 1,6 C 0,0 km/h (0 Bft) 100,00 %
28.01.2018 03:28 1,6 C 3,9 C 99 % 1034,2 hPa 0,0 l/m 0,0 km/h (0 Bft) S 171 0 min 0,000 mm 0,0 UV-I 0 W/m 1,5 C 1,6 C 0,0 km/h (0 Bft) 100,00 %
28.01.2018 03:30 1,7 C 3,9 C 99 % 1034,1 hPa 0,0 l/m 0,0 km/h (0 Bft) S 171 0 min 0,000 mm 0,0 UV-I 0 W/m 1,6 C 1,7 C 0,0 km/h (0 Bft) 100,00 %
28.01.2018 03:32 1,7 C 3,9 C 99 % 1034,1 hPa 0,0 l/m 0,0 km/h (0 Bft) S 171 0 min 0,000 mm 0,0 UV-I 0 W/m 1,6 C 1,7 C 0,0 km/h (0 Bft) 100,00 %
28.01.2018 03:34 1,7 C 3,9 C 99 % 1034,1 hPa 0,0 l/m 0,0 km/h (0 Bft) S 171 0 min 0,000 mm 0,0 UV-I 0 W/m 1,6 C 1,7 C 0,0 km/h (0 Bft) 100,00 %
28.01.2018 03:36 1,7 C 3,9 C 99 % 1034,1 hPa 0,0 l/m 0,0 km/h (0 Bft) S 171 0 min 0,000 mm 0,0 UV-I 0 W/m 1,6 C 1,7 C 0,0 km/h (0 Bft) 97,87 %
28.01.2018 03:38 1,7 C 3,9 C 99 % 1034,1 hPa 0,0 l/m 0,0 km/h (0 Bft) S 171 0 min 0,000 mm 0,0 UV-I 0 W/m 1,6 C 1,7 C 0,0 km/h (0 Bft) 100,00 %
28.01.2018 03:40 1,7 C 3,9 C 99 % 1034,1 hPa 0,0 l/m 0,0 km/h (0 Bft) S 171 0 min 0,000 mm 0,0 UV-I 0 W/m 1,6 C 1,7 C 0,0 km/h (0 Bft) 100,00 %
28.01.2018 03:42 1,7 C 3,9 C 99 % 1034,1 hPa 0,0 l/m 0,0 km/h (0 Bft) S 171 0 min 0,000 mm 0,0 UV-I 0 W/m 1,6 C 1,7 C 0,0 km/h (0 Bft) 100,00 %
28.01.2018 03:44 1,7 C 3,9 C 99 % 1034,1 hPa 0,0 l/m 0,0 km/h (0 Bft) S 171 0 min 0,000 mm 0,0 UV-I 0 W/m 1,6 C 1,7 C 0,0 km/h (0 Bft) 100,00 %
28.01.2018 03:46 1,6 C 3,9 C 99 % 1034,1 hPa 0,0 l/m 0,0 km/h (0 Bft) S 171 0 min 0,000 mm 0,0 UV-I 0 W/m 1,5 C 1,6 C 0,0 km/h (0 Bft) 100,00 %
28.01.2018 03:48 1,6 C 3,9 C 99 % 1034,1 hPa 0,0 l/m 0,0 km/h (0 Bft) S 171 0 min 0,000 mm 0,0 UV-I 0 W/m 1,5 C 1,6 C 0,0 km/h (0 Bft) 100,00 %
28.01.2018 03:50 1,6 C 3,9 C 99 % 1034,1 hPa 0,0 l/m 0,0 km/h (0 Bft) S 171 0 min 0,000 mm 0,0 UV-I 0 W/m 1,5 C 1,6 C 0,0 km/h (0 Bft) 100,00 %
28.01.2018 03:52 1,6 C 3,9 C 99 % 1034,1 hPa 0,0 l/m 0,0 km/h (0 Bft) S 171 0 min 0,000 mm 0,0 UV-I 0 W/m 1,5 C 1,6 C 0,0 km/h (0 Bft) 100,00 %
28.01.2018 03:54 1,6 C 3,9 C 99 % 1034,1 hPa 0,0 l/m 0,0 km/h (0 Bft) S 171 0 min 0,000 mm 0,0 UV-I 0 W/m 1,5 C 1,6 C 0,0 km/h (0 Bft) 97,87 %
28.01.2018 03:56 1,6 C 3,9 C 99 % 1034,0 hPa 0,0 l/m 0,0 km/h (0 Bft) S 171 0 min 0,000 mm 0,0 UV-I 0 W/m 1,5 C 1,6 C 0,0 km/h (0 Bft) 94,29 %
28.01.2018 03:58 1,6 C 3,9 C 99 % 1034,0 hPa 0,0 l/m 0,0 km/h (0 Bft) S 171 0 min 0,000 mm 0,0 UV-I 0 W/m 1,5 C 1,6 C 0,0 km/h (0 Bft) 98,00 %
28.01.2018 04:00 1,6 C 3,9 C 99 % 1034,0 hPa 0,0 l/m 0,0 km/h (0 Bft) S 171 0 min 0,000 mm 0,0 UV-I 0 W/m 1,5 C 1,6 C 0,0 km/h (0 Bft) 98,00 %
28.01.2018 04:02 1,6 C 3,9 C 99 % 1034,0 hPa 0,0 l/m 0,0 km/h (0 Bft) S 171 0 min 0,000 mm 0,0 UV-I 0 W/m 1,5 C 1,6 C 0,0 km/h (0 Bft) 93,75 %
28.01.2018 04:04 1,7 C 3,9 C 99 % 1034,1 hPa 0,0 l/m 0,0 km/h (0 Bft) S 171 0 min 0,000 mm 0,0 UV-I 0 W/m 1,6 C 1,7 C 0,0 km/h (0 Bft) 100,00 %
28.01.2018 04:06 1,6 C 3,9 C 99 % 1034,1 hPa 0,0 l/m 0,0 km/h (0 Bft) S 171 0 min 0,000 mm 0,0 UV-I 0 W/m 1,5 C 1,6 C 0,0 km/h (0 Bft) 96,00 %
28.01.2018 04:08 1,7 C 3,9 C 99 % 1034,1 hPa 0,0 l/m 0,0 km/h (0 Bft) S 171 0 min 0,000 mm 0,0 UV-I 0 W/m 1,6 C 1,7 C 0,0 km/h (0 Bft) 97,87 %
28.01.2018 04:10 1,7 C 3,9 C 99 % 1034,1 hPa 0,0 l/m 0,0 km/h (0 Bft) S 171 0 min 0,000 mm 0,0 UV-I 0 W/m 1,6 C 1,7 C 0,0 km/h (0 Bft) 98,00 %
28.01.2018 04:12 1,7 C 3,9 C 99 % 1034,1 hPa 0,0 l/m 0,0 km/h (0 Bft) S 171 0 min 0,000 mm 0,0 UV-I 0 W/m 1,6 C 1,7 C 0,0 km/h (0 Bft) 98,00 %
28.01.2018 04:14 1,7 C 3,9 C 99 % 1034,0 hPa 0,0 l/m 0,2 km/h (0 Bft) S 171 0 min 0,000 mm 0,0 UV-I 0 W/m 1,6 C 1,7 C 1,6 km/h (1 Bft) 97,37 %
28.01.2018 04:16 1,7 C 3,9 C 99 % 1034,1 hPa 0,0 l/m 0,7 km/h (0 Bft) S 171 0 min 0,000 mm 0,0 UV-I 0 W/m 1,6 C 1,7 C 3,2 km/h (1 Bft) 96,00 %
28.01.2018 04:18 1,7 C 3,9 C 99 % 1034,1 hPa 0,0 l/m 1,0 km/h (0 Bft) S 171 0 min 0,000 mm 0,0 UV-I 0 W/m 1,6 C 1,7 C 1,6 km/h (1 Bft) 96,00 %
28.01.2018 04:20 1,7 C 3,9 C 99 % 1034,1 hPa 0,0 l/m 0,6 km/h (0 Bft) S 171 0 min 0,000 mm 0,0 UV-I 0 W/m 1,6 C 1,7 C 1,6 km/h (1 Bft) 94,74 %
28.01.2018 04:22 1,7 C 3,9 C 99 % 1034,1 hPa 0,0 l/m 2,3 km/h (1 Bft) S 171 0 min 0,000 mm 0,0 UV-I 0 W/m 1,6 C 1,7 C 3,2 km/h (1 Bft) 96,00 %
28.01.2018 04:24 1,7 C 3,9 C 99 % 1034,2 hPa 0,0 l/m 1,4 km/h (1 Bft) S 171 0 min 0,000 mm 0,0 UV-I 0 W/m 1,6 C 1,7 C 3,2 km/h (1 Bft) 96,00 %
28.01.2018 04:26 1,7 C 3,9 C 99 % 1034,2 hPa 0,0 l/m 0,8 km/h (0 Bft) S 171 0 min 0,000 mm 0,0 UV-I 0 W/m 1,6 C 1,7 C 1,6 km/h (1 Bft) 92,00 %
28.01.2018 04:28 1,7 C 3,9 C 99 % 1034,2 hPa 0,0 l/m 0,0 km/h (0 Bft) S 171 0 min 0,000 mm 0,0 UV-I 0 W/m 1,6 C 1,7 C 1,6 km/h (1 Bft) 97,56 %
28.01.2018 04:30 1,7 C 3,9 C 99 % 1034,2 hPa 0,0 l/m 1,0 km/h (0 Bft) S 171 0 min 0,000 mm 0,0 UV-I 0 W/m 1,6 C 1,7 C 3,2 km/h (1 Bft) 94,00 %
28.01.2018 04:32 1,7 C 3,9 C 99 % 1034,2 hPa 0,0 l/m 1,3 km/h (1 Bft) S 172 0 min 0,000 mm 0,0 UV-I 0 W/m 1,6 C 1,7 C 4,8 km/h (1 Bft) 96,00 %
28.01.2018 04:34 1,7 C 3,9 C 99 % 1034,1 hPa 0,0 l/m 1,9 km/h (1 Bft) S 175 0 min 0,000 mm 0,0 UV-I 0 W/m 1,6 C 1,7 C 4,8 km/h (1 Bft) 95,12 %
28.01.2018 04:36 1,7 C 3,9 C 99 % 1034,1 hPa 0,0 l/m 3,1 km/h (1 Bft) S 175 0 min 0,000 mm 0,0 UV-I 0 W/m 1,6 C 1,7 C 6,4 km/h (2 Bft) 94,00 %
28.01.2018 04:38 1,7 C 3,9 C 99 % 1034,0 hPa 0,0 l/m 1,3 km/h (1 Bft) S 179 0 min 0,000 mm 0,0 UV-I 0 W/m 1,6 C 1,7 C 3,2 km/h (1 Bft) 97,62 %
28.01.2018 04:40 1,7 C 3,9 C 99 % 1034,0 hPa 0,0 l/m 1,0 km/h (0 Bft) S 184 0 min 0,000 mm 0,0 UV-I 0 W/m 1,6 C 1,7 C 3,2 km/h (1 Bft) 95,92 %
28.01.2018 04:42 1,7 C 3,9 C 99 % 1034,0 hPa 0,0 l/m 3,0 km/h (1 Bft) S-SW 202 0 min 0,000 mm 0,0 UV-I 0 W/m 1,6 C 1,7 C 4,8 km/h (1 Bft) 94,34 %
28.01.2018 04:44 1,7 C 3,9 C 99 % 1034,0 hPa 0,0 l/m 4,3 km/h (1 Bft) S-SW 211 0 min 0,000 mm 0,0 UV-I 0 W/m 1,6 C 1,7 C 8,0 km/h (2 Bft) 94,87 %
28.01.2018 04:46 1,7 C 3,9 C 99 % 1033,9 hPa 0,0 l/m 5,2 km/h (1 Bft) S-SW 210 0 min 0,000 mm 0,0 UV-I 0 W/m 1,6 C 1,7 C 6,4 km/h (2 Bft) 93,62 %
28.01.2018 04:48 1,7 C 3,9 C 99 % 1033,9 hPa 0,0 l/m 3,8 km/h (1 Bft) S-SW 210 0 min 0,000 mm 0,0 UV-I 0 W/m 1,6 C 1,7 C 8,0 km/h (2 Bft) 94,34 %
28.01.2018 04:50 1,7 C 3,9 C 99 % 1033,9 hPa 0,0 l/m 4,1 km/h (1 Bft) S-SW 209 0 min 0,000 mm 0,0 UV-I 0 W/m 1,6 C 1,7 C 6,4 km/h (2 Bft) 98,00 %
28.01.2018 04:52 1,7 C 3,9 C 99 % 1033,8 hPa 0,0 l/m 4,0 km/h (1 Bft) S-SW 195 0 min 0,000 mm 0,0 UV-I 0 W/m 1,6 C 1,7 C 6,4 km/h (2 Bft) 97,56 %
28.01.2018 04:54 1,7 C 3,9 C 99 % 1033,8 hPa 0,0 l/m 4,5 km/h (1 Bft) S-SW 198 0 min 0,000 mm 0,0 UV-I 0 W/m 1,6 C 1,7 C 6,4 km/h (2 Bft) 97,37 %
28.01.2018 04:56 1,7 C 3,9 C 99 % 1033,8 hPa 0,0 l/m 4,0 km/h (1 Bft) SW 220 0 min 0,000 mm 0,0 UV-I 0 W/m 1,6 C 1,7 C 8,0 km/h (2 Bft) 96,43 %
28.01.2018 04:58 1,7 C 3,9 C 99 % 1033,8 hPa 0,0 l/m 2,8 km/h (1 Bft) S-SW 193 0 min 0,000 mm 0,0 UV-I 0 W/m 1,6 C 1,7 C 6,4 km/h (2 Bft) 97,87 %
28.01.2018 05:00 1,7 C 3,9 C 99 % 1033,8 hPa 0,0 l/m 5,1 km/h (1 Bft) S 184 0 min 0,000 mm 0,0 UV-I 0 W/m 1,6 C 1,7 C 8,0 km/h (2 Bft) 97,87 %
28.01.2018 05:02 1,7 C 3,9 C 99 % 1033,8 hPa 0,0 l/m 4,5 km/h (1 Bft) S 177 0 min 0,000 mm 0,0 UV-I 0 W/m 1,6 C 1,7 C 6,4 km/h (2 Bft) 97,56 %
28.01.2018 05:04 1,7 C 3,9 C 99 % 1033,8 hPa 0,0 l/m 4,3 km/h (1 Bft) S-SW 202 0 min 0,000 mm 0,0 UV-I 0 W/m 1,6 C 1,7 C 8,0 km/h (2 Bft) 96,00 %
28.01.2018 05:06 1,7 C 3,9 C 99 % 1033,7 hPa 0,0 l/m 2,9 km/h (1 Bft) S-SW 213 0 min 0,000 mm 0,0 UV-I 0 W/m 1,6 C 1,7 C 8,0 km/h (2 Bft) 100,00 %
28.01.2018 05:08 1,7 C 3,9 C 99 % 1033,7 hPa 0,0 l/m 4,5 km/h (1 Bft) S 175 0 min 0,000 mm 0,0 UV-I 0 W/m 1,6 C 1,7 C 9,7 km/h (2 Bft) 97,56 %
28.01.2018 05:10 1,7 C 3,9 C 99 % 1033,7 hPa 0,0 l/m 4,8 km/h (1 Bft) S-SW 201 0 min 0,000 mm 0,0 UV-I 0 W/m 1,6 C 1,7 C 8,0 km/h (2 Bft) 100,00 %
28.01.2018 05:12 1,7 C 3,9 C 99 % 1033,7 hPa 0,0 l/m 4,4 km/h (1 Bft) S 175 0 min 0,000 mm 0,0 UV-I 0 W/m 1,6 C 1,7 C 8,0 km/h (2 Bft) 100,00 %
28.01.2018 05:14 1,7 C 3,9 C 99 % 1033,8 hPa 0,0 l/m 3,4 km/h (1 Bft) SW 219 0 min 0,000 mm 0,0 UV-I 0 W/m 1,6 C 1,7 C 6,4 km/h (2 Bft) 97,37 %
28.01.2018 05:16 1,7 C 3,9 C 99 % 1033,8 hPa 0,0 l/m 4,1 km/h (1 Bft) S-SW 204 0 min 0,000 mm 0,0 UV-I 0 W/m 1,6 C 1,7 C 6,4 km/h (2 Bft) 100,00 %
28.01.2018 05:18 1,8 C 3,9 C 99 % 1033,7 hPa 0,0 l/m 4,6 km/h (1 Bft) SW 217 0 min 0,000 mm 0,0 UV-I 0 W/m 1,7 C 1,8 C 6,4 km/h (2 Bft) 97,92 %
28.01.2018 05:20 1,8 C 3,9 C 99 % 1033,7 hPa 0,0 l/m 3,1 km/h (1 Bft) SW 216 0 min 0,000 mm 0,0 UV-I 0 W/m 1,7 C 1,8 C 6,4 km/h (2 Bft) 100,00 %
28.01.2018 05:22 1,8 C 3,9 C 99 % 1033,7 hPa 0,0 l/m 2,8 km/h (1 Bft) W-SW 242 0 min 0,000 mm 0,0 UV-I 0 W/m 1,7 C 1,8 C 4,8 km/h (1 Bft) 100,00 %
28.01.2018 05:24 1,8 C 3,9 C 99 % 1033,7 hPa 0,0 l/m 2,7 km/h (1 Bft) W-SW 238 0 min 0,000 mm 0,0 UV-I 0 W/m 1,7 C 1,8 C 4,8 km/h (1 Bft) 100,00 %
28.01.2018 05:26 1,8 C 3,9 C 99 % 1033,7 hPa 0,0 l/m 4,4 km/h (1 Bft) S-SW 207 0 min 0,000 mm 0,0 UV-I 0 W/m 1,7 C 1,8 C 8,0 km/h (2 Bft) 100,00 %
28.01.2018 05:28 1,8 C 3,9 C 99 % 1033,6 hPa 0,0 l/m 4,1 km/h (1 Bft) S-SW 209 0 min 0,000 mm 0,0 UV-I 0 W/m 1,7 C 1,8 C 6,4 km/h (2 Bft) 100,00 %
28.01.2018 05:30 1,8 C 3,9 C 99 % 1033,6 hPa 0,0 l/m 2,5 km/h (1 Bft) S-SW 199 0 min 0,000 mm 0,0 UV-I 0 W/m 1,7 C 1,8 C 4,8 km/h (1 Bft) 100,00 %
28.01.2018 05:32 1,8 C 3,9 C 99 % 1033,6 hPa 0,0 l/m 2,8 km/h (1 Bft) S-SW 200 0 min 0,000 mm 0,0 UV-I 0 W/m 1,7 C 1,8 C 4,8 km/h (1 Bft) 100,00 %
28.01.2018 05:34 1,8 C 3,9 C 99 % 1033,5 hPa 0,0 l/m 3,1 km/h (1 Bft) S 173 0 min 0,000 mm 0,0 UV-I 0 W/m 1,7 C 1,8 C 4,8 km/h (1 Bft) 100,00 %
28.01.2018 05:36 1,9 C 3,9 C 99 % 1033,5 hPa 0,0 l/m 5,5 km/h (1 Bft) S 186 0 min 0,000 mm 0,0 UV-I 0 W/m 1,8 C 1,9 C 8,0 km/h (2 Bft) 100,00 %
28.01.2018 05:38 1,9 C 3,9 C 99 % 1033,4 hPa 0,0 l/m 4,1 km/h (1 Bft) S-SW 205 0 min 0,000 mm 0,0 UV-I 0 W/m 1,8 C 1,9 C 9,7 km/h (2 Bft) 98,00 %
28.01.2018 05:40 2,0 C 3,9 C 99 % 1033,5 hPa 0,0 l/m 4,3 km/h (1 Bft) W-SW 237 0 min 0,000 mm 0,0 UV-I 0 W/m 1,9 C 2,0 C 8,0 km/h (2 Bft) 100,00 %
28.01.2018 05:42 2,1 C 3,9 C 99 % 1033,4 hPa 0,0 l/m 5,0 km/h (1 Bft) S-SW 204 0 min 0,000 mm 0,0 UV-I 0 W/m 2,0 C 2,1 C 8,0 km/h (2 Bft) 100,00 %
28.01.2018 05:44 2,2 C 3,9 C 99 % 1033,4 hPa 0,0 l/m 7,2 km/h (2 Bft) S-SW 211 0 min 0,000 mm 0,0 UV-I 0 W/m 2,1 C 1,4 C 9,7 km/h (2 Bft) 98,11 %
28.01.2018 05:46 2,2 C 3,9 C 99 % 1033,5 hPa 0,0 l/m 6,0 km/h (2 Bft) SW 214 0 min 0,000 mm 0,0 UV-I 0 W/m 2,1 C 2,2 C 9,7 km/h (2 Bft) 100,00 %
28.01.2018 05:48 2,3 C 3,9 C 99 % 1033,5 hPa 0,0 l/m 6,0 km/h (2 Bft) W-SW 238 0 min 0,000 mm 0,0 UV-I 0 W/m 2,2 C 2,3 C 9,7 km/h (2 Bft) 97,87 %
28.01.2018 05:50 2,3 C 3,9 C 99 % 1033,5 hPa 0,0 l/m 8,5 km/h (2 Bft) SW 221 0 min 0,000 mm 0,0 UV-I 0 W/m 2,2 C 0,3 C 11,3 km/h (2 Bft) 100,00 %
28.01.2018 05:52 2,3 C 3,9 C 99 % 1033,4 hPa 0,0 l/m 7,3 km/h (2 Bft) SW 231 0 min 0,000 mm 0,0 UV-I 0 W/m 2,2 C 1,4 C 12,9 km/h (3 Bft) 100,00 %
28.01.2018 05:54 2,3 C 3,9 C 99 % 1033,5 hPa 0,0 l/m 6,5 km/h (2 Bft) W-SW 244 0 min 0,000 mm 0,0 UV-I 0 W/m 2,2 C 2,2 C 11,3 km/h (2 Bft) 100,00 %
28.01.2018 05:56 2,4 C 3,9 C 99 % 1033,5 hPa 0,0 l/m 8,9 km/h (2 Bft) SW 217 0 min 0,000 mm 0,0 UV-I 0 W/m 2,3 C 0,1 C 12,9 km/h (3 Bft) 100,00 %
28.01.2018 05:58 2,4 C 3,9 C 99 % 1033,5 hPa 0,0 l/m 9,2 km/h (2 Bft) W-SW 239 0 min 0,000 mm 0,0 UV-I 0 W/m 2,3 C -0,2 C 12,9 km/h (3 Bft) 97,62 %
28.01.2018 06:00 2,4 C 3,9 C 99 % 1033,5 hPa 0,0 l/m 9,4 km/h (2 Bft) SW 220 0 min 0,000 mm 0,0 UV-I 0 W/m 2,3 C -0,3 C 14,5 km/h (3 Bft) 100,00 %
28.01.2018 06:02 2,5 C 3,9 C 99 % 1033,5 hPa 0,0 l/m 10,8 km/h (2 Bft) S-SW 205 0 min 0,000 mm 0,0 UV-I 0 W/m 2,4 C -1,3 C 16,1 km/h (3 Bft) 100,00 %
28.01.2018 06:04 2,6 C 3,9 C 99 % 1033,5 hPa 0,0 l/m 8,4 km/h (2 Bft) W-SW 254 0 min 0,000 mm 0,0 UV-I 0 W/m 2,5 C 0,7 C 11,3 km/h (2 Bft) 100,00 %
28.01.2018 06:06 2,6 C 3,9 C 99 % 1033,5 hPa 0,0 l/m 5,9 km/h (2 Bft) W-SW 244 0 min 0,000 mm 0,0 UV-I 0 W/m 2,5 C 2,6 C 9,7 km/h (2 Bft) 100,00 %
28.01.2018 06:08 2,6 C 3,9 C 99 % 1033,5 hPa 0,0 l/m 6,9 km/h (2 Bft) SW 229 0 min 0,000 mm 0,0 UV-I 0 W/m 2,5 C 2,1 C 11,3 km/h (2 Bft) 97,56 %
28.01.2018 06:10 2,6 C 3,9 C 99 % 1033,5 hPa 0,0 l/m 4,8 km/h (1 Bft) SW 229 0 min 0,000 mm 0,0 UV-I 0 W/m 2,5 C 2,6 C 6,4 km/h (2 Bft) 100,00 %
28.01.2018 06:12 2,6 C 3,9 C 99 % 1033,5 hPa 0,0 l/m 4,9 km/h (1 Bft) S-SW 205 0 min 0,000 mm 0,0 UV-I 0 W/m 2,5 C 2,6 C 8,0 km/h (2 Bft) 98,00 %
28.01.2018 06:14 2,7 C 3,9 C 99 % 1033,6 hPa 0,0 l/m 4,7 km/h (1 Bft) SW 229 0 min 0,000 mm 0,0 UV-I 0 W/m 2,6 C 2,7 C 8,0 km/h (2 Bft) 100,00 %
28.01.2018 06:16 2,7 C 3,9 C 99 % 1033,6 hPa 0,0 l/m 5,6 km/h (1 Bft) SW 217 0 min 0,000 mm 0,0 UV-I 0 W/m 2,6 C 2,7 C 8,0 km/h (2 Bft) 100,00 %
28.01.2018 06:18 2,7 C 3,9 C 99 % 1033,7 hPa 0,0 l/m 4,9 km/h (1 Bft) SW 229 0 min 0,000 mm 0,0 UV-I 0 W/m 2,6 C 2,7 C 8,0 km/h (2 Bft) 100,00 %
28.01.2018 06:20 2,8 C 3,9 C 99 % 1033,6 hPa 0,0 l/m 4,1 km/h (1 Bft) SW 230 0 min 0,000 mm 0,0 UV-I 0 W/m 2,7 C 2,8 C 6,4 km/h (2 Bft) 100,00 %
28.01.2018 06:22 2,8 C 3,9 C 99 % 1033,5 hPa 0,0 l/m 4,0 km/h (1 Bft) S-SW 212 0 min 0,000 mm 0,0 UV-I 0 W/m 2,7 C 2,8 C 6,4 km/h (2 Bft) 100,00 %
28.01.2018 06:24 2,8 C 3,9 C 99 % 1033,6 hPa 0,0 l/m 4,8 km/h (1 Bft) SW 220 0 min 0,000 mm 0,0 UV-I 0 W/m 2,7 C 2,8 C 8,0 km/h (2 Bft) 98,00 %
28.01.2018 06:26 2,9 C 3,9 C 99 % 1033,6 hPa 0,0 l/m 4,7 km/h (1 Bft) S-SW 211 0 min 0,000 mm 0,0 UV-I 0 W/m 2,8 C 2,9 C 9,7 km/h (2 Bft) 97,37 %
28.01.2018 06:28 2,9 C 3,9 C 99 % 1033,5 hPa 0,0 l/m 5,6 km/h (1 Bft) SW 223 0 min 0,000 mm 0,0 UV-I 0 W/m 2,8 C 2,9 C 8,0 km/h (2 Bft) 96,43 %
28.01.2018 06:30 2,9 C 3,9 C 99 % 1033,4 hPa 0,0 l/m 5,1 km/h (1 Bft) S-SW 195 0 min 0,000 mm 0,0 UV-I 0 W/m 2,8 C 2,9 C 8,0 km/h (2 Bft) 94,00 %
28.01.2018 06:32 3,0 C 3,9 C 99 % 1033,5 hPa 0,0 l/m 6,6 km/h (2 Bft) SW 229 0 min 0,000 mm 0,0 UV-I 0 W/m 2,9 C 2,8 C 12,9 km/h (3 Bft) 97,87 %
28.01.2018 06:34 3,1 C 3,9 C 99 % 1033,5 hPa 0,0 l/m 8,8 km/h (2 Bft) SW 234 0 min 0,000 mm 0,0 UV-I 0 W/m 3,0 C 0,9 C 12,9 km/h (3 Bft) 97,87 %
28.01.2018 06:36 3,2 C 3,9 C 99 % 1033,5 hPa 0,0 l/m 8,1 km/h (2 Bft) W-SW 246 0 min 0,000 mm 0,0 UV-I 0 W/m 3,1 C 1,6 C 11,3 km/h (2 Bft) 97,44 %
28.01.2018 06:38 3,3 C 3,9 C 99 % 1033,5 hPa 0,0 l/m 8,7 km/h (2 Bft) SW 228 0 min 0,000 mm 0,0 UV-I 0 W/m 3,2 C 1,2 C 14,5 km/h (3 Bft) 98,00 %
28.01.2018 06:40 3,4 C 3,9 C 99 % 1033,5 hPa 0,0 l/m 11,3 km/h (2 Bft) W-SW 241 0 min 0,000 mm 0,0 UV-I 0 W/m 3,3 C -0,6 C 19,3 km/h (3 Bft) 97,96 %
28.01.2018 06:42 3,5 C 3,9 C 99 % 1033,6 hPa 0,0 l/m 10,1 km/h (2 Bft) W-SW 243 0 min 0,000 mm 0,0 UV-I 0 W/m 3,4 C 0,3 C 16,1 km/h (3 Bft) 98,00 %
28.01.2018 06:44 3,6 C 3,9 C 99 % 1033,6 hPa 0,0 l/m 11,9 km/h (2 Bft) SW 217 0 min 0,000 mm 0,0 UV-I 0 W/m 3,5 C -0,8 C 16,1 km/h (3 Bft) 97,62 %
28.01.2018 06:46 3,7 C 3,9 C 99 % 1033,6 hPa 0,0 l/m 13,2 km/h (3 Bft) SW 232 0 min 0,000 mm 0,0 UV-I 0 W/m 3,6 C -1,5 C 19,3 km/h (3 Bft) 97,37 %
28.01.2018 06:48 3,8 C 3,9 C 99 % 1033,5 hPa 0,0 l/m 15,4 km/h (3 Bft) SW 231 0 min 0,000 mm 0,0 UV-I 0 W/m 3,7 C -2,6 C 25,7 km/h (4 Bft) 94,34 %
28.01.2018 06:50 3,9 C 3,9 C 98 % 1033,5 hPa 0,0 l/m 15,5 km/h (3 Bft) SW 217 0 min 0,000 mm 0,0 UV-I 0 W/m 3,6 C -2,5 C 27,4 km/h (4 Bft) 96,23 %
28.01.2018 06:52 4,2 C 3,9 C 99 % 1033,5 hPa 0,0 l/m 16,3 km/h (3 Bft) W-SW 239 0 min 0,000 mm 0,0 UV-I 0 W/m 4,1 C -2,6 C 20,9 km/h (4 Bft) 97,37 %
28.01.2018 06:54 4,3 C 3,9 C 99 % 1033,5 hPa 0,0 l/m 15,4 km/h (3 Bft) W-SW 246 0 min 0,000 mm 0,0 UV-I 0 W/m 4,2 C -2,0 C 20,9 km/h (4 Bft) 95,74 %
28.01.2018 06:56 4,4 C 3,9 C 98 % 1033,5 hPa 0,0 l/m 15,8 km/h (3 Bft) W-SW 244 0 min 0,000 mm 0,0 UV-I 0 W/m 4,1 C -2,1 C 20,9 km/h (4 Bft) 97,87 %
28.01.2018 06:58 4,6 C 3,9 C 98 % 1033,5 hPa 0,0 l/m 15,1 km/h (3 Bft) W-SW 245 0 min 0,000 mm 0,0 UV-I 0 W/m 4,3 C -1,5 C 20,9 km/h (4 Bft) 97,14 %
28.01.2018 07:00 4,7 C 3,9 C 98 % 1033,5 hPa 0,0 l/m 13,6 km/h (3 Bft) SW 216 0 min 0,000 mm 0,0 UV-I 0 W/m 4,4 C -0,5 C 19,3 km/h (3 Bft) 98,21 %
28.01.2018 07:02 4,7 C 3,9 C 98 % 1033,5 hPa 0,0 l/m 14,6 km/h (3 Bft) SW 219 0 min 0,000 mm 0,0 UV-I 0 W/m 4,4 C -1,1 C 19,3 km/h (3 Bft) 98,00 %
28.01.2018 07:04 4,7 C 3,9 C 97 % 1033,6 hPa 0,0 l/m 14,7 km/h (3 Bft) W-SW 256 0 min 0,000 mm 0,0 UV-I 0 W/m 4,3 C -1,1 C 19,3 km/h (3 Bft) 98,11 %
28.01.2018 07:06 4,7 C 3,9 C 96 % 1033,5 hPa 0,0 l/m 14,7 km/h (3 Bft) W-SW 239 0 min 0,000 mm 0,0 UV-I 0 W/m 4,1 C -1,1 C 22,5 km/h (4 Bft) 100,00 %
28.01.2018 07:08 4,7 C 3,9 C 96 % 1033,5 hPa 0,0 l/m 14,7 km/h (3 Bft) SW 225 0 min 0,000 mm 0,0 UV-I 0 W/m 4,1 C -1,1 C 19,3 km/h (3 Bft) 100,00 %
28.01.2018 07:10 4,8 C 3,9 C 96 % 1033,6 hPa 0,0 l/m 13,4 km/h (3 Bft) W-SW 252 0 min 0,000 mm 0,0 UV-I 0 W/m 4,2 C -0,3 C 19,3 km/h (3 Bft) 100,00 %
28.01.2018 07:12 4,8 C 3,9 C 95 % 1033,6 hPa 0,0 l/m 12,2 km/h (2 Bft) S-SW 192 0 min 0,000 mm 0,0 UV-I 0 W/m 4,1 C 0,4 C 19,3 km/h (3 Bft) 97,87 %
28.01.2018 07:14 4,8 C 3,9 C 94 % 1033,7 hPa 0,0 l/m 13,2 km/h (3 Bft) W-SW 254 0 min 0,000 mm 0,0 UV-I 0 W/m 3,9 C -0,2 C 19,3 km/h (3 Bft) 100,00 %
28.01.2018 07:16 4,8 C 3,9 C 94 % 1033,6 hPa 0,0 l/m 13,6 km/h (3 Bft) W-SW 240 0 min 0,000 mm 0,0 UV-I 0 W/m 3,9 C -0,4 C 19,3 km/h (3 Bft) 98,18 %
28.01.2018 07:18 4,8 C 3,9 C 93 % 1033,6 hPa 0,0 l/m 12,6 km/h (3 Bft) SW 234 0 min 0,000 mm 0,0 UV-I 0 W/m 3,8 C 0,2 C 17,7 km/h (3 Bft) 95,83 %
28.01.2018 07:20 4,8 C 3,9 C 92 % 1033,5 hPa 0,0 l/m 11,8 km/h (2 Bft) SW 214 0 min 0,000 mm 0,0 UV-I 2 W/m 3,6 C 0,7 C 16,1 km/h (3 Bft) 100,00 %
28.01.2018 07:22 4,8 C 3,9 C 92 % 1033,7 hPa 0,0 l/m 12,4 km/h (3 Bft) SW 231 0 min 0,000 mm 0,0 UV-I 5 W/m 3,6 C 0,3 C 17,7 km/h (3 Bft) 94,12 %
28.01.2018 07:24 4,9 C 3,9 C 91 % 1033,6 hPa 0,0 l/m 11,3 km/h (2 Bft) SW 223 0 min 0,000 mm 0,0 UV-I 5 W/m 3,6 C 1,1 C 17,7 km/h (3 Bft) 100,00 %
28.01.2018 07:26 4,9 C 3,9 C 91 % 1033,6 hPa 0,0 l/m 9,9 km/h (2 Bft) W 268 0 min 0,000 mm 0,0 UV-I 5 W/m 3,6 C 2,0 C 16,1 km/h (3 Bft) 97,87 %
28.01.2018 07:28 4,9 C 3,9 C 90 % 1033,6 hPa 0,0 l/m 12,2 km/h (2 Bft) SW 223 0 min 0,000 mm 0,0 UV-I 5 W/m 3,4 C 0,5 C 16,1 km/h (3 Bft) 100,00 %
28.01.2018 07:30 4,9 C 3,9 C 90 % 1033,7 hPa 0,0 l/m 9,5 km/h (2 Bft) SW 221 0 min 0,000 mm 0,0 UV-I 5 W/m 3,4 C 2,3 C 14,5 km/h (3 Bft) 100,00 %
28.01.2018 07:32 4,8 C 3,9 C 89 % 1033,7 hPa 0,0 l/m 7,7 km/h (2 Bft) S-SW 211 0 min 0,000 mm 0,0 UV-I 5 W/m 3,1 C 3,6 C 12,9 km/h (3 Bft) 100,00 %
28.01.2018 07:34 4,8 C 3,9 C 89 % 1033,7 hPa 0,0 l/m 8,4 km/h (2 Bft) W 259 0 min 0,000 mm 0,0 UV-I 5 W/m 3,1 C 3,1 C 11,3 km/h (2 Bft) 100,00 %
28.01.2018 07:36 4,8 C 3,9 C 90 % 1033,7 hPa 0,2 l/m 8,3 km/h (2 Bft) W 270 0 min 0,000 mm 0,0 UV-I 5 W/m 3,3 C 3,1 C 12,9 km/h (3 Bft) 100,00 %
28.01.2018 07:38 4,7 C 3,9 C 90 % 1033,7 hPa 0,0 l/m 9,0 km/h (2 Bft) SW 235 0 min 0,000 mm 0,0 UV-I 5 W/m 3,2 C 2,5 C 14,5 km/h (3 Bft) 100,00 %
28.01.2018 07:40 4,7 C 3,9 C 90 % 1033,7 hPa 0,0 l/m 10,1 km/h (2 Bft) W-SW 251 0 min 0,000 mm 0,0 UV-I 7 W/m 3,2 C 1,7 C 17,7 km/h (3 Bft) 100,00 %
28.01.2018 07:42 4,8 C 3,9 C 89 % 1033,7 hPa 0,0 l/m 9,9 km/h (2 Bft) W-SW 257 0 min 0,000 mm 0,0 UV-I 7 W/m 3,1 C 1,9 C 14,5 km/h (3 Bft) 100,00 %
28.01.2018 07:44 4,9 C 3,9 C 88 % 1033,8 hPa 0,0 l/m 11,8 km/h (2 Bft) W-SW 248 0 min 0,000 mm 0,0 UV-I 8 W/m 3,1 C 0,8 C 19,3 km/h (3 Bft) 100,00 %
28.01.2018 07:46 5,0 C 3,9 C 88 % 1033,8 hPa 0,0 l/m 12,0 km/h (2 Bft) W-SW 247 0 min 0,000 mm 0,0 UV-I 10 W/m 3,2 C 0,8 C 19,3 km/h (3 Bft) 100,00 %
28.01.2018 07:48 5,1 C 3,9 C 88 % 1033,9 hPa 0,0 l/m 10,0 km/h (2 Bft) W-SW 241 0 min 0,000 mm 0,0 UV-I 11 W/m 3,3 C 2,2 C 19,3 km/h (3 Bft) 100,00 %
28.01.2018 07:50 5,2 C 3,9 C 87 % 1033,9 hPa 0,0 l/m 10,3 km/h (2 Bft) W 262 2 min 0,000 mm 0,0 UV-I 12 W/m 3,2 C 2,1 C 14,5 km/h (3 Bft) 100,00 %
28.01.2018 07:52 5,2 C 3,9 C 87 % 1034,0 hPa 0,0 l/m 7,5 km/h (2 Bft) SW 218 2 min 0,000 mm 0,0 UV-I 14 W/m 3,2 C 4,2 C 9,7 km/h (2 Bft) 97,56 %
28.01.2018 07:54 5,2 C 3,9 C 86 % 1034,0 hPa 0,0 l/m 7,8 km/h (2 Bft) W-SW 240 0 min 0,000 mm 0,0 UV-I 14 W/m 3,1 C 4,0 C 16,1 km/h (3 Bft) 100,00 %
28.01.2018 07:56 5,2 C 3,9 C 86 % 1034,0 hPa 0,0 l/m 7,0 km/h (2 Bft) W-SW 254 0 min 0,000 mm 0,0 UV-I 17 W/m 3,1 C 4,7 C 12,9 km/h (3 Bft) 100,00 %
28.01.2018 07:58 5,2 C 3,9 C 86 % 1033,9 hPa 0,0 l/m 7,3 km/h (2 Bft) W-SW 242 0 min 0,000 mm 0,0 UV-I 18 W/m 3,1 C 4,4 C 14,5 km/h (3 Bft) 97,92 %
28.01.2018 08:00 5,2 C 3,9 C 86 % 1034,0 hPa 0,0 l/m 7,8 km/h (2 Bft) SW 223 0 min 0,000 mm 0,0 UV-I 19 W/m 3,1 C 4,0 C 11,3 km/h (2 Bft) 100,00 %
28.01.2018 08:02 5,1 C 3,9 C 86 % 1034,0 hPa 0,0 l/m 7,7 km/h (2 Bft) S-SW 197 0 min 0,000 mm 0,0 UV-I 21 W/m 3,0 C 4,0 C 12,9 km/h (3 Bft) 98,31 %
28.01.2018 08:04 5,0 C 3,9 C 86 % 1034,0 hPa 0,0 l/m 6,5 km/h (2 Bft) SW 227 0 min 0,000 mm 0,0 UV-I 23 W/m 2,9 C 4,9 C 11,3 km/h (2 Bft) 100,00 %
28.01.2018 08:06 4,9 C 3,9 C 87 % 1034,1 hPa 0,0 l/m 7,6 km/h (2 Bft) SW 234 0 min 0,000 mm 0,0 UV-I 25 W/m 2,9 C 3,8 C 11,3 km/h (2 Bft) 100,00 %
28.01.2018 08:08 4,9 C 3,9 C 87 % 1034,1 hPa 0,0 l/m 6,5 km/h (2 Bft) W 259 0 min 0,000 mm 0,0 UV-I 29 W/m 2,9 C 4,8 C 9,7 km/h (2 Bft) 100,00 %
28.01.2018 08:10 4,9 C 3,9 C 87 % 1034,2 hPa 0,0 l/m 5,5 km/h (1 Bft) W-SW 252 0 min 0,000 mm 0,0 UV-I 31 W/m 2,9 C 4,9 C 8,0 km/h (2 Bft) 100,00 %
28.01.2018 08:12 4,9 C 3,9 C 87 % 1034,2 hPa 0,0 l/m 8,0 km/h (2 Bft) W-SW 249 0 min 0,000 mm 0,0 UV-I 34 W/m 2,9 C 3,5 C 11,3 km/h (2 Bft) 98,00 %
28.01.2018 08:14 4,9 C 3,9 C 87 % 1034,2 hPa 0,0 l/m 8,9 km/h (2 Bft) W 261 0 min 0,000 mm 0,0 UV-I 36 W/m 2,9 C 2,8 C 16,1 km/h (3 Bft) 100,00 %
28.01.2018 08:16 4,9 C 3,9 C 87 % 1034,1 hPa 0,0 l/m 8,0 km/h (2 Bft) W 269 0 min 0,000 mm 0,0 UV-I 39 W/m 2,9 C 3,5 C 12,9 km/h (3 Bft) 100,00 %
28.01.2018 08:18 5,0 C 3,9 C 87 % 1034,1 hPa 0,0 l/m 8,0 km/h (2 Bft) W 261 0 min 0,000 mm 0,0 UV-I 41 W/m 3,0 C 3,6 C 11,3 km/h (2 Bft) 100,00 %
28.01.2018 08:20 5,0 C 3,9 C 87 % 1034,0 hPa 0,0 l/m 11,5 km/h (2 Bft) W-SW 245 0 min 0,000 mm 0,0 UV-I 43 W/m 3,0 C 1,1 C 19,3 km/h (3 Bft) 100,00 %
28.01.2018 08:22 5,1 C 3,9 C 87 % 1034,0 hPa 0,0 l/m 11,7 km/h (2 Bft) W-SW 244 0 min 0,000 mm 0,0 UV-I 45 W/m 3,1 C 1,1 C 19,3 km/h (3 Bft) 100,00 %
28.01.2018 08:24 5,2 C 3,9 C 86 % 1034,1 hPa 0,0 l/m 14,3 km/h (3 Bft) W 259 0 min 0,000 mm 0,0 UV-I 46 W/m 3,1 C -0,3 C 20,9 km/h (4 Bft) 96,23 %
28.01.2018 08:26 5,3 C 3,9 C 86 % 1034,0 hPa 0,0 l/m 16,5 km/h (3 Bft) W-SW 252 0 min 0,000 mm 0,0 UV-I 47 W/m 3,2 C -1,3 C 22,5 km/h (4 Bft) 98,00 %
28.01.2018 08:28 5,3 C 3,9 C 86 % 1034,1 hPa 0,0 l/m 16,1 km/h (3 Bft) W-SW 252 0 min 0,000 mm 0,0 UV-I 49 W/m 3,2 C -1,1 C 20,9 km/h (4 Bft) 97,37 %
28.01.2018 08:30 5,3 C 3,9 C 86 % 1034,2 hPa 0,0 l/m 14,7 km/h (3 Bft) W 266 0 min 0,000 mm 0,0 UV-I 53 W/m 3,2 C -0,4 C 20,9 km/h (4 Bft) 96,00 %
28.01.2018 08:32 5,3 C 3,9 C 86 % 1034,3 hPa 0,0 l/m 16,3 km/h (3 Bft) W-SW 257 0 min 0,000 mm 0,0 UV-I 54 W/m 3,2 C -1,2 C 22,5 km/h (4 Bft) 94,87 %
28.01.2018 08:34 5,3 C 3,9 C 86 % 1034,3 hPa 0,0 l/m 16,2 km/h (3 Bft) W-SW 252 0 min 0,000 mm 0,0 UV-I 56 W/m 3,2 C -1,1 C 22,5 km/h (4 Bft) 94,64 %
28.01.2018 08:36 5,3 C 3,9 C 86 % 1034,3 hPa 0,0 l/m 14,7 km/h (3 Bft) W-SW 245 0 min 0,000 mm 0,0 UV-I 56 W/m 3,2 C -0,4 C 20,9 km/h (4 Bft) 98,00 %
28.01.2018 08:38 5,4 C 3,9 C 86 % 1034,3 hPa 0,0 l/m 13,4 km/h (3 Bft) W 261 0 min 0,000 mm 0,0 UV-I 57 W/m 3,3 C 0,4 C 19,3 km/h (3 Bft) 92,11 %
28.01.2018 08:40 5,3 C 3,9 C 86 % 1034,3 hPa 0,0 l/m 11,1 km/h (2 Bft) SW 236 0 min 0,000 mm 0,0 UV-I 58 W/m 3,2 C 1,7 C 16,1 km/h (3 Bft) 96,00 %
28.01.2018 08:42 5,3 C 3,9 C 86 % 1034,3 hPa 0,0 l/m 12,6 km/h (3 Bft) W-SW 255 0 min 0,000 mm 0,0 UV-I 60 W/m 3,2 C 0,7 C 16,1 km/h (3 Bft) 95,74 %
28.01.2018 08:44 5,3 C 3,9 C 86 % 1034,3 hPa 0,0 l/m 11,8 km/h (2 Bft) W-SW 243 0 min 0,000 mm 0,0 UV-I 62 W/m 3,2 C 1,2 C 17,7 km/h (3 Bft) 93,62 %
28.01.2018 08:46 5,3 C 3,9 C 86 % 1034,4 hPa 0,0 l/m 10,3 km/h (2 Bft) SW 232 0 min 0,000 mm 0,0 UV-I 64 W/m 3,2 C 2,2 C 14,5 km/h (3 Bft) 92,45 %
28.01.2018 08:48 5,3 C 3,9 C 86 % 1034,4 hPa 0,0 l/m 11,9 km/h (2 Bft) SW 229 0 min 0,000 mm 0,0 UV-I 68 W/m 3,2 C 1,2 C 17,7 km/h (3 Bft) 97,37 %
28.01.2018 08:50 5,3 C 3,9 C 86 % 1034,4 hPa 0,0 l/m 10,2 km/h (2 Bft) W-SW 239 0 min 0,000 mm 0,0 UV-I 69 W/m 3,2 C 2,3 C 19,3 km/h (3 Bft) 94,00 %
28.01.2018 08:52 5,2 C 3,9 C 86 % 1034,4 hPa 0,0 l/m 11,8 km/h (2 Bft) SW 231 0 min 0,000 mm 0,0 UV-I 70 W/m 3,1 C 1,1 C 19,3 km/h (3 Bft) 95,45 %
28.01.2018 08:54 5,2 C 3,9 C 86 % 1034,4 hPa 0,0 l/m 10,6 km/h (2 Bft) W-SW 240 0 min 0,000 mm 0,0 UV-I 70 W/m 3,1 C 1,9 C 14,5 km/h (3 Bft) 96,43 %
28.01.2018 08:56 5,2 C 3,9 C 86 % 1034,4 hPa 0,0 l/m 9,8 km/h (2 Bft) W-SW 244 0 min 0,000 mm 0,0 UV-I 70 W/m 3,1 C 2,4 C 16,1 km/h (3 Bft) 94,29 %
28.01.2018 08:58 5,2 C 3,9 C 86 % 1034,4 hPa 0,0 l/m 10,9 km/h (2 Bft) S-SW 213 0 min 0,000 mm 0,0 UV-I 71 W/m 3,1 C 1,7 C 17,7 km/h (3 Bft) 95,45 %
28.01.2018 09:00 5,2 C 3,9 C 86 % 1034,4 hPa 0,0 l/m 9,3 km/h (2 Bft) W-SW 242 0 min 0,000 mm 0,0 UV-I 72 W/m 3,1 C 2,8 C 12,9 km/h (3 Bft) 95,45 %
28.01.2018 09:02 5,3 C 3,9 C 86 % 1034,4 hPa 0,0 l/m 9,8 km/h (2 Bft) W-SW 240 0 min 0,025 mm 0,0 UV-I 74 W/m 3,2 C 2,5 C 20,9 km/h (4 Bft) 94,64 %
28.01.2018 09:04 5,2 C 3,9 C 86 % 1034,4 hPa 0,0 l/m 9,9 km/h (2 Bft) S-SW 207 0 min 0,000 mm 0,0 UV-I 77 W/m 3,1 C 2,4 C 16,1 km/h (3 Bft) 97,44 %
28.01.2018 09:06 5,2 C 3,9 C 86 % 1034,4 hPa 0,0 l/m 10,7 km/h (2 Bft) SW 221 0 min 0,000 mm 0,0 UV-I 78 W/m 3,1 C 1,8 C 17,7 km/h (3 Bft) 93,10 %
28.01.2018 09:08 5,2 C 3,9 C 86 % 1034,4 hPa 0,0 l/m 10,8 km/h (2 Bft) SW 234 0 min 0,000 mm 0,0 UV-I 80 W/m 3,1 C 1,7 C 16,1 km/h (3 Bft) 95,74 %
28.01.2018 09:10 5,3 C 3,9 C 86 % 1034,3 hPa 0,0 l/m 9,5 km/h (2 Bft) W-SW 243 0 min 0,000 mm 0,0 UV-I 84 W/m 3,2 C 2,8 C 16,1 km/h (3 Bft) 95,24 %
28.01.2018 09:12 5,2 C 3,9 C 87 % 1034,3 hPa 0,0 l/m 8,4 km/h (2 Bft) S-SW 192 0 min 0,000 mm 0,0 UV-I 92 W/m 3,2 C 3,5 C 12,9 km/h (3 Bft) 96,55 %
28.01.2018 09:14 5,2 C 3,9 C 87 % 1034,3 hPa 0,0 l/m 7,7 km/h (2 Bft) S-SW 205 0 min 0,000 mm 0,0 UV-I 102 W/m 3,2 C 4,1 C 11,3 km/h (2 Bft) 94,37 %
28.01.2018 09:16 5,3 C 3,9 C 87 % 1034,3 hPa 0,0 l/m 7,8 km/h (2 Bft) SW 225 0 min 0,000 mm 0,0 UV-I 106 W/m 3,3 C 4,1 C 11,3 km/h (2 Bft) 96,00 %
28.01.2018 09:18 5,3 C 3,9 C 86 % 1034,2 hPa 0,0 l/m 6,4 km/h (2 Bft) W-SW 244 0 min 0,000 mm 0,0 UV-I 119 W/m 3,2 C 5,3 C 14,5 km/h (3 Bft) 93,62 %
28.01.2018 09:20 5,3 C 3,9 C 86 % 1034,1 hPa 0,0 l/m 7,4 km/h (2 Bft) S-SW 192 2 min 0,000 mm 0,0 UV-I 128 W/m 3,2 C 4,4 C 12,9 km/h (3 Bft) 97,56 %
28.01.2018 09:22 5,4 C 3,9 C 86 % 1034,1 hPa 0,0 l/m 7,1 km/h (2 Bft) SW 232 2 min 0,000 mm 0,0 UV-I 155 W/m 3,3 C 4,8 C 12,9 km/h (3 Bft) 97,56 %
28.01.2018 09:24 5,4 C 3,9 C 86 % 1034,1 hPa 0,0 l/m 10,1 km/h (2 Bft) W-SW 242 2 min 0,000 mm 0,0 UV-I 167 W/m 3,3 C 2,4 C 17,7 km/h (3 Bft) 96,00 %
28.01.2018 09:26 5,6 C 3,9 C 86 % 1034,1 hPa 0,0 l/m 10,9 km/h (2 Bft) W-SW 251 2 min 0,000 mm 0,0 UV-I 167 W/m 3,4 C 2,1 C 16,1 km/h (3 Bft) 98,00 %
28.01.2018 09:28 5,6 C 3,9 C 86 % 1034,3 hPa 0,0 l/m 11,1 km/h (2 Bft) W-SW 254 2 min 0,000 mm 0,0 UV-I 165 W/m 3,4 C 2,0 C 16,1 km/h (3 Bft) 93,62 %
28.01.2018 09:30 5,7 C 3,9 C 86 % 1034,3 hPa 0,0 l/m 12,0 km/h (2 Bft) SW 215 2 min 0,000 mm 0,0 UV-I 149 W/m 3,5 C 1,6 C 19,3 km/h (3 Bft) 97,87 %
28.01.2018 09:32 5,7 C 3,9 C 85 % 1034,2 hPa 0,0 l/m 13,7 km/h (3 Bft) W-SW 250 2 min 0,000 mm 0,0 UV-I 145 W/m 3,4 C 0,6 C 22,5 km/h (4 Bft) 97,87 %
28.01.2018 09:34 5,8 C 3,9 C 85 % 1034,3 hPa 0,0 l/m 10,3 km/h (2 Bft) W 263 0 min 0,000 mm 0,0 UV-I 139 W/m 3,5 C 2,8 C 17,7 km/h (3 Bft) 97,37 %
28.01.2018 09:36 5,9 C 3,9 C 85 % 1034,4 hPa 0,0 l/m 8,3 km/h (2 Bft) W 263 0 min 0,000 mm 0,0 UV-I 128 W/m 3,6 C 4,3 C 14,5 km/h (3 Bft) 98,31 %
28.01.2018 09:38 5,9 C 3,9 C 85 % 1034,4 hPa 0,0 l/m 12,6 km/h (3 Bft) W-SW 257 0 min 0,000 mm 0,0 UV-I 109 W/m 3,6 C 1,4 C 20,9 km/h (4 Bft) 97,37 %
28.01.2018 09:40 6,0 C 3,9 C 84 % 1034,3 hPa 0,0 l/m 13,4 km/h (3 Bft) W-SW 245 0 min 0,000 mm 0,0 UV-I 92 W/m 3,5 C 1,1 C 19,3 km/h (3 Bft) 97,87 %
28.01.2018 09:42 6,0 C 3,9 C 84 % 1034,3 hPa 0,0 l/m 13,2 km/h (3 Bft) W-SW 246 0 min 0,000 mm 0,0 UV-I 91 W/m 3,5 C 1,2 C 20,9 km/h (4 Bft) 96,00 %
28.01.2018 09:44 6,0 C 3,9 C 84 % 1034,3 hPa 0,0 l/m 12,4 km/h (3 Bft) SW 223 0 min 0,000 mm 0,0 UV-I 93 W/m 3,5 C 1,7 C 17,7 km/h (3 Bft) 98,00 %
28.01.2018 09:46 6,0 C 3,9 C 84 % 1034,3 hPa 0,0 l/m 10,8 km/h (2 Bft) SW 232 0 min 0,000 mm 0,0 UV-I 94 W/m 3,5 C 2,6 C 14,5 km/h (3 Bft) 98,00 %
28.01.2018 09:48 5,9 C 3,9 C 84 % 1034,3 hPa 0,0 l/m 10,9 km/h (2 Bft) SW 236 0 min 0,000 mm 0,0 UV-I 99 W/m 3,4 C 2,5 C 19,3 km/h (3 Bft) 100,00 %
28.01.2018 09:50 6,0 C 3,9 C 84 % 1034,3 hPa 0,0 l/m 12,9 km/h (3 Bft) W 263 0 min 0,000 mm 0,0 UV-I 139 W/m 3,5 C 1,4 C 19,3 km/h (3 Bft) 100,00 %
28.01.2018 09:52 6,1 C 3,9 C 84 % 1034,3 hPa 0,0 l/m 11,3 km/h (2 Bft) SW 230 2 min 0,000 mm 0,0 UV-I 209 W/m 3,6 C 2,4 C 16,1 km/h (3 Bft) 100,00 %
28.01.2018 09:54 6,2 C 3,9 C 84 % 1034,2 hPa 0,0 l/m 11,9 km/h (2 Bft) SW 229 2 min 0,000 mm 0,0 UV-I 226 W/m 3,7 C 2,2 C 16,1 km/h (3 Bft) 100,00 %
28.01.2018 09:56 6,3 C 3,9 C 83 % 1034,3 hPa 0,0 l/m 13,0 km/h (3 Bft) W-SW 256 2 min 0,000 mm 0,0 UV-I 224 W/m 3,6 C 1,7 C 22,5 km/h (4 Bft) 100,00 %
28.01.2018 09:58 6,3 C 3,9 C 83 % 1034,3 hPa 0,0 l/m 17,0 km/h (3 Bft) W-SW 245 2 min 0,000 mm 0,0 UV-I 245 W/m 3,6 C -0,3 C 24,1 km/h (4 Bft) 97,87 %
28.01.2018 10:00 6,4 C 3,9 C 82 % 1034,3 hPa 0,0 l/m 12,4 km/h (3 Bft) SW 227 2 min 0,000 mm 0,4 UV-I 268 W/m 3,6 C 2,1 C 17,7 km/h (3 Bft) 100,00 %
28.01.2018 10:02 6,6 C 3,9 C 83 % 1034,3 hPa 0,0 l/m 14,6 km/h (3 Bft) SW 223 2 min 0,077 mm 0,5 UV-I 272 W/m 3,9 C 1,2 C 24,1 km/h (4 Bft) 98,11 %
28.01.2018 10:04 6,6 C 3,9 C 82 % 1034,2 hPa 0,0 l/m 16,2 km/h (3 Bft) S-SW 200 2 min 0,000 mm 0,5 UV-I 256 W/m 3,8 C 0,5 C 22,5 km/h (4 Bft) 98,11 %
28.01.2018 10:06 6,7 C 3,9 C 81 % 1034,3 hPa 0,0 l/m 18,1 km/h (3 Bft) W-SW 252 2 min 0,000 mm 0,5 UV-I 256 W/m 3,7 C -0,2 C 35,4 km/h (5 Bft) 97,56 %
28.01.2018 10:08 6,7 C 3,9 C 81 % 1034,2 hPa 0,0 l/m 13,9 km/h (3 Bft) W-SW 257 2 min 0,000 mm 0,5 UV-I 294 W/m 3,7 C 1,7 C 19,3 km/h (3 Bft) 97,87 %
28.01.2018 10:10 6,8 C 3,9 C 81 % 1034,3 hPa 0,0 l/m 13,7 km/h (3 Bft) SW 226 2 min 0,000 mm 0,5 UV-I 326 W/m 3,8 C 1,9 C 24,1 km/h (4 Bft) 100,00 %
28.01.2018 10:12 6,9 C 3,9 C 81 % 1034,3 hPa 0,0 l/m 16,4 km/h (3 Bft) SW 228 2 min 0,000 mm 0,5 UV-I 323 W/m 3,9 C 0,7 C 22,5 km/h (4 Bft) 100,00 %
28.01.2018 10:14 6,9 C 3,9 C 81 % 1034,4 hPa 0,0 l/m 17,3 km/h (3 Bft) W 260 2 min 0,000 mm 0,5 UV-I 324 W/m 3,9 C 0,3 C 25,7 km/h (4 Bft) 100,00 %
28.01.2018 10:16 7,0 C 3,9 C 80 % 1034,4 hPa 0,0 l/m 14,7 km/h (3 Bft) W 270 2 min 0,000 mm 0,6 UV-I 321 W/m 3,8 C 1,6 C 22,5 km/h (4 Bft) 97,56 %
28.01.2018 10:18 7,1 C 3,9 C 80 % 1034,5 hPa 0,0 l/m 18,4 km/h (3 Bft) W 259 2 min 0,000 mm 0,6 UV-I 285 W/m 3,9 C 0,1 C 27,4 km/h (4 Bft) 98,00 %
28.01.2018 10:20 7,1 C 3,9 C 80 % 1034,5 hPa 0,0 l/m 16,2 km/h (3 Bft) W 281 2 min 0,000 mm 0,5 UV-I 258 W/m 3,9 C 1,1 C 27,4 km/h (4 Bft) 100,00 %
28.01.2018 10:22 7,1 C 3,9 C 79 % 1034,5 hPa 0,0 l/m 16,3 km/h (3 Bft) SW 235 2 min 0,000 mm 0,5 UV-I 223 W/m 3,7 C 1,0 C 24,1 km/h (4 Bft) 100,00 %
28.01.2018 10:24 7,1 C 3,9 C 79 % 1034,5 hPa 0,0 l/m 14,8 km/h (3 Bft) W 259 2 min 0,000 mm 0,6 UV-I 300 W/m 3,7 C 1,7 C 24,1 km/h (4 Bft) 100,00 %
28.01.2018 10:26 7,2 C 3,9 C 80 % 1034,4 hPa 0,0 l/m 13,0 km/h (3 Bft) SW 232 2 min 0,000 mm 0,6 UV-I 323 W/m 4,0 C 2,7 C 20,9 km/h (4 Bft) 100,00 %
28.01.2018 10:28 7,2 C 3,9 C 80 % 1034,4 hPa 0,0 l/m 11,9 km/h (2 Bft) SW 231 2 min 0,000 mm 0,6 UV-I 344 W/m 4,0 C 3,3 C 19,3 km/h (3 Bft) 100,00 %
28.01.2018 10:30 7,3 C 3,9 C 79 % 1034,2 hPa 0,0 l/m 17,6 km/h (3 Bft) S-SW 213 2 min 0,000 mm 0,6 UV-I 332 W/m 3,9 C 0,7 C 24,1 km/h (4 Bft) 96,00 %
28.01.2018 10:32 7,3 C 3,9 C 79 % 1034,3 hPa 0,0 l/m 13,6 km/h (3 Bft) SW 215 2 min 0,000 mm 0,6 UV-I 325 W/m 3,9 C 2,5 C 20,9 km/h (4 Bft) 98,00 %
28.01.2018 10:34 7,4 C 3,9 C 79 % 1034,3 hPa 0,0 l/m 13,2 km/h (3 Bft) SW 236 2 min 0,000 mm 0,7 UV-I 332 W/m 4,0 C 2,9 C 20,9 km/h (4 Bft) 97,37 %
28.01.2018 10:36 7,4 C 3,9 C 79 % 1034,3 hPa 0,0 l/m 12,3 km/h (3 Bft) W-SW 257 2 min 0,000 mm 0,7 UV-I 345 W/m 4,0 C 3,4 C 17,7 km/h (3 Bft) 97,87 %
28.01.2018 10:38 7,5 C 3,9 C 79 % 1034,4 hPa 0,0 l/m 16,8 km/h (3 Bft) W-SW 244 2 min 0,000 mm 0,7 UV-I 344 W/m 4,1 C 1,3 C 24,1 km/h (4 Bft) 94,34 %
28.01.2018 10:40 7,6 C 3,9 C 79 % 1034,5 hPa 0,0 l/m 11,0 km/h (2 Bft) SW 236 2 min 0,000 mm 0,7 UV-I 348 W/m 4,2 C 4,3 C 17,7 km/h (3 Bft) 94,34 %
28.01.2018 10:42 7,7 C 3,9 C 78 % 1034,6 hPa 0,0 l/m 16,8 km/h (3 Bft) W 262 2 min 0,000 mm 0,7 UV-I 352 W/m 4,1 C 1,6 C 27,4 km/h (4 Bft) 97,14 %
28.01.2018 10:44 7,7 C 3,9 C 78 % 1034,6 hPa 0,0 l/m 14,3 km/h (3 Bft) W-SW 258 2 min 0,000 mm 0,7 UV-I 352 W/m 4,1 C 2,7 C 20,9 km/h (4 Bft) 97,73 %
28.01.2018 10:46 7,7 C 3,9 C 77 % 1034,6 hPa 0,0 l/m 16,5 km/h (3 Bft) W 263 2 min 0,000 mm 0,7 UV-I 367 W/m 3,9 C 1,7 C 24,1 km/h (4 Bft) 96,43 %
28.01.2018 10:48 7,8 C 3,9 C 77 % 1034,5 hPa 0,0 l/m 15,4 km/h (3 Bft) W 269 2 min 0,000 mm 0,7 UV-I 349 W/m 4,0 C 2,3 C 25,7 km/h (4 Bft) 96,00 %
28.01.2018 10:50 7,8 C 3,9 C 77 % 1034,4 hPa 0,0 l/m 13,7 km/h (3 Bft) SW 229 2 min 0,000 mm 0,7 UV-I 258 W/m 4,0 C 3,1 C 20,9 km/h (4 Bft) 97,56 %
28.01.2018 10:52 7,8 C 3,9 C 76 % 1034,4 hPa 0,0 l/m 13,5 km/h (3 Bft) SW 219 2 min 0,000 mm 0,7 UV-I 234 W/m 3,8 C 3,2 C 19,3 km/h (3 Bft) 97,56 %
28.01.2018 10:54 7,7 C 3,9 C 76 % 1034,4 hPa 0,0 l/m 15,6 km/h (3 Bft) W-SW 251 2 min 0,000 mm 0,7 UV-I 253 W/m 3,7 C 2,1 C 24,1 km/h (4 Bft) 96,23 %
28.01.2018 10:56 7,7 C 3,9 C 75 % 1034,3 hPa 0,0 l/m 19,0 km/h (3 Bft) SW 236 2 min 0,000 mm 0,7 UV-I 287 W/m 3,6 C 0,7 C 27,4 km/h (4 Bft) 98,11 %
28.01.2018 10:58 7,7 C 3,9 C 75 % 1034,4 hPa 0,0 l/m 16,7 km/h (3 Bft) SW 229 2 min 0,000 mm 0,7 UV-I 325 W/m 3,6 C 1,6 C 20,9 km/h (4 Bft) 97,73 %
28.01.2018 11:00 7,8 C 3,9 C 76 % 1034,3 hPa 0,0 l/m 12,8 km/h (3 Bft) W-SW 238 2 min 0,000 mm 0,8 UV-I 375 W/m 3,8 C 3,6 C 22,5 km/h (4 Bft) 100,00 %
28.01.2018 11:02 8,0 C 3,9 C 76 % 1034,4 hPa 0,0 l/m 11,3 km/h (2 Bft) SW 219 2 min 0,152 mm 0,8 UV-I 404 W/m 4,0 C 4,6 C 20,9 km/h (4 Bft) 100,00 %
28.01.2018 11:04 8,1 C 3,9 C 75 % 1034,4 hPa 0,0 l/m 16,4 km/h (3 Bft) W 266 2 min 0,000 mm 0,8 UV-I 408 W/m 3,9 C 2,2 C 25,7 km/h (4 Bft) 100,00 %
28.01.2018 11:06 8,2 C 3,9 C 75 % 1034,4 hPa 0,0 l/m 13,6 km/h (3 Bft) W-SW 246 2 min 0,000 mm 0,8 UV-I 381 W/m 4,0 C 3,6 C 22,5 km/h (4 Bft) 100,00 %
28.01.2018 11:08 8,2 C 3,9 C 74 % 1034,1 hPa 0,0 l/m 13,1 km/h (3 Bft) W-SW 250 2 min 0,000 mm 0,8 UV-I 388 W/m 3,8 C 3,9 C 20,9 km/h (4 Bft) 98,00 %
28.01.2018 11:10 8,2 C 3,9 C 73 % 1034,0 hPa 0,0 l/m 19,6 km/h (3 Bft) SW 224 2 min 0,000 mm 0,8 UV-I 393 W/m 3,7 C 1,1 C 30,6 km/h (5 Bft) 100,00 %
28.01.2018 11:12 8,3 C 3,9 C 74 % 1034,1 hPa 0,0 l/m 14,4 km/h (3 Bft) W-SW 258 2 min 0,000 mm 0,9 UV-I 403 W/m 3,9 C 3,4 C 22,5 km/h (4 Bft) 100,00 %
28.01.2018 11:14 8,4 C 3,9 C 73 % 1034,1 hPa 0,0 l/m 12,2 km/h (2 Bft) W 267 2 min 0,000 mm 0,9 UV-I 405 W/m 3,8 C 4,6 C 17,7 km/h (3 Bft) 100,00 %
28.01.2018 11:16 8,4 C 3,9 C 72 % 1034,2 hPa 0,0 l/m 16,3 km/h (3 Bft) S-SW 196 2 min 0,000 mm 0,9 UV-I 404 W/m 3,7 C 2,6 C 24,1 km/h (4 Bft) 100,00 %
28.01.2018 11:18 8,4 C 3,9 C 71 % 1034,3 hPa 0,0 l/m 20,9 km/h (4 Bft) SW 215 2 min 0,000 mm 0,9 UV-I 404 W/m 3,5 C 0,9 C 30,6 km/h (5 Bft) 100,00 %
28.01.2018 11:20 8,4 C 3,9 C 73 % 1034,2 hPa 0,0 l/m 15,7 km/h (3 Bft) W-SW 237 2 min 0,000 mm 0,9 UV-I 402 W/m 3,8 C 2,9 C 25,7 km/h (4 Bft) 100,00 %
28.01.2018 11:22 8,5 C 3,9 C 72 % 1034,2 hPa 0,0 l/m 19,1 km/h (3 Bft) SW 219 2 min 0,000 mm 0,9 UV-I 405 W/m 3,7 C 1,7 C 27,4 km/h (4 Bft) 97,87 %
28.01.2018 11:24 8,6 C 3,9 C 72 % 1034,2 hPa 0,0 l/m 15,4 km/h (3 Bft) SW 219 2 min 0,000 mm 0,9 UV-I 408 W/m 3,8 C 3,3 C 20,9 km/h (4 Bft) 100,00 %
28.01.2018 11:26 8,6 C 3,9 C 72 % 1034,2 hPa 0,0 l/m 15,9 km/h (3 Bft) W-SW 242 2 min 0,000 mm 0,9 UV-I 405 W/m 3,8 C 3,0 C 30,6 km/h (5 Bft) 98,00 %
28.01.2018 11:28 8,6 C 3,9 C 72 % 1034,1 hPa 0,0 l/m 15,9 km/h (3 Bft) SW 231 2 min 0,000 mm 0,9 UV-I 411 W/m 3,8 C 3,0 C 24,1 km/h (4 Bft) 100,00 %
28.01.2018 11:30 8,7 C 3,9 C 72 % 1034,1 hPa 0,0 l/m 16,9 km/h (3 Bft) W 265 2 min 0,000 mm 0,9 UV-I 420 W/m 3,9 C 2,8 C 24,1 km/h (4 Bft) 100,00 %
28.01.2018 11:32 8,7 C 3,9 C 71 % 1034,1 hPa 0,0 l/m 18,8 km/h (3 Bft) W 265 2 min 0,000 mm 0,9 UV-I 430 W/m 3,7 C 2,0 C 27,4 km/h (4 Bft) 100,00 %
28.01.2018 11:34 8,8 C 3,9 C 72 % 1034,1 hPa 0,0 l/m 17,1 km/h (3 Bft) W-SW 246 2 min 0,000 mm 0,9 UV-I 426 W/m 4,0 C 2,8 C 25,7 km/h (4 Bft) 100,00 %
28.01.2018 11:36 8,9 C 3,9 C 70 % 1034,0 hPa 0,0 l/m 18,0 km/h (3 Bft) W-SW 252 2 min 0,000 mm 1,0 UV-I 440 W/m 3,7 C 2,6 C 27,4 km/h (4 Bft) 100,00 %
28.01.2018 11:38 8,9 C 3,9 C 67 % 1034,0 hPa 0,0 l/m 19,8 km/h (3 Bft) SW 219 2 min 0,000 mm 1,0 UV-I 451 W/m 3,1 C 1,9 C 27,4 km/h (4 Bft) 100,00 %
28.01.2018 11:40 9,0 C 3,9 C 68 % 1034,1 hPa 0,0 l/m 16,2 km/h (3 Bft) W-SW 240 2 min 0,000 mm 1,0 UV-I 447 W/m 3,4 C 3,4 C 27,4 km/h (4 Bft) 100,00 %
28.01.2018 11:42 9,1 C 3,9 C 67 % 1034,1 hPa 0,0 l/m 20,1 km/h (4 Bft) W-SW 249 2 min 0,000 mm 1,0 UV-I 461 W/m 3,3 C 2,1 C 25,7 km/h (4 Bft) 100,00 %
28.01.2018 11:44 9,2 C 3,9 C 67 % 1034,1 hPa 0,0 l/m 19,9 km/h (4 Bft) W-SW 247 2 min 0,000 mm 1,0 UV-I 412 W/m 3,4 C 2,3 C 29,0 km/h (5 Bft) 97,56 %
28.01.2018 11:46 9,3 C 3,9 C 65 % 1034,0 hPa 0,0 l/m 21,6 km/h (4 Bft) W-SW 258 2 min 0,000 mm 0,9 UV-I 384 W/m 3,1 C 1,9 C 30,6 km/h (5 Bft) 98,31 %
28.01.2018 11:48 9,2 C 3,9 C 65 % 1034,0 hPa 0,0 l/m 23,0 km/h (4 Bft) W 267 2 min 0,000 mm 0,8 UV-I 279 W/m 3,0 C 1,3 C 32,2 km/h (5 Bft) 100,00 %
28.01.2018 11:50 9,1 C 3,9 C 65 % 1034,0 hPa 0,0 l/m 17,9 km/h (3 Bft) W-SW 252 2 min 0,000 mm 0,8 UV-I 256 W/m 2,9 C 2,9 C 25,7 km/h (4 Bft) 100,00 %
28.01.2018 11:52 9,1 C 3,9 C 65 % 1034,0 hPa 0,0 l/m 22,1 km/h (4 Bft) W-SW 242 2 min 0,000 mm 0,9 UV-I 302 W/m 2,9 C 1,4 C 33,8 km/h (5 Bft) 98,00 %
28.01.2018 11:54 9,1 C 3,9 C 65 % 1034,1 hPa 0,0 l/m 20,5 km/h (4 Bft) W-SW 258 2 min 0,000 mm 1,0 UV-I 351 W/m 2,9 C 2,0 C 32,2 km/h (5 Bft) 100,00 %
28.01.2018 11:56 9,1 C 3,9 C 65 % 1034,1 hPa 0,0 l/m 12,7 km/h (3 Bft) W 267 2 min 0,000 mm 1,0 UV-I 409 W/m 2,9 C 5,1 C 20,9 km/h (4 Bft) 100,00 %
28.01.2018 11:58 9,2 C 3,9 C 65 % 1034,1 hPa 0,0 l/m 15,4 km/h (3 Bft) W 263 2 min 0,000 mm 0,9 UV-I 363 W/m 3,0 C 4,0 C 24,1 km/h (4 Bft) 100,00 %
28.01.2018 12:00 9,3 C 3,9 C 65 % 1034,2 hPa 0,0 l/m 15,6 km/h (3 Bft) SW 225 2 min 0,000 mm 1,0 UV-I 450 W/m 3,1 C 4,0 C 22,5 km/h (4 Bft) 95,45 %
28.01.2018 12:02 9,4 C 3,9 C 65 % 1034,2 hPa 0,0 l/m 16,4 km/h (3 Bft) W-SW 250 2 min 0,229 mm 1,0 UV-I 433 W/m 3,2 C 3,8 C 27,4 km/h (4 Bft) 97,56 %
28.01.2018 12:04 9,4 C 3,9 C 64 % 1034,2 hPa 0,0 l/m 19,9 km/h (4 Bft) W 262 2 min 0,000 mm 1,0 UV-I 446 W/m 2,9 C 2,5 C 27,4 km/h (4 Bft) 97,73 %
28.01.2018 12:06 9,5 C 3,9 C 64 % 1034,3 hPa 0,0 l/m 14,0 km/h (3 Bft) W 259 2 min 0,000 mm 1,0 UV-I 497 W/m 3,0 C 5,0 C 20,9 km/h (4 Bft) 96,00 %
28.01.2018 12:08 9,7 C 3,9 C 65 % 1034,3 hPa 0,0 l/m 14,2 km/h (3 Bft) W-SW 244 2 min 0,000 mm 1,0 UV-I 459 W/m 3,4 C 5,1 C 24,1 km/h (4 Bft) 97,87 %
28.01.2018 12:10 9,8 C 3,9 C 64 % 1034,3 hPa 0,0 l/m 14,1 km/h (3 Bft) W-SW 250 2 min 0,000 mm 1,0 UV-I 415 W/m 3,3 C 5,3 C 16,1 km/h (3 Bft) 97,73 %
28.01.2018 12:12 9,8 C 3,9 C 63 % 1034,3 hPa 0,0 l/m 16,1 km/h (3 Bft) W 260 2 min 0,000 mm 0,9 UV-I 325 W/m 3,1 C 4,4 C 20,9 km/h (4 Bft) 98,21 %
28.01.2018 12:14 9,7 C 3,9 C 63 % 1034,3 hPa 0,0 l/m 11,3 km/h (2 Bft) W 273 2 min 0,000 mm 0,9 UV-I 351 W/m 3,0 C 6,5 C 17,7 km/h (3 Bft) 97,37 %
28.01.2018 12:16 9,7 C 3,9 C 64 % 1034,3 hPa 0,0 l/m 13,7 km/h (3 Bft) W 266 2 min 0,000 mm 0,9 UV-I 316 W/m 3,2 C 5,3 C 20,9 km/h (4 Bft) 92,86 %
28.01.2018 12:18 9,6 C 3,9 C 63 % 1034,3 hPa 0,0 l/m 16,0 km/h (3 Bft) W-SW 244 2 min 0,000 mm 0,8 UV-I 294 W/m 2,9 C 4,2 C 24,1 km/h (4 Bft) 97,73 %
28.01.2018 12:20 9,5 C 3,9 C 64 % 1034,3 hPa 0,0 l/m 15,7 km/h (3 Bft) W-SW 252 2 min 0,000 mm 0,8 UV-I 288 W/m 3,0 C 4,2 C 24,1 km/h (4 Bft) 97,44 %
28.01.2018 12:22 9,6 C 3,9 C 65 % 1034,2 hPa 0,0 l/m 14,3 km/h (3 Bft) SW 217 2 min 0,000 mm 0,8 UV-I 280 W/m 3,4 C 5,0 C 20,9 km/h (4 Bft) 96,23 %
28.01.2018 12:24 9,5 C 3,9 C 63 % 1034,2 hPa 0,0 l/m 17,4 km/h (3 Bft) W-SW 251 2 min 0,000 mm 0,8 UV-I 275 W/m 2,8 C 3,6 C 24,1 km/h (4 Bft) 97,87 %
28.01.2018 12:26 9,6 C 3,9 C 64 % 1034,3 hPa 0,0 l/m 14,4 km/h (3 Bft) W 275 2 min 0,000 mm 0,8 UV-I 286 W/m 3,1 C 4,9 C 20,9 km/h (4 Bft) 96,00 %
28.01.2018 12:28 9,6 C 3,9 C 63 % 1034,2 hPa 0,0 l/m 13,1 km/h (3 Bft) W-SW 254 2 min 0,000 mm 0,8 UV-I 269 W/m 2,9 C 5,5 C 20,9 km/h (4 Bft) 93,62 %
28.01.2018 12:30 9,6 C 3,9 C 65 % 1034,2 hPa 0,0 l/m 11,6 km/h (2 Bft) W-NW 287 2 min 0,000 mm 0,7 UV-I 250 W/m 3,4 C 6,3 C 14,5 km/h (3 Bft) 95,12 %
28.01.2018 12:32 9,6 C 3,9 C 64 % 1034,2 hPa 0,0 l/m 12,2 km/h (2 Bft) W-SW 254 2 min 0,000 mm 0,7 UV-I 240 W/m 3,1 C 6,0 C 17,7 km/h (3 Bft) 100,00 %
28.01.2018 12:34 9,6 C 3,9 C 64 % 1034,2 hPa 0,0 l/m 13,8 km/h (3 Bft) W-SW 257 2 min 0,000 mm 0,7 UV-I 228 W/m 3,1 C 5,2 C 20,9 km/h (4 Bft) 96,00 %
28.01.2018 12:36 9,6 C 3,9 C 65 % 1034,2 hPa 0,0 l/m 13,6 km/h (3 Bft) W-NW 282 2 min 0,000 mm 0,7 UV-I 235 W/m 3,4 C 5,3 C 22,5 km/h (4 Bft) 100,00 %
28.01.2018 12:38 9,6 C 3,9 C 64 % 1034,2 hPa 0,0 l/m 7,5 km/h (2 Bft) W-SW 258 2 min 0,000 mm 0,8 UV-I 250 W/m 3,1 C 8,8 C 12,9 km/h (3 Bft) 100,00 %
28.01.2018 12:40 9,7 C 3,9 C 65 % 1034,1 hPa 0,0 l/m 10,7 km/h (2 Bft) W-SW 246 2 min 0,000 mm 0,8 UV-I 263 W/m 3,4 C 6,9 C 14,5 km/h (3 Bft) 97,87 %
28.01.2018 12:42 9,7 C 3,9 C 64 % 1034,1 hPa 0,0 l/m 11,3 km/h (2 Bft) SW 225 2 min 0,000 mm 0,8 UV-I 266 W/m 3,2 C 6,5 C 17,7 km/h (3 Bft) 100,00 %
28.01.2018 12:44 9,8 C 3,9 C 64 % 1034,1 hPa 0,0 l/m 11,2 km/h (2 Bft) W-SW 257 2 min 0,000 mm 0,8 UV-I 272 W/m 3,3 C 6,7 C 16,1 km/h (3 Bft) 97,37 %
28.01.2018 12:46 9,8 C 3,9 C 65 % 1034,1 hPa 0,0 l/m 9,4 km/h (2 Bft) W-SW 255 2 min 0,000 mm 0,8 UV-I 295 W/m 3,5 C 7,7 C 14,5 km/h (3 Bft) 100,00 %
28.01.2018 12:48 9,9 C 3,9 C 64 % 1034,1 hPa 0,0 l/m 12,9 km/h (3 Bft) SW 227 2 min 0,000 mm 0,8 UV-I 311 W/m 3,4 C 6,0 C 24,1 km/h (4 Bft) 100,00 %
28.01.2018 12:50 10,0 C 3,9 C 62 % 1034,1 hPa 0,0 l/m 12,6 km/h (3 Bft) SW 221 2 min 0,000 mm 0,8 UV-I 304 W/m 3,1 C 6,2 C 22,5 km/h (4 Bft) 95,74 %
28.01.2018 12:52 10,0 C 3,9 C 63 % 1034,2 hPa 0,0 l/m 11,9 km/h (2 Bft) W 276 2 min 0,000 mm 0,8 UV-I 303 W/m 3,3 C 6,6 C 16,1 km/h (3 Bft) 100,00 %
28.01.2018 12:54 10,1 C 3,9 C 64 % 1034,1 hPa 0,0 l/m 10,9 km/h (2 Bft) W-SW 244 2 min 0,000 mm 0,7 UV-I 257 W/m 3,6 C 7,2 C 14,5 km/h (3 Bft) 100,00 %
28.01.2018 12:56 10,1 C 3,9 C 63 % 1034,1 hPa 0,0 l/m 7,8 km/h (2 Bft) SW 227 2 min 0,000 mm 0,7 UV-I 236 W/m 3,4 C 9,1 C 11,3 km/h (2 Bft) 96,23 %
28.01.2018 12:58 10,1 C 3,9 C 63 % 1034,1 hPa 0,0 l/m 13,3 km/h (3 Bft) W-SW 248 2 min 0,000 mm 0,6 UV-I 224 W/m 3,4 C 6,0 C 20,9 km/h (4 Bft) 100,00 %
28.01.2018 13:00 9,9 C 3,9 C 63 % 1034,1 hPa 0,0 l/m 14,7 km/h (3 Bft) W 263 0 min 0,177 mm 0,6 UV-I 212 W/m 3,2 C 5,1 C 19,3 km/h (3 Bft) 100,00 %
28.01.2018 13:02 9,9 C 3,9 C 62 % 1034,1 hPa 0,0 l/m 13,9 km/h (3 Bft) W 260 0 min 0,000 mm 0,6 UV-I 201 W/m 3,0 C 5,5 C 17,7 km/h (3 Bft) 100,00 %
28.01.2018 13:04 9,8 C 3,9 C 63 % 1034,1 hPa 0,0 l/m 14,1 km/h (3 Bft) W 261 0 min 0,000 mm 0,5 UV-I 183 W/m 3,1 C 5,3 C 20,9 km/h (4 Bft) 100,00 %
28.01.2018 13:06 9,7 C 3,9 C 65 % 1034,0 hPa 0,0 l/m 10,2 km/h (2 Bft) W-NW 286 0 min 0,000 mm 0,1 UV-I 149 W/m 3,4 C 7,1 C 17,7 km/h (3 Bft) 100,00 %
28.01.2018 13:08 9,6 C 3,9 C 66 % 1034,1 hPa 0,0 l/m 8,7 km/h (2 Bft) W 266 0 min 0,000 mm 0,0 UV-I 131 W/m 3,6 C 8,0 C 16,1 km/h (3 Bft) 100,00 %
28.01.2018 13:10 9,6 C 3,9 C 67 % 1034,2 hPa 0,0 l/m 13,2 km/h (3 Bft) W-SW 250 0 min 0,000 mm 0,0 UV-I 126 W/m 3,8 C 5,5 C 20,9 km/h (4 Bft) 98,11 %
28.01.2018 13:12 9,5 C 3,9 C 67 % 1034,1 hPa 0,0 l/m 9,6 km/h (2 Bft) W 265 0 min 0,000 mm 0,0 UV-I 132 W/m 3,7 C 7,3 C 17,7 km/h (3 Bft) 100,00 %
28.01.2018 13:14 9,4 C 3,9 C 68 % 1034,1 hPa 0,0 l/m 9,6 km/h (2 Bft) W 274 0 min 0,000 mm 0,4 UV-I 144 W/m 3,8 C 7,2 C 19,3 km/h (3 Bft) 100,00 %
28.01.2018 13:16 9,4 C 3,9 C 68 % 1034,0 hPa 0,0 l/m 10,6 km/h (2 Bft) W 278 0 min 0,000 mm 0,5 UV-I 154 W/m 3,8 C 6,6 C 17,7 km/h (3 Bft) 100,00 %
28.01.2018 13:18 9,3 C 3,9 C 68 % 1034,1 hPa 0,0 l/m 12,2 km/h (2 Bft) S-SW 210 0 min 0,000 mm 0,5 UV-I 143 W/m 3,7 C 5,6 C 17,7 km/h (3 Bft) 96,43 %
28.01.2018 13:20 9,2 C 3,9 C 69 % 1034,1 hPa 0,0 l/m 11,5 km/h (2 Bft) W 259 0 min 0,000 mm 0,3 UV-I 133 W/m 3,8 C 5,9 C 20,9 km/h (4 Bft) 100,00 %
28.01.2018 13:22 9,1 C 3,9 C 70 % 1034,0 hPa 0,0 l/m 9,2 km/h (2 Bft) W 265 0 min 0,000 mm 0,0 UV-I 129 W/m 3,9 C 7,1 C 16,1 km/h (3 Bft) 100,00 %
28.01.2018 13:24 9,1 C 3,9 C 70 % 1034,0 hPa 0,0 l/m 10,7 km/h (2 Bft) SW 225 0 min 0,000 mm 0,4 UV-I 138 W/m 3,9 C 6,2 C 17,7 km/h (3 Bft) 100,00 %
28.01.2018 13:26 9,1 C 3,9 C 70 % 1034,0 hPa 0,0 l/m 9,1 km/h (2 Bft) W 274 0 min 0,000 mm 0,5 UV-I 141 W/m 3,9 C 7,2 C 14,5 km/h (3 Bft) 100,00 %
28.01.2018 13:28 8,9 C 3,9 C 71 % 1033,9 hPa 0,0 l/m 14,0 km/h (3 Bft) W 281 0 min 0,000 mm 0,5 UV-I 135 W/m 3,9 C 4,3 C 25,7 km/h (4 Bft) 100,00 %
28.01.2018 13:30 8,9 C 3,9 C 71 % 1033,9 hPa 0,0 l/m 13,2 km/h (3 Bft) W-SW 257 0 min 0,000 mm 0,3 UV-I 135 W/m 3,9 C 4,6 C 25,7 km/h (4 Bft) 98,00 %
28.01.2018 13:32 8,9 C 3,9 C 71 % 1033,9 hPa 0,0 l/m 9,5 km/h (2 Bft) SW 229 0 min 0,000 mm 0,0 UV-I 130 W/m 3,9 C 6,7 C 16,1 km/h (3 Bft) 96,00 %
28.01.2018 13:34 8,8 C 3,9 C 73 % 1034,0 hPa 0,0 l/m 6,3 km/h (2 Bft) N-NW 329 0 min 0,000 mm 0,0 UV-I 124 W/m 4,2 C 8,8 C 14,5 km/h (3 Bft) 100,00 %
28.01.2018 13:36 8,8 C 3,9 C 75 % 1034,0 hPa 0,0 l/m 6,7 km/h (2 Bft) W-NW 296 0 min 0,000 mm 0,0 UV-I 124 W/m 4,6 C 8,6 C 17,7 km/h (3 Bft) 96,15 %
28.01.2018 13:38 8,6 C 3,9 C 76 % 1034,1 hPa 0,0 l/m 6,0 km/h (2 Bft) NW 313 0 min 0,000 mm 0,0 UV-I 127 W/m 4,6 C 8,6 C 14,5 km/h (3 Bft) 100,00 %
28.01.2018 13:40 8,4 C 3,9 C 77 % 1034,0 hPa 0,0 l/m 6,4 km/h (2 Bft) W 267 0 min 0,000 mm 0,0 UV-I 126 W/m 4,6 C 8,4 C 12,9 km/h (3 Bft) 100,00 %
28.01.2018 13:42 8,3 C 3,9 C 78 % 1034,0 hPa 0,0 l/m 6,6 km/h (2 Bft) W 279 0 min 0,000 mm 0,0 UV-I 129 W/m 4,7 C 8,2 C 11,3 km/h (2 Bft) 100,00 %
28.01.2018 13:44 8,2 C 3,9 C 79 % 1034,0 hPa 0,0 l/m 6,9 km/h (2 Bft) W-SW 256 0 min 0,000 mm 0,0 UV-I 132 W/m 4,8 C 7,8 C 14,5 km/h (3 Bft) 98,11 %
28.01.2018 13:46 8,1 C 3,9 C 80 % 1034,0 hPa 0,0 l/m 6,5 km/h (2 Bft) W 267 0 min 0,000 mm 0,0 UV-I 136 W/m 4,9 C 8,0 C 12,9 km/h (3 Bft) 100,00 %
28.01.2018 13:48 8,1 C 3,9 C 80 % 1033,9 hPa 0,0 l/m 10,6 km/h (2 Bft) W 259 0 min 0,000 mm 0,0 UV-I 141 W/m 4,9 C 5,1 C 17,7 km/h (3 Bft) 100,00 %
28.01.2018 13:50 8,1 C 3,9 C 80 % 1033,9 hPa 0,0 l/m 7,8 km/h (2 Bft) W-SW 244 0 min 0,000 mm 0,0 UV-I 140 W/m 4,9 C 7,0 C 12,9 km/h (3 Bft) 100,00 %
28.01.2018 13:52 8,1 C 3,9 C 80 % 1033,9 hPa 0,0 l/m 9,7 km/h (2 Bft) W-SW 254 0 min 0,000 mm 0,0 UV-I 143 W/m 4,9 C 5,7 C 14,5 km/h (3 Bft) 97,87 %
28.01.2018 13:54 8,1 C 3,9 C 80 % 1033,9 hPa 0,0 l/m 8,1 km/h (2 Bft) W-SW 244 0 min 0,000 mm 0,0 UV-I 137 W/m 4,9 C 6,8 C 12,9 km/h (3 Bft) 98,11 %
28.01.2018 13:56 8,1 C 3,9 C 80 % 1033,9 hPa 0,0 l/m 9,1 km/h (2 Bft) W-NW 293 0 min 0,000 mm 0,0 UV-I 130 W/m 4,9 C 6,1 C 16,1 km/h (3 Bft) 97,73 %
28.01.2018 13:58 8,1 C 3,9 C 80 % 1033,8 hPa 0,0 l/m 11,7 km/h (2 Bft) W 281 0 min 0,000 mm 0,0 UV-I 129 W/m 4,9 C 4,5 C 19,3 km/h (3 Bft) 97,73 %
28.01.2018 14:00 8,1 C 3,9 C 80 % 1033,9 hPa 0,0 l/m 8,9 km/h (2 Bft) NW 309 0 min 0,102 mm 0,0 UV-I 119 W/m 4,9 C 6,2 C 14,5 km/h (3 Bft) 96,23 %
28.01.2018 14:02 8,1 C 3,9 C 80 % 1033,8 hPa 0,0 l/m 9,5 km/h (2 Bft) W 280 0 min 0,000 mm 0,0 UV-I 107 W/m 4,9 C 5,8 C 17,7 km/h (3 Bft) 97,56 %
28.01.2018 14:04 8,1 C 3,9 C 81 % 1033,9 hPa 0,0 l/m 9,9 km/h (2 Bft) W-SW 243 0 min 0,000 mm 0,0 UV-I 99 W/m 5,0 C 5,6 C 14,5 km/h (3 Bft) 96,00 %
28.01.2018 14:06 8,0 C 3,9 C 81 % 1033,8 hPa 0,0 l/m 9,8 km/h (2 Bft) W 260 0 min 0,000 mm 0,0 UV-I 95 W/m 4,9 C 5,5 C 16,1 km/h (3 Bft) 98,00 %
28.01.2018 14:08 7,9 C 3,9 C 81 % 1033,9 hPa 0,0 l/m 7,9 km/h (2 Bft) W 266 0 min 0,000 mm 0,0 UV-I 88 W/m 4,8 C 6,7 C 11,3 km/h (2 Bft) 97,87 %
28.01.2018 14:10 7,9 C 3,9 C 82 % 1033,9 hPa 0,0 l/m 6,4 km/h (2 Bft) W 267 0 min 0,000 mm 0,0 UV-I 80 W/m 5,0 C 7,9 C 11,3 km/h (2 Bft) 96,30 %
28.01.2018 14:12 7,9 C 3,9 C 82 % 1033,8 hPa 0,0 l/m 7,7 km/h (2 Bft) W 277 0 min 0,000 mm 0,0 UV-I 76 W/m 5,0 C 6,9 C 14,5 km/h (3 Bft) 98,44 %
28.01.2018 14:14 7,8 C 3,9 C 82 % 1033,8 hPa 0,0 l/m 9,3 km/h (2 Bft) W 260 0 min 0,000 mm 0,0 UV-I 72 W/m 4,9 C 5,6 C 14,5 km/h (3 Bft) 97,44 %
28.01.2018 14:16 7,8 C 3,9 C 83 % 1033,8 hPa 0,0 l/m 8,1 km/h (2 Bft) W 259 0 min 0,000 mm 0,0 UV-I 70 W/m 5,1 C 6,5 C 12,9 km/h (3 Bft) 94,34 %
28.01.2018 14:18 7,8 C 3,9 C 83 % 1033,8 hPa 0,0 l/m 7,4 km/h (2 Bft) W 263 0 min 0,000 mm 0,0 UV-I 70 W/m 5,1 C 7,0 C 12,9 km/h (3 Bft) 97,56 %
28.01.2018 14:20 7,8 C 3,9 C 83 % 1033,8 hPa 0,0 l/m 11,7 km/h (2 Bft) W-SW 249 0 min 0,000 mm 0,0 UV-I 68 W/m 5,1 C 4,1 C 20,9 km/h (4 Bft) 94,64 %
28.01.2018 14:22 7,8 C 3,9 C 83 % 1033,8 hPa 0,0 l/m 10,8 km/h (2 Bft) W 271 0 min 0,000 mm 0,0 UV-I 69 W/m 5,1 C 4,7 C 17,7 km/h (3 Bft) 97,37 %
28.01.2018 14:24 7,8 C 3,9 C 83 % 1033,9 hPa 0,0 l/m 9,1 km/h (2 Bft) W 269 0 min 0,000 mm 0,0 UV-I 69 W/m 5,1 C 5,8 C 14,5 km/h (3 Bft) 98,00 %
28.01.2018 14:26 7,8 C 3,9 C 83 % 1033,9 hPa 0,0 l/m 10,9 km/h (2 Bft) W-NW 285 0 min 0,000 mm 0,0 UV-I 63 W/m 5,1 C 4,6 C 20,9 km/h (4 Bft) 97,87 %
28.01.2018 14:28 7,8 C 3,9 C 83 % 1033,8 hPa 0,0 l/m 8,7 km/h (2 Bft) W 263 0 min 0,000 mm 0,0 UV-I 61 W/m 5,1 C 6,0 C 14,5 km/h (3 Bft) 100,00 %
28.01.2018 14:30 7,8 C 3,9 C 83 % 1033,8 hPa 0,0 l/m 9,2 km/h (2 Bft) W 259 0 min 0,000 mm 0,0 UV-I 60 W/m 5,1 C 5,7 C 16,1 km/h (3 Bft) 100,00 %
28.01.2018 14:32 7,8 C 3,9 C 83 % 1033,8 hPa 0,0 l/m 6,8 km/h (2 Bft) W 268 0 min 0,000 mm 0,0 UV-I 58 W/m 5,1 C 7,5 C 12,9 km/h (3 Bft) 96,00 %
28.01.2018 14:34 7,7 C 3,9 C 83 % 1033,9 hPa 0,0 l/m 5,8 km/h (2 Bft) NW 308 0 min 0,000 mm 0,0 UV-I 53 W/m 5,0 C 7,7 C 11,3 km/h (2 Bft) 98,00 %
28.01.2018 14:36 7,7 C 3,9 C 83 % 1033,8 hPa 0,0 l/m 7,4 km/h (2 Bft) W 272 0 min 0,000 mm 0,0 UV-I 47 W/m 5,0 C 6,9 C 16,1 km/h (3 Bft) 97,87 %
28.01.2018 14:38 7,7 C 3,9 C 83 % 1033,8 hPa 0,0 l/m 5,1 km/h (1 Bft) W-SW 250 0 min 0,000 mm 0,0 UV-I 46 W/m 5,0 C 7,7 C 12,9 km/h (3 Bft) 100,00 %
28.01.2018 14:40 7,7 C 3,9 C 84 % 1033,7 hPa 0,0 l/m 4,8 km/h (1 Bft) W 270 0 min 0,000 mm 0,0 UV-I 47 W/m 5,2 C 7,7 C 12,9 km/h (3 Bft) 97,37 %
28.01.2018 14:45 7,7 C 3,9 C 84 % 1033,8 hPa 0,0 l/m 6,4 km/h (2 Bft) W 270 0 min 0,000 mm 0,0 UV-I 57 W/m 5,2 C 7,7 C 12,9 km/h (3 Bft) 96,49 %
28.01.2018 14:48 7,7 C 3,9 C 84 % 1033,6 hPa 0,0 l/m 5,5 km/h (1 Bft) W 274 0 min 0,000 mm 0,0 UV-I 64 W/m 5,2 C 7,7 C 11,3 km/h (2 Bft) 99,10 %
28.01.2018 14:50 7,7 C 3,9 C 84 % 1033,6 hPa 0,0 l/m 6,4 km/h (2 Bft) W 270 0 min 0,000 mm 0,0 UV-I 74 W/m 5,2 C 7,7 C 11,3 km/h (2 Bft) 95,61 %
28.01.2018 14:55 7,7 C 3,9 C 85 % 1033,7 hPa 0,0 l/m 4,8 km/h (1 Bft) W 270 0 min 0,000 mm 0,0 UV-I 89 W/m 5,3 C 7,7 C 11,3 km/h (2 Bft) 95,61 %
28.01.2018 15:00 7,7 C 3,9 C 86 % 1033,7 hPa 0,0 l/m 4,8 km/h (1 Bft) W 270 0 min 0,051 mm 0,0 UV-I 82 W/m 5,5 C 7,7 C 11,3 km/h (2 Bft) 94,74 %
28.01.2018 15:06 7,6 C 3,9 C 87 % 1033,7 hPa 0,0 l/m 6,5 km/h (2 Bft) W 269 0 min 0,000 mm 0,0 UV-I 77 W/m 5,6 C 7,5 C 11,3 km/h (2 Bft) 99,77 %
28.01.2018 15:08 7,5 C 3,9 C 88 % 1033,7 hPa 0,0 l/m 3,4 km/h (1 Bft) W-SW 258 0 min 0,000 mm 0,0 UV-I 72 W/m 5,6 C 7,5 C 6,4 km/h (2 Bft) 100,00 %
28.01.2018 15:10 7,4 C 3,9 C 88 % 1033,8 hPa 0,0 l/m 3,6 km/h (1 Bft) W-NW 286 0 min 0,000 mm 0,0 UV-I 69 W/m 5,5 C 7,4 C 6,4 km/h (2 Bft) 98,11 %
28.01.2018 15:14 7,4 C 3,9 C 88 % 1033,8 hPa 0,0 l/m 8,9 km/h (2 Bft) W 262 0 min 0,000 mm 0,0 UV-I 59 W/m 5,5 C 5,5 C 17,7 km/h (3 Bft) 100,00 %
28.01.2018 15:16 7,3 C 3,9 C 89 % 1033,8 hPa 0,0 l/m 6,8 km/h (2 Bft) W 263 0 min 0,000 mm 0,0 UV-I 55 W/m 5,6 C 7,0 C 11,3 km/h (2 Bft) 100,00 %
28.01.2018 15:18 7,3 C 3,9 C 89 % 1033,8 hPa 0,0 l/m 6,2 km/h (2 Bft) W-SW 252 0 min 0,000 mm 0,0 UV-I 53 W/m 5,6 C 7,3 C 11,3 km/h (2 Bft) 100,00 %
28.01.2018 15:20 7,3 C 3,9 C 89 % 1033,9 hPa 0,0 l/m 4,0 km/h (1 Bft) W 269 0 min 0,000 mm 0,0 UV-I 48 W/m 5,6 C 7,3 C 8,0 km/h (2 Bft) 100,00 %
28.01.2018 15:25 7,4 C 3,9 C 88 % 1033,9 hPa 0,0 l/m 6,4 km/h (2 Bft) W 270 0 min 0,000 mm 0,0 UV-I 44 W/m 5,5 C 7,4 C 14,5 km/h (3 Bft) 99,12 %
28.01.2018 15:26 7,4 C 3,9 C 88 % 1033,9 hPa 0,0 l/m 3,0 km/h (1 Bft) W 259 0 min 0,000 mm 0,0 UV-I 45 W/m 5,5 C 7,4 C 3,2 km/h (1 Bft) 99,31 %
28.01.2018 15:28 7,4 C 3,9 C 88 % 1033,9 hPa 0,0 l/m 8,4 km/h (2 Bft) W 262 0 min 0,000 mm 0,0 UV-I 39 W/m 5,5 C 5,8 C 14,5 km/h (3 Bft) 100,00 %
28.01.2018 15:30 7,4 C 3,9 C 88 % 1033,8 hPa 0,0 l/m 7,3 km/h (2 Bft) W 277 0 min 0,000 mm 0,0 UV-I 38 W/m 5,5 C 6,7 C 12,9 km/h (3 Bft) 100,00 %
28.01.2018 15:32 7,4 C 3,9 C 88 % 1033,8 hPa 0,0 l/m 7,3 km/h (2 Bft) W 272 0 min 0,000 mm 0,0 UV-I 36 W/m 5,5 C 6,7 C 12,9 km/h (3 Bft) 100,00 %
28.01.2018 15:34 7,4 C 3,9 C 88 % 1033,8 hPa 0,0 l/m 5,0 km/h (1 Bft) W 267 0 min 0,000 mm 0,0 UV-I 33 W/m 5,5 C 7,4 C 9,7 km/h (2 Bft) 100,00 %
28.01.2018 15:36 7,5 C 3,9 C 87 % 1033,7 hPa 0,0 l/m 5,8 km/h (2 Bft) W 259 0 min 0,000 mm 0,0 UV-I 32 W/m 5,5 C 7,5 C 11,3 km/h (2 Bft) 97,37 %
28.01.2018 15:38 7,4 C 3,9 C 87 % 1033,7 hPa 0,0 l/m 6,7 km/h (2 Bft) SW 228 0 min 0,000 mm 0,0 UV-I 31 W/m 5,4 C 7,2 C 12,9 km/h (3 Bft) 98,11 %
28.01.2018 15:40 7,5 C 3,9 C 87 % 1033,7 hPa 0,0 l/m 11,4 km/h (2 Bft) W-NW 286 0 min 0,000 mm 0,0 UV-I 30 W/m 5,5 C 4,0 C 14,5 km/h (3 Bft) 96,00 %
28.01.2018 15:42 7,5 C 3,9 C 87 % 1033,7 hPa 0,0 l/m 6,3 km/h (2 Bft) W 272 0 min 0,000 mm 0,0 UV-I 28 W/m 5,5 C 7,5 C 12,9 km/h (3 Bft) 95,74 %
28.01.2018 15:44 7,5 C 3,9 C 87 % 1033,6 hPa 0,0 l/m 8,6 km/h (2 Bft) W-SW 244 0 min 0,000 mm 0,0 UV-I 27 W/m 5,5 C 5,8 C 14,5 km/h (3 Bft) 97,87 %
28.01.2018 15:46 7,5 C 3,9 C 87 % 1033,7 hPa 0,0 l/m 6,3 km/h (2 Bft) NW 313 0 min 0,000 mm 0,0 UV-I 26 W/m 5,5 C 7,5 C 11,3 km/h (2 Bft) 97,44 %
28.01.2018 15:48 7,5 C 3,9 C 87 % 1033,6 hPa 0,0 l/m 6,5 km/h (2 Bft) SW 231 0 min 0,000 mm 0,0 UV-I 25 W/m 5,5 C 7,4 C 12,9 km/h (3 Bft) 98,00 %
28.01.2018 15:50 7,5 C 3,9 C 86 % 1033,6 hPa 0,0 l/m 5,4 km/h (1 Bft) W-SW 255 0 min 0,000 mm 0,0 UV-I 24 W/m 5,3 C 7,5 C 12,9 km/h (3 Bft) 96,00 %
28.01.2018 15:52 7,5 C 3,9 C 87 % 1033,6 hPa 0,0 l/m 5,5 km/h (1 Bft) W 277 0 min 0,000 mm 0,0 UV-I 23 W/m 5,5 C 7,5 C 11,3 km/h (2 Bft) 96,00 %
28.01.2018 15:54 7,5 C 3,9 C 87 % 1033,6 hPa 0,0 l/m 4,5 km/h (1 Bft) W 278 0 min 0,000 mm 0,0 UV-I 23 W/m 5,5 C 7,5 C 6,4 km/h (2 Bft) 94,74 %
28.01.2018 15:56 7,4 C 3,9 C 87 % 1033,5 hPa 0,0 l/m 4,3 km/h (1 Bft) W-NW 295 0 min 0,000 mm 0,0 UV-I 24 W/m 5,4 C 7,4 C 11,3 km/h (2 Bft) 94,00 %
28.01.2018 15:58 7,4 C 3,9 C 87 % 1033,5 hPa 0,0 l/m 6,7 km/h (2 Bft) W-NW 283 0 min 0,000 mm 0,0 UV-I 24 W/m 5,4 C 7,2 C 14,5 km/h (3 Bft) 93,62 %
28.01.2018 16:00 7,4 C 3,9 C 87 % 1033,5 hPa 0,0 l/m 6,3 km/h (2 Bft) W-SW 256 0 min 0,000 mm 0,0 UV-I 22 W/m 5,4 C 7,4 C 11,3 km/h (2 Bft) 94,00 %
28.01.2018 16:02 7,4 C 3,9 C 87 % 1033,5 hPa 0,0 l/m 7,4 km/h (2 Bft) W 263 0 min 0,025 mm 0,0 UV-I 20 W/m 5,4 C 6,6 C 11,3 km/h (2 Bft) 95,74 %
28.01.2018 16:04 7,4 C 3,9 C 87 % 1033,4 hPa 0,0 l/m 5,7 km/h (1 Bft) W-SW 240 0 min 0,000 mm 0,0 UV-I 19 W/m 5,4 C 7,4 C 9,7 km/h (2 Bft) 95,74 %
28.01.2018 16:06 7,5 C 3,9 C 86 % 1033,4 hPa 0,0 l/m 6,3 km/h (2 Bft) W-SW 253 0 min 0,000 mm 0,0 UV-I 19 W/m 5,3 C 7,5 C 12,9 km/h (3 Bft) 95,74 %
28.01.2018 16:08 7,5 C 3,9 C 87 % 1033,4 hPa 0,0 l/m 6,8 km/h (2 Bft) W 261 0 min 0,000 mm 0,0 UV-I 19 W/m 5,5 C 7,2 C 11,3 km/h (2 Bft) 92,11 %
28.01.2018 16:10 7,4 C 3,9 C 87 % 1033,4 hPa 0,0 l/m 7,0 km/h (2 Bft) W-SW 254 0 min 0,000 mm 0,0 UV-I 18 W/m 5,4 C 6,9 C 9,7 km/h (2 Bft) 96,00 %
28.01.2018 16:12 7,4 C 3,9 C 87 % 1033,3 hPa 0,0 l/m 7,0 km/h (2 Bft) W-SW 256 0 min 0,000 mm 0,0 UV-I 17 W/m 5,4 C 6,9 C 11,3 km/h (2 Bft) 96,00 %
28.01.2018 16:14 7,4 C 3,9 C 87 % 1033,3 hPa 0,0 l/m 7,1 km/h (2 Bft) W-SW 256 0 min 0,000 mm 0,0 UV-I 16 W/m 5,4 C 6,8 C 11,3 km/h (2 Bft) 95,74 %
28.01.2018 16:16 7,4 C 3,9 C 87 % 1033,3 hPa 0,0 l/m 7,0 km/h (2 Bft) W-SW 252 0 min 0,000 mm 0,0 UV-I 16 W/m 5,4 C 6,9 C 11,3 km/h (2 Bft) 95,12 %
28.01.2018 16:18 7,4 C 3,9 C 87 % 1033,3 hPa 0,0 l/m 6,1 km/h (2 Bft) W-SW 257 0 min 0,000 mm 0,0 UV-I 16 W/m 5,4 C 7,4 C 9,7 km/h (2 Bft) 95,83 %
28.01.2018 16:20 7,4 C 3,9 C 87 % 1033,3 hPa 0,0 l/m 4,3 km/h (1 Bft) W-SW 248 0 min 0,000 mm 0,0 UV-I 15 W/m 5,4 C 7,4 C 6,4 km/h (2 Bft) 92,31 %
28.01.2018 16:22 7,4 C 3,9 C 87 % 1033,3 hPa 0,0 l/m 6,0 km/h (2 Bft) W-SW 246 0 min 0,000 mm 0,0 UV-I 15 W/m 5,4 C 7,4 C 9,7 km/h (2 Bft) 94,00 %
28.01.2018 16:24 7,4 C 3,9 C 87 % 1033,3 hPa 0,0 l/m 5,9 km/h (2 Bft) W-SW 240 0 min 0,000 mm 0,0 UV-I 14 W/m 5,4 C 7,4 C 9,7 km/h (2 Bft) 97,44 %
28.01.2018 16:26 7,4 C 3,9 C 87 % 1033,2 hPa 0,0 l/m 5,5 km/h (1 Bft) W 277 0 min 0,000 mm 0,0 UV-I 14 W/m 5,4 C 7,4 C 8,0 km/h (2 Bft) 94,00 %
28.01.2018 16:28 7,4 C 3,9 C 87 % 1033,3 hPa 0,0 l/m 7,2 km/h (2 Bft) W 262 0 min 0,000 mm 0,0 UV-I 14 W/m 5,4 C 6,8 C 11,3 km/h (2 Bft) 96,00 %
28.01.2018 16:30 7,3 C 3,9 C 87 % 1033,3 hPa 0,0 l/m 6,1 km/h (2 Bft) W 259 0 min 0,000 mm 0,0 UV-I 14 W/m 5,3 C 7,3 C 9,7 km/h (2 Bft) 97,37 %
28.01.2018 16:32 7,3 C 3,9 C 87 % 1033,3 hPa 0,0 l/m 6,9 km/h (2 Bft) W-SW 254 0 min 0,000 mm 0,0 UV-I 12 W/m 5,3 C 6,9 C 11,3 km/h (2 Bft) 98,11 %
28.01.2018 16:34 7,3 C 3,9 C 87 % 1033,2 hPa 0,0 l/m 6,4 km/h (2 Bft) W-SW 250 0 min 0,000 mm 0,0 UV-I 12 W/m 5,3 C 7,3 C 9,7 km/h (2 Bft) 97,56 %
28.01.2018 16:36 7,4 C 3,9 C 87 % 1033,2 hPa 0,0 l/m 5,0 km/h (1 Bft) SW 236 0 min 0,000 mm 0,0 UV-I 12 W/m 5,4 C 7,4 C 6,4 km/h (2 Bft) 98,11 %
28.01.2018 16:38 7,4 C 3,9 C 87 % 1033,2 hPa 0,0 l/m 4,9 km/h (1 Bft) W-SW 246 0 min 0,000 mm 0,0 UV-I 12 W/m 5,4 C 7,4 C 8,0 km/h (2 Bft) 98,00 %
28.01.2018 16:40 7,4 C 3,9 C 87 % 1033,2 hPa 0,0 l/m 4,9 km/h (1 Bft) W-SW 254 0 min 0,000 mm 0,0 UV-I 12 W/m 5,4 C 7,4 C 6,4 km/h (2 Bft) 97,14 %
28.01.2018 16:42 7,3 C 3,9 C 87 % 1033,2 hPa 0,0 l/m 4,7 km/h (1 Bft) W 266 0 min 0,000 mm 0,0 UV-I 11 W/m 5,3 C 7,3 C 6,4 km/h (2 Bft) 98,25 %
28.01.2018 16:44 7,3 C 3,9 C 88 % 1033,2 hPa 0,0 l/m 3,7 km/h (1 Bft) W 266 2 min 0,000 mm 0,0 UV-I 11 W/m 5,4 C 7,3 C 4,8 km/h (1 Bft) 97,87 %
28.01.2018 16:46 7,3 C 3,9 C 87 % 1033,2 hPa 0,0 l/m 3,3 km/h (1 Bft) W 266 0 min 0,000 mm 0,0 UV-I 10 W/m 5,3 C 7,3 C 4,8 km/h (1 Bft) 97,37 %
28.01.2018 16:48 7,3 C 3,9 C 88 % 1033,2 hPa 0,0 l/m 3,7 km/h (1 Bft) W 266 0 min 0,000 mm 0,0 UV-I 8 W/m 5,4 C 7,3 C 4,8 km/h (1 Bft) 98,21 %
28.01.2018 16:50 7,3 C 3,9 C 87 % 1033,2 hPa 0,0 l/m 3,1 km/h (1 Bft) W 266 0 min 0,000 mm 0,0 UV-I 7 W/m 5,3 C 7,3 C 4,8 km/h (1 Bft) 100,00 %
28.01.2018 16:52 7,2 C 3,9 C 87 % 1033,2 hPa 0,0 l/m 2,5 km/h (1 Bft) W 266 0 min 0,000 mm 0,0 UV-I 7 W/m 5,2 C 7,2 C 4,8 km/h (1 Bft) 100,00 %
28.01.2018 16:54 7,3 C 3,9 C 87 % 1033,2 hPa 0,0 l/m 2,8 km/h (1 Bft) W 266 0 min 0,000 mm 0,0 UV-I 7 W/m 5,3 C 7,3 C 4,8 km/h (1 Bft) 100,00 %
28.01.2018 16:56 7,3 C 3,9 C 88 % 1033,2 hPa 0,0 l/m 1,8 km/h (1 Bft) W 266 0 min 0,000 mm 0,0 UV-I 7 W/m 5,4 C 7,3 C 3,2 km/h (1 Bft) 100,00 %
28.01.2018 16:58 7,3 C 3,9 C 88 % 1033,3 hPa 0,0 l/m 1,2 km/h (1 Bft) W 266 0 min 0,000 mm 0,0 UV-I 7 W/m 5,4 C 7,3 C 3,2 km/h (1 Bft) 97,87 %
28.01.2018 17:00 7,2 C 3,9 C 88 % 1033,3 hPa 0,0 l/m 1,6 km/h (1 Bft) W 266 0 min 0,026 mm 0,0 UV-I 6 W/m 5,3 C 7,2 C 3,2 km/h (1 Bft) 100,00 %
28.01.2018 17:02 7,2 C 3,9 C 88 % 1033,3 hPa 0,0 l/m 3,0 km/h (1 Bft) W 266 0 min 0,000 mm 0,0 UV-I 5 W/m 5,3 C 7,2 C 4,8 km/h (1 Bft) 100,00 %
28.01.2018 17:04 7,2 C 3,9 C 88 % 1033,3 hPa 0,0 l/m 2,7 km/h (1 Bft) W 266 0 min 0,000 mm 0,0 UV-I 5 W/m 5,3 C 7,2 C 4,8 km/h (1 Bft) 98,00 %
28.01.2018 17:06 7,2 C 3,9 C 88 % 1033,3 hPa 0,0 l/m 2,8 km/h (1 Bft) W 266 0 min 0,000 mm 0,0 UV-I 5 W/m 5,3 C 7,2 C 4,8 km/h (1 Bft) 100,00 %
28.01.2018 17:08 7,2 C 3,9 C 88 % 1033,3 hPa 0,0 l/m 3,0 km/h (1 Bft) W 266 0 min 0,000 mm 0,0 UV-I 5 W/m 5,3 C 7,2 C 4,8 km/h (1 Bft) 100,00 %
28.01.2018 17:10 7,2 C 3,9 C 88 % 1033,2 hPa 0,0 l/m 2,8 km/h (1 Bft) W 266 0 min 0,000 mm 0,0 UV-I 5 W/m 5,3 C 7,2 C 4,8 km/h (1 Bft) 100,00 %
28.01.2018 17:12 7,2 C 3,9 C 88 % 1033,2 hPa 0,0 l/m 2,7 km/h (1 Bft) W 266 0 min 0,000 mm 0,0 UV-I 1 W/m 5,3 C 7,2 C 4,8 km/h (1 Bft) 98,00 %
28.01.2018 17:14 7,2 C 3,9 C 88 % 1033,3 hPa 0,0 l/m 1,9 km/h (1 Bft) W 266 0 min 0,000 mm 0,0 UV-I 0 W/m 5,3 C 7,2 C 3,2 km/h (1 Bft) 100,00 %
28.01.2018 17:16 7,2 C 3,9 C 88 % 1033,3 hPa 0,0 l/m 0,3 km/h (0 Bft) W 266 0 min 0,000 mm 0,0 UV-I 0 W/m 5,3 C 7,2 C 1,6 km/h (1 Bft) 100,00 %
28.01.2018 17:18 7,2 C 3,9 C 88 % 1033,3 hPa 0,0 l/m 0,0 km/h (0 Bft) W 266 0 min 0,000 mm 0,0 UV-I 0 W/m 5,3 C 7,2 C 0,0 km/h (0 Bft) 100,00 %
28.01.2018 17:20 7,1 C 3,9 C 88 % 1033,3 hPa 0,0 l/m 1,9 km/h (1 Bft) W 266 0 min 0,000 mm 0,0 UV-I 0 W/m 5,2 C 7,1 C 3,2 km/h (1 Bft) 100,00 %
28.01.2018 17:22 7,0 C 3,9 C 88 % 1033,3 hPa 0,0 l/m 2,9 km/h (1 Bft) W 266 0 min 0,000 mm 0,0 UV-I 0 W/m 5,2 C 7,0 C 3,2 km/h (1 Bft) 100,00 %
28.01.2018 17:24 7,0 C 3,9 C 89 % 1033,3 hPa 0,0 l/m 2,6 km/h (1 Bft) W 266 0 min 0,000 mm 0,0 UV-I 0 W/m 5,3 C 7,0 C 3,2 km/h (1 Bft) 100,00 %
28.01.2018 17:26 7,0 C 3,9 C 89 % 1033,3 hPa 0,0 l/m 2,5 km/h (1 Bft) W 266 0 min 0,000 mm 0,0 UV-I 0 W/m 5,3 C 7,0 C 3,2 km/h (1 Bft) 100,00 %
28.01.2018 17:28 7,0 C 3,9 C 89 % 1033,3 hPa 0,0 l/m 4,0 km/h (1 Bft) W 266 0 min 0,000 mm 0,0 UV-I 0 W/m 5,3 C 7,0 C 6,4 km/h (2 Bft) 97,87 %
28.01.2018 17:30 7,0 C 3,9 C 89 % 1033,3 hPa 0,0 l/m 3,1 km/h (1 Bft) W 259 0 min 0,000 mm 0,0 UV-I 0 W/m 5,3 C 7,0 C 6,4 km/h (2 Bft) 100,00 %
28.01.2018 17:32 7,1 C 3,9 C 88 % 1033,4 hPa 0,0 l/m 4,1 km/h (1 Bft) W 259 0 min 0,000 mm 0,0 UV-I 0 W/m 5,2 C 7,1 C 4,8 km/h (1 Bft) 100,00 %
28.01.2018 17:34 7,1 C 3,9 C 88 % 1033,4 hPa 0,0 l/m 3,7 km/h (1 Bft) W 259 0 min 0,000 mm 0,0 UV-I 0 W/m 5,2 C 7,1 C 4,8 km/h (1 Bft) 98,18 %
28.01.2018 17:36 7,2 C 3,9 C 88 % 1033,4 hPa 0,0 l/m 4,3 km/h (1 Bft) W 267 0 min 0,000 mm 0,0 UV-I 0 W/m 5,3 C 7,2 C 6,4 km/h (2 Bft) 100,00 %
28.01.2018 17:38 7,2 C 3,9 C 88 % 1033,4 hPa 0,0 l/m 4,6 km/h (1 Bft) W 266 0 min 0,000 mm 0,0 UV-I 0 W/m 5,3 C 7,2 C 6,4 km/h (2 Bft) 100,00 %
28.01.2018 17:40 7,1 C 3,9 C 88 % 1033,4 hPa 0,0 l/m 3,6 km/h (1 Bft) W 267 0 min 0,000 mm 0,0 UV-I 0 W/m 5,2 C 7,1 C 9,7 km/h (2 Bft) 100,00 %
28.01.2018 17:42 7,1 C 3,9 C 89 % 1033,5 hPa 0,0 l/m 4,0 km/h (1 Bft) W-SW 244 0 min 0,000 mm 0,0 UV-I 0 W/m 5,4 C 7,1 C 8,0 km/h (2 Bft) 100,00 %
28.01.2018 17:44 7,1 C 3,9 C 89 % 1033,4 hPa 0,0 l/m 3,6 km/h (1 Bft) W-SW 258 0 min 0,000 mm 0,0 UV-I 0 W/m 5,4 C 7,1 C 6,4 km/h (2 Bft) 100,00 %
28.01.2018 17:46 7,1 C 3,9 C 89 % 1033,5 hPa 0,0 l/m 3,8 km/h (1 Bft) W 259 0 min 0,000 mm 0,0 UV-I 0 W/m 5,4 C 7,1 C 6,4 km/h (2 Bft) 100,00 %
28.01.2018 17:48 7,1 C 3,9 C 89 % 1033,5 hPa 0,0 l/m 5,3 km/h (1 Bft) W 271 0 min 0,000 mm 0,0 UV-I 0 W/m 5,4 C 7,1 C 6,4 km/h (2 Bft) 100,00 %
28.01.2018 17:50 7,1 C 3,9 C 89 % 1033,5 hPa 0,0 l/m 2,8 km/h (1 Bft) W 262 0 min 0,000 mm 0,0 UV-I 0 W/m 5,4 C 7,1 C 4,8 km/h (1 Bft) 100,00 %
28.01.2018 17:52 7,2 C 3,9 C 89 % 1033,6 hPa 0,0 l/m 3,0 km/h (1 Bft) NW 304 0 min 0,000 mm 0,0 UV-I 0 W/m 5,5 C 7,2 C 6,4 km/h (2 Bft) 100,00 %
28.01.2018 17:54 7,1 C 3,9 C 89 % 1033,6 hPa 0,0 l/m 3,2 km/h (1 Bft) W-NW 288 0 min 0,000 mm 0,0 UV-I 0 W/m 5,4 C 7,1 C 6,4 km/h (2 Bft) 100,00 %
28.01.2018 17:56 7,1 C 3,9 C 89 % 1033,6 hPa 0,0 l/m 4,1 km/h (1 Bft) W-NW 294 0 min 0,000 mm 0,0 UV-I 0 W/m 5,4 C 7,1 C 6,4 km/h (2 Bft) 100,00 %
28.01.2018 17:58 7,2 C 3,9 C 89 % 1033,6 hPa 0,0 l/m 2,7 km/h (1 Bft) W 275 0 min 0,000 mm 0,0 UV-I 0 W/m 5,5 C 7,2 C 6,4 km/h (2 Bft) 97,37 %
28.01.2018 18:00 7,1 C 3,9 C 89 % 1033,7 hPa 0,0 l/m 4,5 km/h (1 Bft) NW 304 0 min 0,000 mm 0,0 UV-I 0 W/m 5,4 C 7,1 C 9,7 km/h (2 Bft) 98,21 %
28.01.2018 18:02 7,2 C 3,9 C 89 % 1033,6 hPa 0,0 l/m 3,0 km/h (1 Bft) W-NW 289 0 min 0,000 mm 0,0 UV-I 0 W/m 5,5 C 7,2 C 6,4 km/h (2 Bft) 94,00 %
28.01.2018 18:04 7,2 C 3,9 C 89 % 1033,7 hPa 0,0 l/m 5,3 km/h (1 Bft) W-NW 292 0 min 0,000 mm 0,0 UV-I 0 W/m 5,5 C 7,2 C 11,3 km/h (2 Bft) 95,12 %
28.01.2018 18:06 7,3 C 3,9 C 89 % 1033,7 hPa 0,0 l/m 4,6 km/h (1 Bft) W 271 0 min 0,000 mm 0,0 UV-I 0 W/m 5,6 C 7,3 C 11,3 km/h (2 Bft) 95,74 %
28.01.2018 18:08 7,3 C 3,9 C 89 % 1033,6 hPa 0,0 l/m 5,7 km/h (1 Bft) W-SW 252 0 min 0,000 mm 0,0 UV-I 0 W/m 5,6 C 7,3 C 14,5 km/h (3 Bft) 96,00 %
28.01.2018 18:10 7,4 C 3,9 C 88 % 1033,7 hPa 0,0 l/m 3,9 km/h (1 Bft) W-SW 257 0 min 0,000 mm 0,0 UV-I 0 W/m 5,5 C 7,4 C 6,4 km/h (2 Bft) 97,87 %
28.01.2018 18:12 7,4 C 3,9 C 88 % 1033,6 hPa 0,0 l/m 6,1 km/h (2 Bft) W-SW 258 0 min 0,000 mm 0,0 UV-I 0 W/m 5,5 C 7,4 C 9,7 km/h (2 Bft) 98,00 %
28.01.2018 18:14 7,4 C 3,9 C 88 % 1033,6 hPa 0,0 l/m 9,5 km/h (2 Bft) W 270 0 min 0,000 mm 0,0 UV-I 0 W/m 5,5 C 5,1 C 19,3 km/h (3 Bft) 97,44 %
28.01.2018 18:16 7,5 C 3,9 C 87 % 1033,7 hPa 0,0 l/m 4,5 km/h (1 Bft) W 274 0 min 0,000 mm 0,0 UV-I 0 W/m 5,5 C 7,5 C 11,3 km/h (2 Bft) 96,00 %
28.01.2018 18:18 7,5 C 3,9 C 87 % 1033,7 hPa 0,0 l/m 7,3 km/h (2 Bft) W 278 0 min 0,000 mm 0,0 UV-I 0 W/m 5,5 C 6,8 C 12,9 km/h (3 Bft) 96,00 %
28.01.2018 18:20 7,5 C 3,9 C 87 % 1033,7 hPa 0,0 l/m 5,0 km/h (1 Bft) W 261 0 min 0,000 mm 0,0 UV-I 0 W/m 5,5 C 7,5 C 12,9 km/h (3 Bft) 98,00 %
28.01.2018 18:22 7,5 C 3,9 C 87 % 1033,7 hPa 0,0 l/m 6,5 km/h (2 Bft) W 281 0 min 0,000 mm 0,0 UV-I 0 W/m 5,5 C 7,4 C 12,9 km/h (3 Bft) 97,37 %
28.01.2018 18:24 7,5 C 3,9 C 87 % 1033,7 hPa 0,0 l/m 5,1 km/h (1 Bft) W-NW 286 0 min 0,000 mm 0,0 UV-I 0 W/m 5,5 C 7,5 C 11,3 km/h (2 Bft) 98,00 %
28.01.2018 18:26 7,5 C 3,9 C 87 % 1033,7 hPa 0,0 l/m 5,3 km/h (1 Bft) W 269 0 min 0,000 mm 0,0 UV-I 0 W/m 5,5 C 7,5 C 14,5 km/h (3 Bft) 97,56 %
28.01.2018 18:28 7,6 C 3,9 C 86 % 1033,8 hPa 0,0 l/m 7,4 km/h (2 Bft) W 279 0 min 0,000 mm 0,0 UV-I 0 W/m 5,4 C 6,8 C 11,3 km/h (2 Bft) 95,12 %
28.01.2018 18:30 7,6 C 3,9 C 86 % 1033,7 hPa 0,0 l/m 6,3 km/h (2 Bft) W-SW 258 0 min 0,000 mm 0,0 UV-I 0 W/m 5,4 C 7,6 C 11,3 km/h (2 Bft) 98,25 %
28.01.2018 18:32 7,6 C 3,9 C 86 % 1033,7 hPa 0,0 l/m 5,3 km/h (1 Bft) W 265 0 min 0,000 mm 0,0 UV-I 0 W/m 5,4 C 7,6 C 11,3 km/h (2 Bft) 98,00 %
28.01.2018 18:34 7,6 C 3,9 C 86 % 1033,7 hPa 0,0 l/m 5,5 km/h (1 Bft) W 269 0 min 0,000 mm 0,0 UV-I 0 W/m 5,4 C 7,6 C 11,3 km/h (2 Bft) 98,00 %
28.01.2018 18:36 7,6 C 3,9 C 86 % 1033,7 hPa 0,0 l/m 7,2 km/h (2 Bft) W-SW 258 0 min 0,000 mm 0,0 UV-I 0 W/m 5,4 C 7,0 C 12,9 km/h (3 Bft) 100,00 %
28.01.2018 18:38 7,6 C 3,9 C 86 % 1033,7 hPa 0,0 l/m 5,3 km/h (1 Bft) W 281 0 min 0,000 mm 0,0 UV-I 0 W/m 5,4 C 7,6 C 9,7 km/h (2 Bft) 100,00 %
28.01.2018 18:40 7,6 C 3,9 C 86 % 1033,8 hPa 0,0 l/m 6,9 km/h (2 Bft) W 261 0 min 0,000 mm 0,0 UV-I 0 W/m 5,4 C 7,2 C 11,3 km/h (2 Bft) 100,00 %
28.01.2018 18:42 7,6 C 3,9 C 86 % 1033,8 hPa 0,0 l/m 7,6 km/h (2 Bft) W 278 0 min 0,000 mm 0,0 UV-I 0 W/m 5,4 C 6,6 C 14,5 km/h (3 Bft) 97,87 %
28.01.2018 18:44 7,7 C 3,9 C 85 % 1033,7 hPa 0,0 l/m 7,9 km/h (2 Bft) W-NW 291 0 min 0,000 mm 0,0 UV-I 0 W/m 5,3 C 6,5 C 12,9 km/h (3 Bft) 100,00 %
28.01.2018 18:46 7,7 C 3,9 C 85 % 1033,7 hPa 0,0 l/m 5,4 km/h (1 Bft) W 269 0 min 0,000 mm 0,0 UV-I 0 W/m 5,3 C 7,7 C 9,7 km/h (2 Bft) 98,00 %
28.01.2018 18:48 7,6 C 3,9 C 86 % 1033,8 hPa 0,0 l/m 5,0 km/h (1 Bft) W 263 0 min 0,000 mm 0,0 UV-I 0 W/m 5,4 C 7,6 C 6,4 km/h (2 Bft) 100,00 %
28.01.2018 18:50 7,6 C 3,9 C 86 % 1033,8 hPa 0,0 l/m 4,3 km/h (1 Bft) W 267 0 min 0,000 mm 0,0 UV-I 0 W/m 5,4 C 7,6 C 6,4 km/h (2 Bft) 100,00 %
28.01.2018 18:52 7,6 C 3,9 C 86 % 1033,8 hPa 0,0 l/m 5,2 km/h (1 Bft) W 280 0 min 0,000 mm 0,0 UV-I 0 W/m 5,4 C 7,6 C 9,7 km/h (2 Bft) 100,00 %
28.01.2018 18:54 7,6 C 3,9 C 85 % 1033,8 hPa 0,0 l/m 4,6 km/h (1 Bft) W 271 0 min 0,000 mm 0,0 UV-I 0 W/m 5,2 C 7,6 C 9,7 km/h (2 Bft) 100,00 %
28.01.2018 18:56 7,6 C 3,9 C 85 % 1033,8 hPa 0,0 l/m 4,2 km/h (1 Bft) W 263 0 min 0,000 mm 0,0 UV-I 0 W/m 5,2 C 7,6 C 6,4 km/h (2 Bft) 97,87 %
28.01.2018 18:58 7,6 C 3,9 C 85 % 1033,8 hPa 0,0 l/m 4,0 km/h (1 Bft) W 268 0 min 0,000 mm 0,0 UV-I 0 W/m 5,2 C 7,6 C 6,4 km/h (2 Bft) 100,00 %
28.01.2018 19:00 7,7 C 3,9 C 85 % 1033,8 hPa 0,0 l/m 5,2 km/h (1 Bft) W-SW 255 0 min 0,000 mm 0,0 UV-I 0 W/m 5,3 C 7,7 C 9,7 km/h (2 Bft) 100,00 %
28.01.2018 19:02 7,7 C 3,9 C 85 % 1033,8 hPa 0,0 l/m 5,7 km/h (1 Bft) W-SW 258 0 min 0,000 mm 0,0 UV-I 0 W/m 5,3 C 7,7 C 9,7 km/h (2 Bft) 98,15 %
28.01.2018 19:04 7,6 C 3,9 C 85 % 1033,8 hPa 0,0 l/m 4,4 km/h (1 Bft) W 271 0 min 0,000 mm 0,0 UV-I 0 W/m 5,2 C 7,6 C 9,7 km/h (2 Bft) 97,73 %
28.01.2018 19:06 7,6 C 3,9 C 85 % 1033,8 hPa 0,0 l/m 4,0 km/h (1 Bft) W-NW 289 0 min 0,000 mm 0,0 UV-I 0 W/m 5,2 C 7,6 C 6,4 km/h (2 Bft) 100,00 %
28.01.2018 19:08 7,6 C 3,9 C 85 % 1033,8 hPa 0,0 l/m 4,3 km/h (1 Bft) W-SW 252 0 min 0,000 mm 0,0 UV-I 0 W/m 5,2 C 7,6 C 6,4 km/h (2 Bft) 100,00 %
28.01.2018 19:10 7,6 C 3,9 C 85 % 1033,8 hPa 0,0 l/m 4,5 km/h (1 Bft) W-SW 252 0 min 0,000 mm 0,0 UV-I 0 W/m 5,2 C 7,6 C 6,4 km/h (2 Bft) 100,00 %
28.01.2018 19:12 7,6 C 3,9 C 85 % 1033,8 hPa 0,0 l/m 5,8 km/h (2 Bft) SW 230 0 min 0,000 mm 0,0 UV-I 0 W/m 5,2 C 7,6 C 11,3 km/h (2 Bft) 100,00 %
28.01.2018 19:14 7,7 C 3,9 C 85 % 1033,8 hPa 0,0 l/m 4,4 km/h (1 Bft) SW 223 0 min 0,000 mm 0,0 UV-I 0 W/m 5,3 C 7,7 C 6,4 km/h (2 Bft) 100,00 %
28.01.2018 19:16 7,6 C 3,9 C 85 % 1033,9 hPa 0,0 l/m 4,7 km/h (1 Bft) SW 229 0 min 0,000 mm 0,0 UV-I 0 W/m 5,2 C 7,6 C 8,0 km/h (2 Bft) 100,00 %
28.01.2018 19:18 7,6 C 3,9 C 85 % 1033,8 hPa 0,0 l/m 3,6 km/h (1 Bft) SW 229 0 min 0,000 mm 0,0 UV-I 0 W/m 5,2 C 7,6 C 4,8 km/h (1 Bft) 98,11 %
28.01.2018 19:20 7,6 C 3,9 C 85 % 1033,8 hPa 0,0 l/m 2,2 km/h (1 Bft) SW 229 0 min 0,000 mm 0,0 UV-I 0 W/m 5,2 C 7,6 C 4,8 km/h (1 Bft) 100,00 %
28.01.2018 19:22 7,5 C 3,9 C 85 % 1033,8 hPa 0,0 l/m 2,5 km/h (1 Bft) S-SW 205 0 min 0,000 mm 0,0 UV-I 0 W/m 5,1 C 7,5 C 4,8 km/h (1 Bft) 100,00 %
28.01.2018 19:24 7,5 C 3,9 C 85 % 1033,7 hPa 0,0 l/m 4,1 km/h (1 Bft) S 178 0 min 0,000 mm 0,0 UV-I 0 W/m 5,1 C 7,5 C 6,4 km/h (2 Bft) 97,87 %
28.01.2018 19:26 7,4 C 3,9 C 85 % 1033,8 hPa 0,0 l/m 3,6 km/h (1 Bft) S 190 0 min 0,000 mm 0,0 UV-I 0 W/m 5,0 C 7,4 C 6,4 km/h (2 Bft) 100,00 %
28.01.2018 19:28 7,5 C 3,9 C 85 % 1033,8 hPa 0,0 l/m 2,2 km/h (1 Bft) S 190 0 min 0,000 mm 0,0 UV-I 0 W/m 5,1 C 7,5 C 3,2 km/h (1 Bft) 100,00 %
28.01.2018 19:30 7,5 C 3,9 C 85 % 1033,8 hPa 0,0 l/m 2,6 km/h (1 Bft) S 188 0 min 0,000 mm 0,0 UV-I 0 W/m 5,1 C 7,5 C 4,8 km/h (1 Bft) 97,44 %
28.01.2018 19:32 7,5 C 3,9 C 85 % 1033,8 hPa 0,0 l/m 1,7 km/h (1 Bft) S 188 0 min 0,000 mm 0,0 UV-I 0 W/m 5,1 C 7,5 C 3,2 km/h (1 Bft) 100,00 %
28.01.2018 19:34 7,4 C 3,9 C 85 % 1033,8 hPa 0,0 l/m 1,6 km/h (1 Bft) S 188 0 min 0,000 mm 0,0 UV-I 0 W/m 5,0 C 7,4 C 3,2 km/h (1 Bft) 100,00 %
28.01.2018 19:36 7,4 C 3,9 C 85 % 1033,8 hPa 0,0 l/m 1,1 km/h (1 Bft) S 188 0 min 0,000 mm 0,0 UV-I 0 W/m 5,0 C 7,4 C 3,2 km/h (1 Bft) 95,74 %
28.01.2018 19:38 7,5 C 3,9 C 83 % 1033,8 hPa 0,0 l/m 2,2 km/h (1 Bft) S 183 0 min 0,000 mm 0,0 UV-I 0 W/m 4,8 C 7,5 C 4,8 km/h (1 Bft) 100,00 %
28.01.2018 19:40 7,7 C 3,9 C 82 % 1033,7 hPa 0,0 l/m 2,9 km/h (1 Bft) S 183 0 min 0,000 mm 0,0 UV-I 0 W/m 4,8 C 7,7 C 4,8 km/h (1 Bft) 97,56 %
28.01.2018 19:42 7,7 C 3,9 C 81 % 1033,7 hPa 0,0 l/m 2,0 km/h (1 Bft) S 181 0 min 0,000 mm 0,0 UV-I 0 W/m 4,7 C 7,7 C 3,2 km/h (1 Bft) 97,87 %
28.01.2018 19:44 7,8 C 3,9 C 80 % 1033,7 hPa 0,0 l/m 0,7 km/h (0 Bft) S 181 0 min 0,000 mm 0,0 UV-I 0 W/m 4,6 C 7,8 C 3,2 km/h (1 Bft) 100,00 %
28.01.2018 19:46 7,8 C 3,9 C 81 % 1033,7 hPa 0,0 l/m 1,6 km/h (1 Bft) S 181 0 min 0,000 mm 0,0 UV-I 0 W/m 4,7 C 7,8 C 3,2 km/h (1 Bft) 100,00 %
28.01.2018 19:48 7,7 C 3,9 C 81 % 1033,7 hPa 0,0 l/m 2,4 km/h (1 Bft) S 181 0 min 0,000 mm 0,0 UV-I 0 W/m 4,7 C 7,7 C 3,2 km/h (1 Bft) 97,87 %
28.01.2018 19:50 7,8 C 3,9 C 81 % 1033,7 hPa 0,0 l/m 2,3 km/h (1 Bft) S 181 0 min 0,000 mm 0,0 UV-I 0 W/m 4,7 C 7,8 C 4,8 km/h (1 Bft) 100,00 %
28.01.2018 19:52 7,7 C 3,9 C 81 % 1033,7 hPa 0,0 l/m 1,4 km/h (1 Bft) S 181 0 min 0,000 mm 0,0 UV-I 0 W/m 4,7 C 7,7 C 3,2 km/h (1 Bft) 100,00 %
28.01.2018 19:54 7,7 C 3,9 C 81 % 1033,7 hPa 0,0 l/m 0,7 km/h (0 Bft) S 181 0 min 0,000 mm 0,0 UV-I 0 W/m 4,7 C 7,7 C 1,6 km/h (1 Bft) 100,00 %
28.01.2018 19:56 7,7 C 3,9 C 80 % 1033,7 hPa 0,0 l/m 0,4 km/h (0 Bft) S 181 0 min 0,000 mm 0,0 UV-I 0 W/m 4,5 C 7,7 C 1,6 km/h (1 Bft) 98,00 %
28.01.2018 19:58 7,7 C 3,9 C 81 % 1033,7 hPa 0,0 l/m 1,5 km/h (1 Bft) S 181 0 min 0,000 mm 0,0 UV-I 0 W/m 4,7 C 7,7 C 3,2 km/h (1 Bft) 100,00 %
28.01.2018 20:00 7,8 C 3,9 C 79 % 1033,8 hPa 0,0 l/m 2,1 km/h (1 Bft) S 181 0 min 0,000 mm 0,0 UV-I 0 W/m 4,4 C 7,8 C 3,2 km/h (1 Bft) 100,00 %
28.01.2018 20:02 7,8 C 3,9 C 79 % 1033,8 hPa 0,0 l/m 0,9 km/h (0 Bft) S 181 0 min 0,000 mm 0,0 UV-I 0 W/m 4,4 C 7,8 C 3,2 km/h (1 Bft) 100,00 %
28.01.2018 20:04 7,8 C 3,9 C 79 % 1033,8 hPa 0,0 l/m 0,0 km/h (0 Bft) S 181 0 min 0,000 mm 0,0 UV-I 0 W/m 4,4 C 7,8 C 1,6 km/h (1 Bft) 97,87 %
28.01.2018 20:06 7,7 C 3,9 C 80 % 1033,8 hPa 0,0 l/m 0,2 km/h (0 Bft) S 181 0 min 0,000 mm 0,0 UV-I 0 W/m 4,5 C 7,7 C 1,6 km/h (1 Bft) 91,49 %
28.01.2018 20:08 7,7 C 3,9 C 80 % 1033,8 hPa 0,0 l/m 1,3 km/h (1 Bft) S 181 0 min 0,000 mm 0,0 UV-I 0 W/m 4,5 C 7,7 C 1,6 km/h (1 Bft) 96,23 %
28.01.2018 20:10 7,7 C 3,9 C 80 % 1033,9 hPa 0,0 l/m 2,8 km/h (1 Bft) W 266 0 min 0,000 mm 0,0 UV-I 0 W/m 4,5 C 7,7 C 4,8 km/h (1 Bft) 95,74 %
28.01.2018 20:12 7,8 C 3,9 C 79 % 1033,8 hPa 0,0 l/m 4,0 km/h (1 Bft) SW 217 0 min 0,000 mm 0,0 UV-I 0 W/m 4,4 C 7,8 C 6,4 km/h (2 Bft) 94,87 %
28.01.2018 20:14 7,9 C 3,9 C 79 % 1033,8 hPa 0,0 l/m 3,8 km/h (1 Bft) W-SW 257 0 min 0,000 mm 0,0 UV-I 0 W/m 4,5 C 7,9 C 4,8 km/h (1 Bft) 96,23 %
28.01.2018 20:16 7,9 C 3,9 C 78 % 1033,8 hPa 0,0 l/m 4,3 km/h (1 Bft) W 269 0 min 0,000 mm 0,0 UV-I 0 W/m 4,3 C 7,9 C 6,4 km/h (2 Bft) 93,62 %
28.01.2018 20:18 7,9 C 3,9 C 78 % 1033,8 hPa 0,0 l/m 3,1 km/h (1 Bft) W 267 0 min 0,000 mm 0,0 UV-I 0 W/m 4,3 C 7,9 C 4,8 km/h (1 Bft) 95,74 %
28.01.2018 20:20 7,9 C 3,9 C 78 % 1033,8 hPa 0,0 l/m 4,5 km/h (1 Bft) W 265 0 min 0,000 mm 0,0 UV-I 0 W/m 4,3 C 7,9 C 11,3 km/h (2 Bft) 95,12 %
28.01.2018 20:22 7,9 C 3,9 C 78 % 1033,8 hPa 0,0 l/m 4,5 km/h (1 Bft) W 259 0 min 0,000 mm 0,0 UV-I 0 W/m 4,3 C 7,9 C 6,4 km/h (2 Bft) 92,00 %
28.01.2018 20:24 7,9 C 3,9 C 78 % 1033,9 hPa 0,0 l/m 5,0 km/h (1 Bft) W-SW 251 0 min 0,000 mm 0,0 UV-I 0 W/m 4,3 C 7,9 C 6,4 km/h (2 Bft) 97,73 %
28.01.2018 20:26 7,9 C 3,9 C 78 % 1033,8 hPa 0,0 l/m 4,8 km/h (1 Bft) W-SW 255 0 min 0,000 mm 0,0 UV-I 0 W/m 4,3 C 7,9 C 6,4 km/h (2 Bft) 96,00 %
28.01.2018 20:28 7,9 C 3,9 C 78 % 1033,7 hPa 0,0 l/m 4,1 km/h (1 Bft) W-SW 254 0 min 0,000 mm 0,0 UV-I 0 W/m 4,3 C 7,9 C 6,4 km/h (2 Bft) 94,00 %
28.01.2018 20:30 7,9 C 3,9 C 78 % 1033,7 hPa 0,0 l/m 6,0 km/h (2 Bft) W 262 0 min 0,000 mm 0,0 UV-I 0 W/m 4,3 C 7,9 C 11,3 km/h (2 Bft) 96,00 %
28.01.2018 20:32 7,9 C 3,9 C 78 % 1033,6 hPa 0,0 l/m 6,7 km/h (2 Bft) W-SW 246 0 min 0,000 mm 0,0 UV-I 0 W/m 4,3 C 7,7 C 11,3 km/h (2 Bft) 92,31 %
28.01.2018 20:34 8,0 C 3,9 C 77 % 1033,6 hPa 0,0 l/m 7,4 km/h (2 Bft) W-SW 251 0 min 0,000 mm 0,0 UV-I 0 W/m 4,2 C 7,2 C 11,3 km/h (2 Bft) 97,06 %
28.01.2018 20:36 8,1 C 3,9 C 77 % 1033,7 hPa 0,0 l/m 8,0 km/h (2 Bft) W 265 0 min 0,000 mm 0,0 UV-I 0 W/m 4,3 C 6,9 C 14,5 km/h (3 Bft) 95,12 %
28.01.2018 20:38 8,2 C 3,9 C 77 % 1033,7 hPa 0,0 l/m 6,1 km/h (2 Bft) SW 236 0 min 0,000 mm 0,0 UV-I 0 W/m 4,4 C 8,2 C 11,3 km/h (2 Bft) 95,45 %
28.01.2018 20:40 8,2 C 3,9 C 77 % 1033,7 hPa 0,0 l/m 6,3 km/h (2 Bft) W-SW 245 0 min 0,000 mm 0,0 UV-I 0 W/m 4,4 C 8,2 C 9,7 km/h (2 Bft) 96,00 %
28.01.2018 20:42 8,2 C 3,9 C 76 % 1033,7 hPa 0,0 l/m 7,5 km/h (2 Bft) W-SW 241 0 min 0,000 mm 0,0 UV-I 0 W/m 4,2 C 7,3 C 12,9 km/h (3 Bft) 95,74 %
28.01.2018 20:44 8,3 C 3,9 C 76 % 1033,6 hPa 0,0 l/m 7,2 km/h (2 Bft) W-SW 249 0 min 0,000 mm 0,0 UV-I 0 W/m 4,3 C 7,7 C 11,3 km/h (2 Bft) 95,74 %
28.01.2018 20:46 8,3 C 3,9 C 76 % 1033,7 hPa 0,0 l/m 10,8 km/h (2 Bft) W-SW 248 0 min 0,000 mm 0,0 UV-I 0 W/m 4,3 C 5,2 C 14,5 km/h (3 Bft) 96,00 %
28.01.2018 20:48 8,4 C 3,9 C 76 % 1033,7 hPa 0,0 l/m 10,9 km/h (2 Bft) W-SW 254 0 min 0,000 mm 0,0 UV-I 0 W/m 4,4 C 5,3 C 14,5 km/h (3 Bft) 97,87 %
28.01.2018 20:50 8,4 C 3,9 C 76 % 1033,7 hPa 0,0 l/m 10,5 km/h (2 Bft) W 270 0 min 0,000 mm 0,0 UV-I 0 W/m 4,4 C 5,5 C 14,5 km/h (3 Bft) 97,62 %
28.01.2018 20:52 8,5 C 3,9 C 76 % 1033,7 hPa 0,0 l/m 12,3 km/h (3 Bft) W-SW 250 0 min 0,000 mm 0,0 UV-I 0 W/m 4,5 C 4,6 C 17,7 km/h (3 Bft) 98,00 %
28.01.2018 20:54 8,6 C 3,9 C 75 % 1033,7 hPa 0,0 l/m 11,9 km/h (2 Bft) W-SW 245 0 min 0,000 mm 0,0 UV-I 0 W/m 4,4 C 5,0 C 20,9 km/h (4 Bft) 96,00 %
28.01.2018 20:56 8,7 C 3,9 C 75 % 1033,7 hPa 0,0 l/m 10,1 km/h (2 Bft) W 263 0 min 0,000 mm 0,0 UV-I 0 W/m 4,5 C 6,1 C 14,5 km/h (3 Bft) 95,74 %
28.01.2018 20:58 8,7 C 3,9 C 76 % 1033,7 hPa 0,0 l/m 12,4 km/h (3 Bft) W-SW 258 0 min 0,000 mm 0,0 UV-I 0 W/m 4,7 C 4,8 C 16,1 km/h (3 Bft) 95,74 %
28.01.2018 21:00 8,7 C 3,9 C 75 % 1033,7 hPa 0,0 l/m 11,5 km/h (2 Bft) W-SW 249 0 min 0,000 mm 0,0 UV-I 0 W/m 4,5 C 5,3 C 17,7 km/h (3 Bft) 91,43 %
28.01.2018 21:02 8,8 C 3,9 C 75 % 1033,7 hPa 0,0 l/m 14,6 km/h (3 Bft) W 276 0 min 0,025 mm 0,0 UV-I 0 W/m 4,6 C 3,9 C 19,3 km/h (3 Bft) 98,00 %
28.01.2018 21:04 8,8 C 3,9 C 75 % 1033,6 hPa 0,0 l/m 15,5 km/h (3 Bft) W 270 0 min 0,000 mm 0,0 UV-I 0 W/m 4,6 C 3,5 C 19,3 km/h (3 Bft) 97,87 %
28.01.2018 21:06 8,9 C 3,9 C 75 % 1033,7 hPa 0,0 l/m 12,8 km/h (3 Bft) W-SW 251 0 min 0,000 mm 0,0 UV-I 0 W/m 4,7 C 4,8 C 19,3 km/h (3 Bft) 96,23 %
28.01.2018 21:08 8,9 C 3,9 C 75 % 1033,6 hPa 0,0 l/m 12,1 km/h (2 Bft) W-SW 251 0 min 0,000 mm 0,0 UV-I 0 W/m 4,7 C 5,2 C 17,7 km/h (3 Bft) 100,00 %
28.01.2018 21:10 8,9 C 3,9 C 75 % 1033,6 hPa 0,0 l/m 10,7 km/h (2 Bft) W-SW 245 0 min 0,000 mm 0,0 UV-I 0 W/m 4,7 C 6,0 C 17,7 km/h (3 Bft) 97,06 %
28.01.2018 21:12 9,0 C 3,9 C 75 % 1033,6 hPa 0,0 l/m 16,0 km/h (3 Bft) W 265 0 min 0,000 mm 0,0 UV-I 0 W/m 4,8 C 3,5 C 22,5 km/h (4 Bft) 97,56 %
28.01.2018 21:14 9,1 C 3,9 C 75 % 1033,6 hPa 0,0 l/m 16,7 km/h (3 Bft) W 268 0 min 0,000 mm 0,0 UV-I 0 W/m 4,9 C 3,3 C 29,0 km/h (5 Bft) 97,87 %
28.01.2018 21:16 9,1 C 3,9 C 74 % 1033,6 hPa 0,0 l/m 12,9 km/h (3 Bft) W-SW 247 0 min 0,000 mm 0,0 UV-I 0 W/m 4,7 C 5,0 C 19,3 km/h (3 Bft) 97,87 %
28.01.2018 21:18 9,1 C 3,9 C 75 % 1033,6 hPa 0,0 l/m 12,1 km/h (2 Bft) W 261 0 min 0,000 mm 0,0 UV-I 0 W/m 4,9 C 5,4 C 20,9 km/h (4 Bft) 95,74 %
28.01.2018 21:20 9,2 C 3,9 C 74 % 1033,5 hPa 0,0 l/m 16,8 km/h (3 Bft) W 264 0 min 0,000 mm 0,0 UV-I 0 W/m 4,8 C 3,4 C 22,5 km/h (4 Bft) 98,00 %
28.01.2018 21:22 9,2 C 3,9 C 74 % 1033,6 hPa 0,0 l/m 13,6 km/h (3 Bft) SW 225 0 min 0,000 mm 0,0 UV-I 0 W/m 4,8 C 4,8 C 19,3 km/h (3 Bft) 95,12 %
28.01.2018 21:24 9,2 C 3,9 C 74 % 1033,6 hPa 0,0 l/m 15,1 km/h (3 Bft) SW 230 0 min 0,000 mm 0,0 UV-I 0 W/m 4,8 C 4,1 C 20,9 km/h (4 Bft) 98,11 %
28.01.2018 21:26 9,2 C 3,9 C 74 % 1033,6 hPa 0,0 l/m 15,6 km/h (3 Bft) W 263 0 min 0,000 mm 0,0 UV-I 0 W/m 4,8 C 3,9 C 20,9 km/h (4 Bft) 97,44 %
28.01.2018 21:28 9,2 C 3,9 C 74 % 1033,6 hPa 0,0 l/m 9,4 km/h (2 Bft) SW 227 0 min 0,000 mm 0,0 UV-I 0 W/m 4,8 C 7,1 C 14,5 km/h (3 Bft) 96,23 %
28.01.2018 21:30 9,1 C 3,9 C 74 % 1033,6 hPa 0,0 l/m 9,9 km/h (2 Bft) W-SW 254 0 min 0,000 mm 0,0 UV-I 0 W/m 4,7 C 6,7 C 14,5 km/h (3 Bft) 95,74 %
28.01.2018 21:32 9,1 C 3,9 C 74 % 1033,6 hPa 0,0 l/m 9,8 km/h (2 Bft) W-SW 249 0 min 0,000 mm 0,0 UV-I 0 W/m 4,7 C 6,7 C 14,5 km/h (3 Bft) 95,74 %
28.01.2018 21:34 9,0 C 3,9 C 75 % 1033,5 hPa 0,0 l/m 8,1 km/h (2 Bft) W-SW 244 0 min 0,000 mm 0,0 UV-I 0 W/m 4,8 C 7,7 C 11,3 km/h (2 Bft) 97,56 %
28.01.2018 21:36 9,0 C 3,9 C 75 % 1033,5 hPa 0,0 l/m 8,9 km/h (2 Bft) W-SW 251 0 min 0,000 mm 0,0 UV-I 0 W/m 4,8 C 7,2 C 14,5 km/h (3 Bft) 97,73 %
28.01.2018 21:38 9,0 C 3,9 C 75 % 1033,6 hPa 0,0 l/m 11,7 km/h (2 Bft) W-SW 245 0 min 0,000 mm 0,0 UV-I 0 W/m 4,8 C 5,5 C 19,3 km/h (3 Bft) 98,31 %
28.01.2018 21:40 9,1 C 3,9 C 75 % 1033,5 hPa 0,0 l/m 12,7 km/h (3 Bft) W-SW 244 0 min 0,000 mm 0,0 UV-I 0 W/m 4,9 C 5,1 C 17,7 km/h (3 Bft) 100,00 %
28.01.2018 21:42 9,1 C 3,9 C 75 % 1033,5 hPa 0,0 l/m 13,6 km/h (3 Bft) W-SW 257 0 min 0,000 mm 0,0 UV-I 0 W/m 4,9 C 4,7 C 20,9 km/h (4 Bft) 100,00 %
28.01.2018 21:44 9,2 C 3,9 C 75 % 1033,6 hPa 0,0 l/m 15,2 km/h (3 Bft) W-SW 254 0 min 0,000 mm 0,0 UV-I 0 W/m 5,0 C 4,1 C 20,9 km/h (4 Bft) 100,00 %
28.01.2018 21:46 9,2 C 3,9 C 75 % 1033,6 hPa 0,0 l/m 13,0 km/h (3 Bft) W 260 0 min 0,000 mm 0,0 UV-I 0 W/m 5,0 C 5,1 C 19,3 km/h (3 Bft) 95,12 %
28.01.2018 21:48 9,2 C 3,9 C 75 % 1033,6 hPa 0,0 l/m 15,3 km/h (3 Bft) W-SW 241 0 min 0,000 mm 0,0 UV-I 0 W/m 5,0 C 4,0 C 20,9 km/h (4 Bft) 100,00 %
28.01.2018 21:50 9,3 C 3,9 C 75 % 1033,6 hPa 0,0 l/m 14,3 km/h (3 Bft) SW 232 0 min 0,000 mm 0,0 UV-I 0 W/m 5,1 C 4,6 C 20,9 km/h (4 Bft) 100,00 %
28.01.2018 21:52 9,3 C 3,9 C 75 % 1033,6 hPa 0,0 l/m 14,7 km/h (3 Bft) W 265 0 min 0,000 mm 0,0 UV-I 0 W/m 5,1 C 4,4 C 20,9 km/h (4 Bft) 98,00 %
28.01.2018 21:54 9,3 C 3,9 C 75 % 1033,6 hPa 0,0 l/m 15,4 km/h (3 Bft) SW 233 0 min 0,000 mm 0,0 UV-I 0 W/m 5,1 C 4,1 C 22,5 km/h (4 Bft) 100,00 %
28.01.2018 21:56 9,3 C 3,9 C 75 % 1033,6 hPa 0,0 l/m 17,2 km/h (3 Bft) W 259 0 min 0,000 mm 0,0 UV-I 0 W/m 5,1 C 3,4 C 29,0 km/h (5 Bft) 100,00 %
28.01.2018 22:00 9,4 C 3,9 C 75 % 1033,6 hPa 0,0 l/m 12,9 km/h (3 Bft) W 270 0 min 0,051 mm 0,0 UV-I 0 W/m 5,2 C 5,4 C 29,0 km/h (5 Bft) 100,00 %
28.01.2018 22:04 9,3 C 3,9 C 76 % 1033,6 hPa 0,0 l/m 6,2 km/h (2 Bft) W-SW 244 0 min 0,000 mm 0,0 UV-I 0 W/m 5,3 C 9,3 C 8,0 km/h (2 Bft) 99,46 %
28.01.2018 22:06 9,3 C 3,9 C 76 % 1033,5 hPa 0,0 l/m 11,8 km/h (2 Bft) W 259 0 min 0,000 mm 0,0 UV-I 0 W/m 5,3 C 5,8 C 20,9 km/h (4 Bft) 100,00 %
28.01.2018 22:08 9,3 C 3,9 C 76 % 1033,6 hPa 0,0 l/m 7,4 km/h (2 Bft) W-SW 244 0 min 0,000 mm 0,0 UV-I 0 W/m 5,3 C 8,6 C 11,3 km/h (2 Bft) 100,00 %
28.01.2018 22:10 9,2 C 3,9 C 76 % 1033,5 hPa 0,0 l/m 7,6 km/h (2 Bft) W-SW 247 0 min 0,000 mm 0,0 UV-I 0 W/m 5,2 C 8,3 C 12,9 km/h (3 Bft) 97,87 %
28.01.2018 22:12 9,2 C 3,9 C 77 % 1033,6 hPa 0,0 l/m 7,5 km/h (2 Bft) W-SW 257 0 min 0,000 mm 0,0 UV-I 0 W/m 5,4 C 8,4 C 11,3 km/h (2 Bft) 97,87 %
28.01.2018 22:15 9,1 C 3,9 C 77 % 1033,5 hPa 0,0 l/m 11,2 km/h (2 Bft) W-SW 244 0 min 0,000 mm 0,0 UV-I 0 W/m 5,3 C 5,9 C 16,1 km/h (3 Bft) 97,18 %
28.01.2018 22:16 9,2 C 3,9 C 77 % 1033,5 hPa 0,0 l/m 8,9 km/h (2 Bft) W 260 0 min 0,000 mm 0,0 UV-I 0 W/m 5,4 C 7,4 C 12,9 km/h (3 Bft) 100,00 %
28.01.2018 22:18 9,1 C 3,9 C 77 % 1033,5 hPa 0,0 l/m 9,2 km/h (2 Bft) SW 227 0 min 0,000 mm 0,0 UV-I 0 W/m 5,3 C 7,1 C 14,5 km/h (3 Bft) 97,87 %
28.01.2018 22:20 9,1 C 3,9 C 77 % 1033,5 hPa 0,0 l/m 9,7 km/h (2 Bft) W-SW 247 0 min 0,000 mm 0,0 UV-I 0 W/m 5,3 C 6,8 C 17,7 km/h (3 Bft) 98,25 %
28.01.2018 22:26 9,2 C 3,9 C 76 % 1033,4 hPa 0,0 l/m 14,9 km/h (3 Bft) W 263 0 min 0,000 mm 0,0 UV-I 0 W/m 5,2 C 4,2 C 20,9 km/h (4 Bft) 96,84 %
28.01.2018 22:28 9,2 C 3,9 C 76 % 1033,4 hPa 0,0 l/m 12,1 km/h (2 Bft) W 279 0 min 0,000 mm 0,0 UV-I 0 W/m 5,2 C 5,5 C 16,1 km/h (3 Bft) 96,00 %
28.01.2018 22:30 9,2 C 3,9 C 76 % 1033,4 hPa 0,0 l/m 9,2 km/h (2 Bft) W 272 0 min 0,000 mm 0,0 UV-I 0 W/m 5,2 C 7,2 C 16,1 km/h (3 Bft) 97,56 %
28.01.2018 22:32 9,2 C 3,9 C 76 % 1033,4 hPa 0,0 l/m 9,4 km/h (2 Bft) W-SW 252 0 min 0,000 mm 0,0 UV-I 0 W/m 5,2 C 7,1 C 16,1 km/h (3 Bft) 98,00 %
28.01.2018 22:34 9,1 C 3,9 C 76 % 1033,3 hPa 0,0 l/m 12,4 km/h (3 Bft) S-SO 158 0 min 0,000 mm 0,0 UV-I 0 W/m 5,1 C 5,3 C 20,9 km/h (4 Bft) 98,00 %
28.01.2018 22:36 9,2 C 3,9 C 76 % 1033,4 hPa 0,0 l/m 10,8 km/h (2 Bft) W-SW 249 0 min 0,000 mm 0,0 UV-I 0 W/m 5,2 C 6,2 C 17,7 km/h (3 Bft) 97,14 %
28.01.2018 22:38 9,2 C 3,9 C 76 % 1033,4 hPa 0,0 l/m 15,7 km/h (3 Bft) W-SW 239 0 min 0,000 mm 0,0 UV-I 0 W/m 5,2 C 3,9 C 22,5 km/h (4 Bft) 96,00 %
28.01.2018 22:40 9,3 C 3,9 C 75 % 1033,4 hPa 0,0 l/m 13,7 km/h (3 Bft) W-SW 242 0 min 0,000 mm 0,0 UV-I 0 W/m 5,1 C 4,9 C 20,9 km/h (4 Bft) 95,74 %
28.01.2018 22:42 9,3 C 3,9 C 75 % 1033,4 hPa 0,0 l/m 11,6 km/h (2 Bft) W-SW 253 0 min 0,000 mm 0,0 UV-I 0 W/m 5,1 C 5,9 C 16,1 km/h (3 Bft) 96,23 %
28.01.2018 22:44 9,2 C 3,9 C 76 % 1033,5 hPa 0,0 l/m 9,4 km/h (2 Bft) W 263 0 min 0,000 mm 0,0 UV-I 0 W/m 5,2 C 7,1 C 14,5 km/h (3 Bft) 97,37 %
28.01.2018 22:46 9,3 C 3,9 C 76 % 1033,4 hPa 0,0 l/m 9,3 km/h (2 Bft) W 273 0 min 0,000 mm 0,0 UV-I 0 W/m 5,3 C 7,3 C 16,1 km/h (3 Bft) 98,00 %
28.01.2018 22:48 9,3 C 3,9 C 75 % 1033,4 hPa 0,0 l/m 13,5 km/h (3 Bft) SW 234 0 min 0,000 mm 0,0 UV-I 0 W/m 5,1 C 5,0 C 22,5 km/h (4 Bft) 97,56 %
28.01.2018 22:50 9,3 C 3,9 C 75 % 1033,5 hPa 0,0 l/m 6,3 km/h (2 Bft) NW 315 0 min 0,000 mm 0,0 UV-I 0 W/m 5,1 C 9,3 C 9,7 km/h (2 Bft) 100,00 %
28.01.2018 22:52 9,4 C 3,9 C 75 % 1033,4 hPa 0,0 l/m 12,7 km/h (3 Bft) W-SW 250 0 min 0,000 mm 0,0 UV-I 0 W/m 5,2 C 5,5 C 20,9 km/h (4 Bft) 100,00 %
28.01.2018 22:54 9,4 C 3,9 C 75 % 1033,4 hPa 0,0 l/m 10,9 km/h (2 Bft) W 261 0 min 0,000 mm 0,0 UV-I 0 W/m 5,2 C 6,4 C 14,5 km/h (3 Bft) 97,87 %
28.01.2018 22:56 9,4 C 3,9 C 75 % 1033,4 hPa 0,0 l/m 8,9 km/h (2 Bft) W 269 0 min 0,000 mm 0,0 UV-I 0 W/m 5,2 C 7,6 C 14,5 km/h (3 Bft) 100,00 %
28.01.2018 22:58 9,4 C 3,9 C 75 % 1033,4 hPa 0,0 l/m 14,3 km/h (3 Bft) W-SW 243 0 min 0,000 mm 0,0 UV-I 0 W/m 5,2 C 4,7 C 20,9 km/h (4 Bft) 97,56 %
28.01.2018 23:00 9,4 C 3,9 C 75 % 1033,4 hPa 0,0 l/m 9,5 km/h (2 Bft) W-SW 238 0 min 0,000 mm 0,0 UV-I 0 W/m 5,2 C 7,2 C 20,9 km/h (4 Bft) 100,00 %
28.01.2018 23:02 9,4 C 3,9 C 75 % 1033,4 hPa 0,0 l/m 15,1 km/h (3 Bft) W 273 0 min 0,025 mm 0,0 UV-I 0 W/m 5,2 C 4,4 C 19,3 km/h (3 Bft) 100,00 %
28.01.2018 23:04 9,4 C 3,9 C 75 % 1033,4 hPa 0,0 l/m 9,1 km/h (2 Bft) W 265 0 min 0,000 mm 0,0 UV-I 0 W/m 5,2 C 7,5 C 12,9 km/h (3 Bft) 98,00 %
28.01.2018 23:06 9,3 C 3,9 C 75 % 1033,4 hPa 0,0 l/m 9,9 km/h (2 Bft) W-SW 257 0 min 0,000 mm 0,0 UV-I 0 W/m 5,1 C 6,9 C 14,5 km/h (3 Bft) 100,00 %
28.01.2018 23:08 9,3 C 3,9 C 75 % 1033,4 hPa 0,0 l/m 14,1 km/h (3 Bft) W-NW 301 0 min 0,000 mm 0,0 UV-I 0 W/m 5,1 C 4,7 C 25,7 km/h (4 Bft) 100,00 %
28.01.2018 23:10 9,4 C 3,9 C 75 % 1033,4 hPa 0,0 l/m 11,4 km/h (2 Bft) W-SW 240 0 min 0,000 mm 0,0 UV-I 0 W/m 5,2 C 6,1 C 20,9 km/h (4 Bft) 100,00 %
28.01.2018 23:12 9,4 C 3,9 C 75 % 1033,4 hPa 0,0 l/m 14,6 km/h (3 Bft) W 263 0 min 0,000 mm 0,0 UV-I 0 W/m 5,2 C 4,6 C 20,9 km/h (4 Bft) 97,56 %
28.01.2018 23:14 9,5 C 3,9 C 75 % 1033,4 hPa 0,0 l/m 12,7 km/h (3 Bft) W 270 0 min 0,000 mm 0,0 UV-I 0 W/m 5,3 C 5,6 C 20,9 km/h (4 Bft) 100,00 %
28.01.2018 23:16 9,5 C 3,9 C 75 % 1033,4 hPa 0,0 l/m 13,4 km/h (3 Bft) W-SW 257 0 min 0,000 mm 0,0 UV-I 0 W/m 5,3 C 5,2 C 22,5 km/h (4 Bft) 100,00 %
28.01.2018 23:18 9,5 C 3,9 C 75 % 1033,4 hPa 0,0 l/m 14,5 km/h (3 Bft) W-SW 250 0 min 0,000 mm 0,0 UV-I 0 W/m 5,3 C 4,7 C 20,9 km/h (4 Bft) 100,00 %
28.01.2018 23:20 9,5 C 3,9 C 74 % 1033,4 hPa 0,0 l/m 12,5 km/h (3 Bft) W-NW 296 0 min 0,000 mm 0,0 UV-I 0 W/m 5,1 C 5,7 C 19,3 km/h (3 Bft) 100,00 %
28.01.2018 23:22 9,5 C 3,9 C 75 % 1033,4 hPa 0,0 l/m 13,2 km/h (3 Bft) W 267 0 min 0,000 mm 0,0 UV-I 0 W/m 5,3 C 5,3 C 19,3 km/h (3 Bft) 100,00 %
28.01.2018 23:24 9,4 C 3,9 C 75 % 1033,4 hPa 0,0 l/m 15,6 km/h (3 Bft) W 259 0 min 0,000 mm 0,0 UV-I 0 W/m 5,2 C 4,2 C 20,9 km/h (4 Bft) 100,00 %
28.01.2018 23:26 9,5 C 3,9 C 75 % 1033,4 hPa 0,0 l/m 13,1 km/h (3 Bft) W-SW 242 0 min 0,000 mm 0,0 UV-I 0 W/m 5,3 C 5,4 C 17,7 km/h (3 Bft) 100,00 %
28.01.2018 23:28 9,5 C 3,9 C 75 % 1033,4 hPa 0,0 l/m 15,6 km/h (3 Bft) W-SW 252 0 min 0,000 mm 0,0 UV-I 0 W/m 5,3 C 4,3 C 22,5 km/h (4 Bft) 100,00 %
28.01.2018 23:30 9,5 C 3,9 C 75 % 1033,3 hPa 0,0 l/m 16,8 km/h (3 Bft) W-SW 252 0 min 0,000 mm 0,0 UV-I 0 W/m 5,3 C 3,8 C 24,1 km/h (4 Bft) 96,00 %
28.01.2018 23:32 9,4 C 3,9 C 75 % 1033,3 hPa 0,0 l/m 13,8 km/h (3 Bft) W-SW 249 0 min 0,000 mm 0,0 UV-I 0 W/m 5,2 C 4,9 C 22,5 km/h (4 Bft) 100,00 %
28.01.2018 23:34 9,4 C 3,9 C 75 % 1033,4 hPa 0,0 l/m 12,9 km/h (3 Bft) W 272 0 min 0,000 mm 0,0 UV-I 0 W/m 5,2 C 5,4 C 19,3 km/h (3 Bft) 100,00 %
28.01.2018 23:36 9,4 C 3,9 C 75 % 1033,4 hPa 0,0 l/m 11,3 km/h (2 Bft) W-SW 246 0 min 0,000 mm 0,0 UV-I 0 W/m 5,2 C 6,2 C 17,7 km/h (3 Bft) 100,00 %
28.01.2018 23:38 9,3 C 3,9 C 75 % 1033,3 hPa 0,0 l/m 11,4 km/h (2 Bft) W 274 0 min 0,000 mm 0,0 UV-I 0 W/m 5,1 C 6,0 C 14,5 km/h (3 Bft) 100,00 %
28.01.2018 23:40 9,3 C 3,9 C 75 % 1033,3 hPa 0,0 l/m 11,2 km/h (2 Bft) W-SW 249 0 min 0,000 mm 0,0 UV-I 0 W/m 5,1 C 6,1 C 16,1 km/h (3 Bft) 100,00 %
28.01.2018 23:42 9,3 C 3,9 C 75 % 1033,3 hPa 0,0 l/m 10,2 km/h (2 Bft) W-SW 258 0 min 0,000 mm 0,0 UV-I 0 W/m 5,1 C 6,7 C 14,5 km/h (3 Bft) 100,00 %
28.01.2018 23:44 9,3 C 3,9 C 76 % 1033,3 hPa 0,0 l/m 11,6 km/h (2 Bft) W-SW 245 0 min 0,000 mm 0,0 UV-I 0 W/m 5,3 C 5,9 C 16,1 km/h (3 Bft) 100,00 %
28.01.2018 23:46 9,3 C 3,9 C 76 % 1033,3 hPa 0,0 l/m 8,5 km/h (2 Bft) W-SW 245 0 min 0,000 mm 0,0 UV-I 0 W/m 5,3 C 7,8 C 12,9 km/h (3 Bft) 100,00 %
28.01.2018 23:48 9,3 C 3,9 C 76 % 1033,4 hPa 0,0 l/m 6,8 km/h (2 Bft) W-SW 258 0 min 0,000 mm 0,0 UV-I 0 W/m 5,3 C 9,0 C 12,9 km/h (3 Bft) 100,00 %
28.01.2018 23:50 9,2 C 3,9 C 76 % 1033,4 hPa 0,0 l/m 6,2 km/h (2 Bft) W-SW 245 0 min 0,000 mm 0,0 UV-I 0 W/m 5,2 C 9,2 C 11,3 km/h (2 Bft) 100,00 %
28.01.2018 23:52 9,2 C 3,9 C 76 % 1033,4 hPa 0,0 l/m 6,1 km/h (2 Bft) W 259 0 min 0,000 mm 0,0 UV-I 0 W/m 5,2 C 9,2 C 12,9 km/h (3 Bft) 100,00 %
28.01.2018 23:54 9,1 C 3,9 C 77 % 1033,3 hPa 0,0 l/m 8,5 km/h (2 Bft) SW 226 0 min 0,000 mm 0,0 UV-I 0 W/m 5,3 C 7,6 C 16,1 km/h (3 Bft) 100,00 %
28.01.2018 23:56 9,1 C 3,9 C 77 % 1033,3 hPa 0,0 l/m 8,0 km/h (2 Bft) W-SW 252 0 min 0,000 mm 0,0 UV-I 0 W/m 5,3 C 7,9 C 11,3 km/h (2 Bft) 100,00 %
28.01.2018 23:58 9,1 C 3,9 C 77 % 1033,3 hPa 0,0 l/m 7,8 km/h (2 Bft) SW 233 0 min 0,000 mm 0,0 UV-I 0 W/m 5,3 C 8,1 C 11,3 km/h (2 Bft) 100,00 %
_ Min-Zeit 00:36 00:00 12:50 16:26 - 00:00 - - - - - - 00:36 06:48 00:00 21:00
Minimum _ 1,5 C 3,9 C 62 % 1033,2 hPa - 0,0 km/h (0 Bft) - - - - - - 1,4 C -2,6 C 0,0 km/h (0 Bft) 91,43 %
_ Max-Zeit 12:54 00:00 00:00 00:04 07:36 11:48 - - 07:50 12:02 11:36 12:06 15:08 22:04 10:06 01:02
Maximum _ 10,1 C 3,9 C 99 % 1035,0 hPa 0,2 l/m 23,0 km/h
W (4 Bft)
- - 2 min 0,229 mm 1,0 UV-I 497 W/m 5,6 C 9,3 C 35,4 km/h
SW (5 Bft)
100,00 %
Durchschnitt _ 6,0 C 3,9 C 86 % 1033,9 hPa #0,2 l/m 7,4 km/h (2 Bft) W-SW - #3:28 h #0,965 mm 0,7 UV-I 148 W/m 3,7 C 4,2 C 11,8 km/h (2 Bft) 98,09 %